[[{"header":{"parameterUnit":"m.s-1","parameterCategory":1,"la1":31.0,"la2":29.5877,"lo1":-88.7671,"lo2":-86.6584,"dy":0.0162,"dx":0.0185,"nx":115,"ny":88,"refTime":"2024-06-20T12:00:00:Z","depth":0,"parameterNumber":2,"parameterNumberName":"U-component_of_WINDS"},"data":[0.0,0.0,0.0,0.0,0.0,0.0,0.0,0.0,0.0,0.0,0.0,0.0,0.0,0.0,0.0,0.0,0.0,0.0,0.0,0.0,0.0,0.0,0.0,0.0,0.0,0.0,0.0,0.0,0.0,0.0,0.0,0.0,0.0,0.0,0.0,0.0,0.0,0.0,0.0,0.0,0.0,0.0,0.0,0.0,0.0,0.0,0.0,0.0,0.0,0.0,0.0,0.0,0.0,0.0,0.0,0.0,0.0,0.0,0.0,0.0,0.0,0.0,0.0,0.0,0.0,0.0,0.0,0.0,0.0,0.0,0.0,0.0,0.0,0.0,0.0,0.0,0.0,0.0,0.0,0.0,0.0,0.0,0.0,0.0,0.0,0.0,0.0,0.0,0.0,0.0,0.0,0.0,0.0,0.0,0.0,0.0,0.0,0.0,0.0,0.0,0.0,0.0,0.0,0.0,0.0,0.0,0.0,0.0,0.0,0.0,0.0,0.0,0.0,0.0,0.0,0.0,0.0,0.0,0.0,0.0,0.0,0.0,0.0,0.0,0.0,0.0,0.0,0.0,0.0,0.0,0.0,0.0,0.0,0.0,0.0,0.0,0.0,0.0,0.0,0.0,0.0,0.0,0.0,0.0,0.0,0.0,0.0,0.0,0.0,0.0,0.0,0.0,0.0,0.0,0.0,0.0,0.0,0.0,0.0,0.0,0.0,0.0,0.0,0.0,0.0,0.0,0.0,0.0,0.0,0.0,0.0,0.0,0.0,0.0,0.0,0.0,0.0,0.0,0.0,0.0,0.0,0.0,0.0,0.0,0.0,0.0,0.0,0.0,0.0,0.0,0.0,0.0,0.0,0.0,0.0,0.0,0.0,0.0,0.0,0.0,0.0,0.0,0.0,0.0,0.0,0.0,0.0,0.0,0.0,0.0,0.0,0.0,0.0,0.0,0.0,0.0,0.0,0.0,0.0,0.0,0.0,0.0,0.0,0.0,0.0,0.0,0.0,0.0,0.0,0.0,0.0,0.0,0.0,0.0,0.0,0.0,0.0,0.0,0.0,0.0,0.0,0.0,0.0,0.0,0.0,0.0,0.0,0.0,0.0,0.0,0.0,0.0,0.0,0.0,0.0,0.0,0.0,0.0,0.0,0.0,0.0,0.0,0.0,0.0,0.0,0.0,0.0,0.0,0.0,0.0,0.0,0.0,0.0,0.0,0.0,0.0,0.0,0.0,0.0,0.0,0.0,0.0,0.0,0.0,0.0,0.0,0.0,0.0,0.0,0.0,0.0,0.0,0.0,0.0,0.0,0.0,0.0,0.0,0.0,0.0,0.0,0.0,0.0,0.0,0.0,0.0,0.0,0.0,0.0,0.0,0.0,0.0,0.0,0.0,0.0,0.0,0.0,0.0,0.0,0.0,0.0,0.0,0.0,0.0,0.0,0.0,0.0,0.0,0.0,0.0,0.0,0.0,0.0,0.0,0.0,0.0,0.0,0.0,0.0,0.0,0.0,0.0,0.0,0.0,0.0,0.0,0.0,0.0,0.0,0.0,0.0,0.0,0.0,0.0,0.0,0.0,0.0,0.0,0.0,0.0,0.0,0.0,0.0,0.0,0.0,0.0,0.0,0.0,0.0,0.0,0.0,0.0,0.0,0.0,0.0,0.0,0.0,0.0,0.0,0.0,0.0,0.0,0.0,0.0,0.0,0.0,0.0,0.0,0.0,0.0,0.0,0.0,0.0,0.0,0.0,0.0,0.0,0.0,0.0,0.0,0.0,0.0,0.0,0.0,0.0,0.0,0.0,0.0,0.0,0.0,0.0,0.0,0.0,0.0,0.0,0.0,0.0,0.0,0.0,0.0,0.0,0.0,0.0,0.0,0.0,0.0,0.0,0.0,0.0,0.0,0.0,0.0,0.0,0.0,0.0,0.0,0.0,0.0,0.0,0.0,0.0,0.0,0.0,0.0,0.0,0.0,0.0,0.0,0.0,0.0,0.0,0.0,0.0,0.0,0.0,0.0,0.0,0.0,0.0,0.0,0.0,0.0,0.0,0.0,0.0,0.0,0.0,0.0,0.0,0.0,0.0,0.0,0.0,0.0,0.0,0.0,0.0,0.0,0.0,0.0,0.0,0.0,0.0,0.0,0.0,0.0,0.0,0.0,0.0,0.0,0.0,0.0,0.0,0.0,0.0,0.0,0.0,0.0,0.0,0.0,0.0,0.0,0.0,0.0,0.0,0.0,0.0,0.0,0.0,0.0,0.0,0.0,0.0,0.0,0.0,0.0,0.0,0.0,0.0,0.0,0.0,0.0,0.0,0.0,0.0,0.0,0.0,0.0,0.0,0.0,0.0,0.0,0.0,0.0,0.0,0.0,0.0,0.0,0.0,0.0,0.0,0.0,0.0,0.0,0.0,0.0,0.0,0.0,0.0,0.0,0.0,0.0,0.0,0.0,0.0,0.0,0.0,0.0,0.0,0.0,0.0,0.0,0.0,0.0,0.0,0.0,0.0,0.0,0.0,0.0,0.0,0.0,0.0,0.0,0.0,0.0,0.0,0.0,0.0,0.0,0.0,0.0,0.0,0.0,0.0,0.0,0.0,0.0,0.0,0.0,0.0,0.0,0.0,0.0,0.0,0.0,0.0,0.0,0.0,0.0,0.0,0.0,0.0,0.0,0.0,0.0,0.0,0.0,0.0,0.0,0.0,0.0,0.0,0.0,0.0,0.0,0.0,0.0,0.0,0.0,0.0,0.0,0.0,0.0,0.0,0.0,0.0,0.0,0.0,0.0,0.0,0.0,0.0,0.0,0.0,0.0,0.0,0.0,0.0,0.0,0.0,0.0,0.0,0.0,0.0,0.0,0.0,0.0,0.0,0.0,0.0,0.0,0.0,0.0,0.0,0.0,0.0,0.0,0.0,0.0,0.0,0.0,0.0,0.0,0.0,0.0,0.0,0.0,0.0,0.0,0.0,0.0,0.0,0.0,0.0,0.0,0.0,0.0,0.0,0.0,0.0,0.0,0.0,0.0,0.0,0.0,0.0,0.0,0.0,0.0,0.0,0.0,0.0,0.0,0.0,0.0,0.0,0.0,0.0,0.0,0.0,0.0,0.0,0.0,0.0,0.0,0.0,0.0,0.0,0.0,0.0,0.0,0.0,0.0,0.0,0.0,0.0,0.0,0.0,0.0,0.0,0.0,0.0,0.0,0.0,0.0,0.0,0.0,0.0,0.0,0.0,0.0,0.0,0.0,0.0,0.0,0.0,0.0,0.0,0.0,0.0,0.0,0.0,0.0,0.0,0.0,0.0,0.0,0.0,0.0,0.0,0.0,0.0,0.0,0.0,0.0,0.0,0.0,0.0,0.0,0.0,0.0,0.0,0.0,0.0,0.0,0.0,0.0,0.0,0.0,0.0,0.0,0.0,0.0,0.0,0.0,0.0,0.0,0.0,0.0,0.0,0.0,0.0,0.0,0.0,0.0,0.0,0.0,0.0,0.0,0.0,0.0,0.0,0.0,0.0,0.0,0.0,0.0,0.0,0.0,0.0,0.0,0.0,0.0,0.0,0.0,0.0,0.0,0.0,0.0,0.0,0.0,0.0,0.0,0.0,0.0,0.0,0.0,0.0,0.0,0.0,0.0,0.0,0.0,0.0,0.0,0.0,0.0,0.0,0.0,0.0,0.0,0.0,0.0,0.0,0.0,0.0,0.0,0.0,0.0,0.0,0.0,0.0,0.0,0.0,0.0,0.0,0.0,0.0,0.0,0.0,0.0,0.0,0.0,0.0,0.0,0.0,0.0,0.0,0.0,0.0,0.0,0.0,0.0,0.0,0.0,0.0,0.0,0.0,0.0,0.0,0.0,0.0,0.0,0.0,0.0,0.0,0.0,0.0,0.0,0.0,0.0,0.0,0.0,0.0,0.0,0.0,0.0,0.0,0.0,0.0,0.0,0.0,0.0,0.0,0.0,0.0,0.0,0.0,0.0,0.0,0.0,0.0,0.0,0.0,0.0,0.0,0.0,0.0,0.0,0.0,0.0,0.0,0.0,0.0,0.0,0.0,0.0,0.0,0.0,0.0,0.0,0.0,0.0,0.0,0.0,0.0,0.0,0.0,0.0,0.0,0.0,0.0,0.0,0.0,0.0,0.0,0.0,0.0,0.0,0.0,0.0,0.0,0.0,0.0,0.0,0.0,0.0,0.0,0.0,0.0,0.0,0.0,0.0,0.0,0.0,0.0,0.0,0.0,0.0,0.0,0.0,0.0,0.0,0.0,0.0,0.9185,0.0,0.0,0.0,0.0,0.0,0.0,0.0,0.0,0.0,0.0,0.0,0.0,0.0,0.0,0.0,0.0,0.0,0.0,0.0,0.0,0.0,0.0,0.0,0.0,0.0,0.0,0.0,0.0,0.0,0.0,0.0,0.0,0.0,0.0,0.0,0.0,0.0,0.0,0.0,0.0,0.0,0.0,0.0,0.0,0.0,0.0,0.0,0.0,0.0,0.0,0.0,0.0,0.0,0.0,0.0,0.0,0.0,0.0,0.0,0.0,0.0,0.0,0.0,0.0,0.0,0.0,0.0,0.0,0.0,0.0,0.0,0.0,0.0,0.0,0.0,0.0,0.0,0.0,0.0,0.0,0.0,0.0,0.0,0.0,0.0,0.0,0.0,0.0,0.0,0.0,0.0,0.0,0.0,0.0,0.0,0.0,0.0,0.0,0.0,0.0,0.0,0.0,0.0,0.0,0.0,0.0,0.0,0.0,0.0,0.0,0.9453,0.8856,1.0256,1.0312,0.8922,0.0,0.0,0.0,0.0,0.0,0.0,0.0,0.0,0.0,0.0,0.0,0.0,0.0,0.0,0.0,0.0,0.0,0.0,0.0,0.0,0.0,0.0,0.0,0.0,0.0,0.0,0.0,0.0,0.0,0.0,0.0,0.0,0.0,0.0,0.0,0.0,0.0,0.0,0.0,0.0,0.0,0.0,0.0,0.0,0.0,0.0,0.0,0.0,0.0,0.0,0.0,0.0,0.0,0.0,0.0,0.0,0.0,0.0,0.0,0.0,0.0,0.0,0.0,0.0,0.0,0.0,0.0,0.0,0.0,0.0,0.0,0.0,0.0,0.0,0.0,0.0,0.0,0.0,0.0,0.0,0.0,0.0,0.0,0.0,0.0,0.0,0.0,0.0,0.0,0.0,0.0,0.0,0.0,0.0,0.0,0.0,0.0,0.0,0.0,0.0,0.0,0.0,0.0,0.0,0.0,0.0,0.0,0.0,0.0,0.0,0.0,0.0,1.0051,1.0081,0.8993,0.0,0.0,0.0,0.0,0.0,0.0,0.0,0.0,0.0,0.0,0.0,0.0,0.0,0.0,0.0,0.0,0.0,0.0,0.0,0.0,0.0,0.0,0.0,0.0,0.0,0.0,0.0,0.0,0.0,0.0,0.0,0.0,0.0,0.0,0.0,0.0,0.0,0.0,0.0,0.0,0.0,0.0,0.0,0.0,0.0,0.0,0.0,0.0,0.0,0.0,0.0,0.0,0.0,0.0,0.0,0.0,0.0,0.0,0.0,0.0,0.0,0.0,0.0,0.0,0.0,0.0,0.0,0.0,0.0,0.0,0.0,0.0,0.0,0.0,0.0,0.0,0.0,0.0,0.0,0.0,0.0,0.0,0.0,0.0,0.0,0.0,0.0,0.0,0.0,0.0,0.0,0.0,0.0,0.0,0.0,0.0,0.0,0.0,0.0,0.0,0.0,0.0,0.0,0.0,0.0,0.0,0.0,0.0,0.0,0.0,0.8589,0.999,0.984,0.0,0.9533,0.0,0.0,0.0,0.0,0.0,0.0,0.0,0.0,0.0,0.0,0.0,0.0,0.0,0.0,0.0,0.0,0.0,0.0,0.0,0.0,0.0,0.0,0.0,0.0,0.0,0.0,0.0,0.0,0.0,0.0,0.0,0.0,0.0,0.0,0.0,0.0,0.0,0.0,0.0,0.0,0.0,0.0,0.0,0.0,0.0,0.0,0.0,0.0,0.0,0.0,0.0,0.0,0.0,0.0,0.0,0.0,0.0,0.0,0.0,0.0,0.0,0.0,0.0,0.0,0.0,0.0,0.0,0.0,0.0,0.0,0.0,0.0,0.0,0.0,0.0,0.0,0.0,0.0,0.0,0.0,0.0,0.0,0.0,0.0,0.0,0.0,0.0,0.0,0.0,0.0,0.0,0.0,0.0,0.0,0.0,0.0,0.0,0.0,0.0,0.0,0.0,0.0,0.0,0.0,0.0,0.0,0.0,0.0,0.0,0.0,0.8229,0.9257,0.9043,0.8755,0.0,0.0,0.0,0.0,0.0,0.0,0.0,0.0,0.0,0.0,0.0,0.0,0.0,0.0,0.0,0.0,0.0,0.0,0.0,0.0,0.0,0.0,0.0,0.0,0.0,0.0,0.0,0.0,0.0,0.0,0.0,0.0,0.0,0.0,0.0,0.0,0.0,0.0,0.0,0.0,0.0,0.0,0.0,0.0,0.0,0.0,0.0,0.0,0.0,0.0,0.0,0.0,0.0,0.0,0.0,0.0,0.0,0.0,0.0,0.0,0.0,0.0,0.0,0.0,0.0,0.0,0.0,0.0,0.0,0.0,0.0,0.0,0.0,0.0,0.0,0.0,0.0,0.0,0.0,0.0,0.0,0.0,0.0,0.0,0.0,0.0,0.0,0.0,0.0,0.0,0.0,0.0,0.0,0.0,0.0,0.0,0.0,0.0,0.0,0.0,0.0,0.0,0.0,0.0,0.0,0.0,0.0,0.0,0.0,0.0,0.7789,0.789,0.8548,0.8379,0.8141,0.7911,0.0,0.0,0.0,0.0,0.0,0.0,0.0,0.0,0.0,0.0,0.0,0.0,0.0,0.0,0.0,0.0,0.0,0.0,0.0,0.0,0.0,0.0,0.0,0.0,0.0,0.0,0.0,0.0,0.0,0.0,0.0,0.0,0.0,0.0,0.0,0.0,0.0,0.0,0.0,0.0,0.0,0.0,0.0,0.0,0.0,0.0,0.0,0.0,0.0,0.0,0.0,0.0,0.0,0.0,0.0,0.0,0.0,0.0,0.0,0.0,0.0,0.0,0.0,0.0,0.0,0.0,0.0,0.0,0.0,0.0,0.0,0.0,0.0,0.0,0.0,0.0,0.0,0.0,0.0,0.0,0.0,0.0,0.0,0.0,0.0,0.0,0.0,0.0,0.0,0.0,0.0,0.0,0.0,0.0,0.0,0.0,0.0,0.0,0.0,0.0,0.0,0.0,0.0,0.0,0.0,0.0,0.0,0.0,0.9138,0.782,0.7509,0.8363,0.8042,0.7998,0.0,0.0,0.0,0.0,0.0,0.0,0.0,0.0,0.0,0.0,0.0,0.0,0.0,0.0,0.0,0.0,0.0,0.0,0.0,0.0,0.0,0.0,0.0,0.0,0.0,0.0,0.0,0.0,0.0,0.0,0.0,0.0,0.0,0.0,0.0,0.0,0.0,0.0,0.0,0.0,0.0,0.0,0.0,0.0,0.0,0.0,0.0,0.0,0.0,0.0,0.0,0.0,0.0,0.0,0.0,0.0,0.0,0.0,0.0,0.0,0.0,0.0,0.0,0.0,0.0,0.0,0.0,0.0,0.0,0.0,0.0,0.0,0.0,0.0,0.0,0.0,0.0,0.0,0.0,0.0,0.0,0.0,0.0,0.0,0.0,0.0,0.0,0.0,0.0,0.0,0.0,0.0,0.0,0.0,0.0,0.0,0.0,0.0,0.0,0.0,0.0,0.0,0.0,0.0,0.0,0.0,0.0,0.0,0.0,0.7327,0.6739,0.6463,0.6499,0.6518,0.6739,0.0,0.0,0.0,0.0,0.0,0.0,0.0,0.0,0.0,0.0,0.0,0.0,0.0,0.0,0.0,0.0,0.0,0.0,0.0,0.0,0.0,0.0,0.0,0.0,0.0,0.0,0.0,0.0,0.0,0.0,0.0,0.0,0.0,0.0,0.0,0.0,0.0,0.0,0.0,0.0,0.0,0.0,0.0,0.0,0.0,0.0,0.0,0.0,0.0,0.0,0.0,0.0,0.0,0.0,0.0,0.0,0.0,0.0,0.0,0.0,0.0,0.0,0.0,0.0,0.0,0.0,0.0,0.0,0.0,0.0,0.0,0.0,0.0,0.0,0.0,0.0,0.0,0.0,0.0,0.0,0.0,0.0,0.0,0.0,0.0,0.0,0.0,0.0,0.0,0.0,0.0,0.0,0.0,0.0,0.0,0.0,0.0,0.0,0.0,0.0,0.0,0.0,0.0,0.0,0.0,0.0,0.0,0.0,0.0,0.5566,0.0,0.5653,0.0,0.5448,0.5829,0.0,0.0,0.0,0.0,0.0,0.0,0.0,0.0,0.0,0.0,0.0,0.0,0.0,0.0,0.0,0.0,0.0,0.0,0.0,0.0,0.0,0.0,0.0,0.0,0.0,0.0,0.0,0.0,0.0,0.0,0.0,0.0,0.0,0.0,0.0,0.0,0.0,0.0,0.0,0.0,0.0,0.0,0.0,0.0,0.0,0.0,0.0,0.0,0.0,0.0,0.0,0.0,0.0,0.0,0.0,0.0,0.0,0.0,0.0,0.0,0.0,0.0,0.0,0.0,0.0,0.0,0.0,0.0,0.0,0.0,0.0,0.0,0.0,0.0,0.0,0.0,0.0,0.0,0.0,0.0,0.0,0.0,0.0,0.0,0.0,0.0,0.0,0.0,0.0,0.0,0.0,0.0,0.0,0.0,0.0,0.0,0.0,0.0,0.0,0.0,0.0,0.0,0.0,0.0,0.0,0.0,0.0,0.0,0.4957,0.3919,0.5039,0.5127,0.446,0.4811,0.5317,0.0,0.0,0.0,0.0,0.0,0.0,0.0,0.0,0.0,0.0,0.0,0.0,0.0,0.0,0.0,0.0,0.0,0.0,0.0,0.0,0.0,0.0,0.0,0.0,0.0,0.0,0.0,0.0,0.0,0.0,0.0,0.0,0.0,0.0,0.0,0.0,0.0,0.0,0.0,0.0,0.0,0.0,0.0,0.0,0.0,0.0,0.0,0.0,0.0,0.0,0.0,0.0,0.0,0.0,0.0,0.0,0.0,0.0,0.0,0.0,0.0,0.0,0.0,0.0,0.0,0.0,0.0,0.0,0.0,0.0,0.0,0.0,0.0,0.0,0.0,0.0,0.0,0.0,0.0,0.0,0.0,0.0,0.0,0.0,0.0,0.0,0.0,0.0,0.0,0.0,0.0,0.0,0.0,0.0,0.0,0.0,0.0,0.0,0.0,0.0,0.0,0.0,0.0,0.0,0.0,0.0,0.0,0.0,0.0,0.2036,0.2127,0.2519,0.3359,0.3276,0.3902,0.0,0.0,0.0,0.0,0.0,0.0,0.0,0.0,0.0,0.0,0.0,0.0,0.0,0.0,0.0,0.0,0.0,0.0,0.0,0.0,0.0,0.0,0.0,0.0,0.0,0.0,0.0,0.0,0.0,0.0,0.0,0.0,0.0,0.0,0.0,0.0,0.0,0.0,0.0,0.0,0.0,0.0,0.0,0.0,0.0,0.0,0.0,0.0,0.0,0.0,0.0,0.0,0.0,0.0,0.0,0.0,0.0,0.0,0.0,0.0,0.0,0.0,0.0,0.0,0.0,0.0,0.0,0.0,0.0,0.0,0.0,0.0,0.0,0.0,0.0,0.0,0.0,0.0,0.0,0.0,0.0,0.0,0.0,0.0,0.0,0.0,0.0,0.0,0.0,0.0,0.0,0.0,0.0,0.0,0.0,0.0,0.0,0.0,0.0,0.0,0.0,0.0,0.0,0.0,0.0,0.0,0.0,0.0,0.0,-0.2984,-0.1084,0.0466,0.146,0.1684,0.2682,0.4479,0.0,0.0,0.0,0.0,0.0,0.0,0.0,0.0,0.0,0.0,0.0,0.0,0.0,0.0,0.0,0.0,0.0,0.0,0.0,0.0,0.0,0.0,0.0,0.0,0.0,0.0,0.0,0.0,0.0,0.0,0.0,0.0,0.0,0.0,0.0,0.0,0.0,0.0,0.0,0.0,0.0,0.0,0.0,0.0,0.0,0.0,0.0,0.0,0.0,0.0,0.0,0.0,0.0,0.0,0.0,0.0,0.0,0.0,0.0,0.0,0.0,0.0,0.0,0.0,0.0,0.0,0.0,0.0,0.0,0.0,0.0,0.0,0.0,0.0,0.0,0.0,0.0,0.0,0.0,0.0,0.0,0.0,0.0,0.0,0.0,0.0,0.0,0.0,0.0,0.0,0.0,0.0,0.0,0.0,0.0,0.0,0.0,0.0,0.0,0.0,0.0,0.0,0.0,0.0,0.0,0.0,0.0,0.0,-1.0586,-0.493,-0.1828,-0.1424,-0.0153,0.1389,0.0,0.0,0.0,0.0,0.0,0.0,0.0,0.0,0.0,0.0,0.0,0.0,0.0,0.0,0.0,0.0,0.0,0.0,0.0,0.0,0.0,0.0,0.0,0.0,0.0,0.0,0.0,0.0,0.0,0.0,0.0,0.0,0.0,0.0,0.0,0.0,0.0,0.0,0.0,0.0,0.0,0.0,0.0,0.0,0.0,0.0,0.0,0.0,0.0,0.0,0.0,0.0,0.0,0.0,0.0,0.0,0.0,0.0,0.0,0.0,0.0,0.0,0.0,0.0,0.0,0.0,0.0,0.0,0.0,0.0,0.0,0.0,0.0,0.0,0.0,0.0,0.0,0.0,0.0,0.0,0.0,0.0,0.0,0.0,0.0,0.0,0.0,0.0,0.0,0.0,0.0,0.0,0.0,0.0,0.0,0.0,0.0,0.0,0.0,0.0,0.0,0.0,0.0,0.0,0.0,0.0,0.0,0.0,0.0,-1.459,-1.4146,-1.144,-0.6412,-0.4184,-0.1959,0.0,0.0,0.0,0.0,0.0,0.0,0.0,0.0,0.0,0.0,0.0,0.0,0.0,0.0,0.0,0.0,0.0,0.0,0.0,0.0,0.0,0.0,0.0,0.0,0.0,0.0,0.0,0.0,0.0,0.0,0.0,0.0,0.0,0.0,0.0,0.0,0.0,0.0,0.0,0.0,0.0,0.0,0.0,0.0,0.0,0.0,0.0,0.0,0.0,0.0,0.0,0.0,0.0,0.0,0.0,0.0,0.0,0.0,0.0,0.0,0.0,0.0,0.0,0.0,0.0,0.0,0.0,0.0,0.0,0.0,0.0,0.0,0.0,0.0,0.0,0.0,0.0,0.0,0.0,0.0,0.0,0.0,0.0,0.0,0.0,0.0,0.0,0.0,0.0,0.0,0.0,0.0,0.0,0.0,0.0,0.0,0.0,0.0,0.0,0.0,0.0,0.0,0.0,0.0,0.0,0.0,0.0,0.0,-1.6572,-1.9878,-2.1381,-2.0076,-1.5777,-1.0337,-0.5954,0.0,0.0,0.0,0.0,0.0,0.0,0.0,0.0,0.0,0.0,0.0,0.0,0.0,0.0,0.0,0.0,0.0,0.0,0.0,0.0,0.0,0.0,0.0,0.0,0.0,0.0,0.0,0.0,0.0,0.0,0.0,0.0,0.0,0.0,0.0,0.0,0.0,0.0,0.0,0.0,0.0,0.0,0.0,0.0,0.0,0.0,0.0,0.0,0.0,0.0,0.0,0.0,0.0,0.0,0.0,0.0,0.0,0.0,0.0,0.0,0.0,0.0,0.0,0.0,0.0,0.0,0.0,0.0,0.0,0.0,0.0,0.0,0.0,0.0,0.0,0.0,0.0,0.0,0.0,0.0,0.0,0.0,0.0,0.0,0.0,0.0,0.0,0.0,0.0,0.0,0.0,0.0,0.0,0.0,0.0,0.0,0.0,0.0,0.0,0.0,0.0,0.0,0.0,0.0,0.0,0.0,0.0,0.0,-2.1006,-2.5375,-2.7187,-2.7596,-2.6411,-1.7256,-1.0463,0.0,0.0,0.0,0.0,0.0,0.0,0.0,0.0,0.0,0.0,0.0,0.0,0.0,0.0,0.0,0.0,0.0,0.0,0.0,0.0,0.0,0.0,0.0,0.0,0.0,0.0,0.0,0.0,0.0,0.0,0.0,0.0,0.0,0.0,0.0,0.0,0.0,0.0,0.0,0.0,0.0,0.0,0.0,0.0,0.0,0.0,0.0,0.0,0.0,0.0,0.0,0.0,0.0,0.0,0.0,0.0,0.0,0.0,0.0,0.0,0.0,0.0,0.0,0.0,0.0,0.0,0.0,0.0,0.0,0.0,0.0,0.0,0.0,0.0,0.0,0.0,0.0,0.0,0.0,0.0,0.0,0.0,0.0,0.0,0.0,0.0,0.0,0.0,0.0,0.0,0.0,0.0,0.0,0.0,0.0,0.0,0.0,0.0,0.0,0.0,0.0,0.0,0.0,0.0,0.0,0.0,0.0,0.0,-2.4818,-2.92,-3.1454,-3.174,-2.9955,-2.2051,-1.5553,0.0,0.0,0.0,0.0,0.0,0.0,0.0,0.0,0.0,0.0,0.0,0.0,0.0,0.0,0.0,0.0,0.0,0.0,0.0,0.0,0.0,0.0,0.0,0.0,0.0,0.0,0.0,0.0,0.0,0.0,0.0,0.0,0.0,0.0,0.0,0.0,0.0,0.0,0.0,0.0,0.0,0.0,0.0,0.0,0.0,0.0,0.0,0.0,0.464,0.0,0.0,0.0,0.0,0.0,0.0,0.0,0.0,0.0,0.0,0.0,0.0,0.0,0.0,0.0,0.0,0.0,0.0,0.0,0.0,0.0,0.0,0.0,0.0,0.0,0.0,0.0,0.0,0.0,0.0,0.0,0.0,0.0,0.0,0.0,0.0,0.0,0.0,0.0,0.0,0.0,0.0,0.0,0.0,0.0,0.0,0.0,0.0,0.0,0.0,0.0,0.0,0.0,0.0,0.0,0.0,0.0,0.0,0.0,-2.7989,-3.2167,-3.449,-3.5136,-3.3938,-2.8805,-2.2234,0.0,0.0,0.0,0.0,0.0,0.0,0.0,0.0,0.0,0.0,0.0,0.0,0.0,0.0,0.0,0.0,0.0,0.0,0.0,0.0,0.0,0.0,0.0,0.0,0.0,0.0,0.0,0.0,0.0,0.0,0.0,0.0,0.0,0.0,0.0,0.0,0.0,0.0,0.0,0.0,0.0,0.0,0.0,0.0,0.0,0.0,0.0,0.0,0.0,0.0,0.0,0.0,0.0,0.0,0.0,0.0,0.0,0.0,0.0,0.0,0.0,0.0,0.0,0.0,0.0,0.0,0.0,0.0,0.0,0.0,0.0,0.0,0.0,0.0,0.0,0.0,0.0,0.0,0.0,0.0,0.0,0.0,0.0,0.0,0.0,0.0,0.0,0.0,0.0,0.0,0.0,0.0,0.0,0.0,0.0,0.0,0.0,0.0,0.0,0.0,0.0,0.0,0.0,0.0,0.0,0.0,0.0,-2.6315,-3.0733,-3.4782,-3.682,-3.7789,-3.776,-3.5262,-2.8747,-1.7961,0.0,0.0,0.0,0.0,0.0,0.0,0.0,0.0,0.0,0.0,0.0,0.0,0.0,0.0,0.0,0.0,0.0,0.0,0.0,0.0,0.0,0.0,0.0,0.0,0.0,0.0,0.0,0.0,0.0,0.0,0.0,0.0,0.0,0.0,0.0,0.0,0.0,0.0,-0.3113,-0.7372,0.0,0.0,0.0,0.0,0.0,0.0,0.0,0.0,-0.5258,0.0,0.0,0.0,0.0,0.0,0.0,0.0,0.0,0.0,0.0,0.0,0.0,0.0,0.0,0.0,0.0,0.0,0.0,0.0,0.0,0.0,0.0,0.0,0.0,0.0,0.0,0.0,0.0,0.0,0.0,0.0,0.0,0.0,0.0,0.0,0.0,0.0,0.0,0.0,0.0,0.0,0.0,0.0,0.0,0.0,0.0,0.0,0.0,0.0,0.0,0.0,0.0,0.0,0.0,0.0,0.0,-2.531,-2.8705,-3.2729,-3.7442,-3.8603,-3.8995,-3.859,-3.7405,-3.2257,-2.3031,0.0,0.0,0.0,0.0,0.0,0.0,0.0,0.0,0.0,0.0,0.0,0.0,0.0,0.0,0.0,0.0,0.0,0.0,0.0,0.0,0.0,0.0,0.0,0.0,0.0,0.0,0.0,0.0,0.0,0.0,0.0,0.0,0.0,0.0,0.0,0.0,0.0,0.0,0.0,-1.3431,-1.4702,0.0,0.0,0.0,0.0,0.0,0.0,0.0,0.0,-0.9888,0.0,0.0,0.0,0.0,0.0,0.0,0.0,0.0,0.0,0.0,0.0,0.0,0.0,0.0,0.0,0.0,0.0,0.0,0.0,0.0,0.0,0.0,0.0,0.0,0.0,0.0,0.0,0.0,0.0,0.0,0.0,0.0,0.0,0.0,0.0,0.0,0.0,0.0,0.0,0.0,0.0,0.0,0.0,0.0,0.0,0.0,0.0,0.0,0.0,0.0,0.0,0.0,0.0,0.0,0.0,-2.9188,-3.2685,-3.5687,-3.8507,-3.9981,-4.0403,-3.9668,-3.8386,-3.4022,0.0,0.0,0.0,0.0,0.0,0.0,0.0,0.0,0.0,0.0,0.0,0.0,0.0,0.0,0.0,0.0,0.0,0.0,0.0,0.0,0.0,0.0,0.0,0.0,0.0,0.0,0.0,0.0,0.0,0.0,0.0,0.0,0.0,0.0,0.0,0.0,0.0,0.0,0.0,0.0,-1.7441,-1.9825,-2.1008,0.0,0.0,0.0,0.0,0.0,0.0,-1.7082,-1.602,0.0,0.0,0.0,0.0,0.0,0.0,0.0,0.0,0.0,0.0,0.0,0.0,0.0,0.0,0.0,0.0,0.0,0.0,0.0,0.0,0.0,0.0,0.0,0.0,0.0,0.0,0.0,0.0,0.0,0.0,0.0,0.0,0.0,0.0,0.0,0.0,0.0,0.0,0.0,0.0,0.0,0.0,0.0,0.0,0.0,0.0,0.0,0.0,0.0,0.0,0.0,0.0,0.0,0.0,0.0,-3.23,-3.5759,-3.8007,-3.9209,-4.0831,-4.1341,-4.0597,-3.8659,-3.4775,0.0,0.0,0.0,0.0,0.0,0.0,0.0,0.0,0.0,0.0,0.0,0.0,0.0,0.0,0.0,0.0,0.0,0.0,0.0,0.0,0.0,0.0,0.0,0.0,0.0,0.0,0.0,0.0,0.0,0.0,0.0,0.0,0.0,0.0,0.0,0.0,0.0,0.0,0.0,0.0,0.0,-2.4222,-2.4778,-2.5331,0.0,0.0,0.0,0.0,-2.2437,-2.2715,0.0,0.0,0.0,0.0,0.0,0.0,0.0,0.0,0.0,0.0,0.0,0.0,0.0,0.0,0.0,0.0,0.0,0.0,0.0,0.0,0.0,0.0,0.0,0.0,0.0,0.0,0.0,0.0,0.0,0.0,0.0,0.0,0.0,0.0,0.0,0.0,0.0,0.0,0.0,0.0,0.0,0.0,0.0,0.0,0.0,0.0,0.0,0.0,0.0,0.0,0.0,0.0,0.0,0.0,0.0,0.0,-3.2902,-3.5595,-3.7984,-4.0111,-4.074,-4.0999,-4.0891,-3.8164,-3.4386,0.0,0.0,0.0,0.0,0.0,0.0,0.0,0.0,0.0,0.0,0.0,0.0,0.0,0.0,0.0,0.0,0.0,0.0,0.0,0.0,0.0,0.0,0.0,0.0,0.0,0.0,0.0,0.0,0.0,0.0,0.0,0.0,0.0,0.0,0.0,0.0,0.0,0.0,0.0,0.0,0.0,-2.7072,-2.8763,-2.8895,-2.8563,0.0,0.0,-2.8608,-3.0321,-3.0493,0.0,0.0,0.0,0.0,0.0,0.0,0.0,0.0,0.0,0.0,0.0,0.0,0.0,0.0,0.0,0.0,0.0,0.0,0.0,0.0,0.0,0.0,0.0,0.0,0.0,0.0,0.0,0.0,0.0,0.0,0.0,0.0,0.0,0.0,0.0,0.0,0.0,0.0,0.0,0.0,0.0,0.0,0.0,0.0,0.0,0.0,0.0,0.0,0.0,0.0,0.0,0.0,0.0,0.0,0.0,-2.7453,-3.1895,-3.6757,-3.9631,-4.04,-4.1247,-4.149,-4.1055,-3.81,-3.485,0.0,0.0,0.0,0.0,0.0,0.0,0.0,0.0,0.0,0.0,0.0,0.0,0.0,0.0,0.0,0.0,0.0,0.0,0.0,0.0,0.0,0.0,0.0,0.0,0.0,0.0,0.0,0.0,0.0,0.0,0.0,0.0,0.0,0.0,0.0,0.0,0.0,0.0,0.0,0.0,0.0,0.0,-3.1434,-3.2688,0.0,0.0,0.0,-3.2956,-3.2929,0.0,0.0,0.0,0.0,0.0,0.0,0.0,0.0,0.0,0.0,0.0,0.0,0.0,0.0,0.0,0.0,0.0,0.0,0.0,0.0,0.0,0.0,0.0,0.0,0.0,0.0,0.0,0.0,0.0,0.0,0.0,0.0,0.0,0.0,0.0,0.0,0.0,0.0,0.0,0.0,0.0,0.0,0.0,0.0,0.0,0.0,0.0,0.0,0.0,0.0,0.0,0.0,0.0,0.0,0.0,0.0,0.0,-3.1018,-3.7468,-4.069,-4.05,-4.1438,-4.1686,-4.1043,-3.8141,0.0,0.0,0.0,0.0,0.0,0.0,0.0,0.0,0.0,0.0,0.0,0.0,0.0,0.0,0.0,0.0,0.0,0.0,0.0,0.0,0.0,0.0,0.0,0.0,0.0,0.0,0.0,-0.8454,0.0,0.0,0.0,0.0,0.0,0.0,0.0,0.0,0.0,0.0,0.0,0.0,0.0,0.0,-3.1627,-3.3471,-3.5605,-3.7405,0.0,0.0,-3.6285,-3.555,-3.6207,-3.5968,0.0,0.0,0.0,0.0,0.0,0.0,0.0,0.0,0.0,0.0,0.0,0.0,0.0,0.0,0.0,0.0,0.0,0.0,0.0,0.0,0.0,0.0,0.0,0.0,0.0,0.0,0.0,0.0,0.0,0.0,0.0,0.0,0.0,0.0,0.0,0.0,0.0,0.0,0.0,0.0,0.0,0.0,0.0,0.0,0.0,0.0,0.0,0.0,0.0,0.0,0.0,0.0,0.0,0.0,-2.909,-3.1278,-3.7007,-4.0172,-4.0565,-4.0913,-4.1061,-4.0971,-3.819,-3.5375,0.0,0.0,0.0,0.0,0.0,0.0,0.0,0.0,0.0,0.0,0.0,0.0,0.0,0.0,0.0,0.0,0.0,0.0,0.0,0.0,0.0,0.0,0.0,0.0,0.0,0.0,0.0,0.0,0.0,0.0,0.0,0.0,0.0,0.0,0.0,0.0,0.0,0.0,0.0,0.0,0.0,-3.3201,-3.4907,-3.7071,-3.9186,0.0,0.0,-3.8384,-4.0137,-4.0488,-4.0006,-3.8118,0.0,0.0,0.0,0.0,0.0,0.0,0.0,0.0,0.0,0.0,0.0,0.0,0.0,0.0,0.0,0.0,0.0,0.0,0.0,0.0,0.0,0.0,0.0,0.0,0.0,0.0,0.0,0.0,0.0,0.0,0.0,0.0,0.0,0.0,0.0,0.0,0.0,0.0,0.0,0.0,0.0,0.0,0.0,0.0,0.0,0.0,0.0,0.0,0.0,0.0,0.0,0.0,0.0,-2.9972,-3.1681,-3.7169,-4.0224,-4.0665,-4.1373,-4.152,-4.1069,-3.9138,-3.654,0.0,0.0,0.0,0.0,0.0,0.0,0.0,0.0,0.0,0.0,0.0,0.0,0.0,0.0,0.0,0.0,0.0,0.0,0.0,0.0,0.0,0.0,0.0,0.0,0.0,0.0,0.0,0.0,-1.3089,-1.3204,-1.4151,0.0,0.0,0.0,0.0,0.0,0.0,0.0,0.0,0.0,0.0,-3.54,-3.7116,-3.9734,0.0,0.0,-4.113,-4.0301,-4.1559,-4.0871,-3.9942,-3.9155,-3.7761,0.0,0.0,0.0,0.0,0.0,0.0,0.0,0.0,0.0,0.0,0.0,0.0,0.0,0.0,0.0,0.0,0.0,0.0,0.0,0.0,0.0,0.0,0.0,0.0,0.0,0.0,0.0,0.0,0.0,0.0,0.0,0.0,0.0,0.0,0.0,0.0,0.0,0.0,0.0,0.0,0.0,0.0,0.0,0.0,0.0,0.0,0.0,0.0,0.0,0.0,0.0,0.0,-3.0803,-3.2415,-3.7697,-4.063,-4.1042,-4.2003,-4.2291,-4.1777,-4.0373,-3.8183,0.0,0.0,0.0,0.0,0.0,0.0,0.0,0.0,0.0,0.0,0.0,0.0,0.0,0.0,0.0,0.0,0.0,0.0,0.0,0.0,0.0,0.0,0.0,0.0,0.0,0.0,0.0,0.0,-1.6289,-1.6306,-1.7111,0.0,0.0,0.0,0.0,0.0,0.0,0.0,0.0,0.0,0.0,-3.7863,-3.8989,-4.1813,-4.3802,-4.3817,-4.2466,-4.1629,-4.2213,-4.0993,-3.9859,-3.9429,0.0,0.0,0.0,0.0,0.0,0.0,0.0,0.0,0.0,0.0,0.0,0.0,0.0,0.0,0.0,0.0,0.0,0.0,0.0,0.0,0.0,0.0,0.0,0.0,0.0,0.0,0.0,0.0,0.0,0.0,-2.6093,0.0,0.0,0.0,0.0,0.0,0.0,0.0,0.0,0.0,0.0,0.0,0.0,0.0,0.0,0.0,0.0,0.0,0.0,0.0,0.0,0.0,0.0,-3.148,-3.3598,-3.8562,-4.1341,-4.1758,-4.275,-4.328,-4.3285,-4.186,-4.0208,-3.8327,0.0,0.0,0.0,0.0,0.0,0.0,0.0,0.0,0.0,0.0,0.0,0.0,0.0,0.0,0.0,0.0,0.0,0.0,0.0,0.0,0.0,0.0,0.0,0.0,0.0,0.0,-2.3043,-2.2329,-2.153,0.0,0.0,0.0,0.0,0.0,0.0,0.0,0.0,0.0,0.0,-3.6752,-4.0544,-4.041,-4.2816,-4.4607,-4.467,-4.3238,-4.2164,-4.2233,-4.133,-4.0294,0.0,0.0,0.0,0.0,0.0,0.0,0.0,0.0,0.0,0.0,0.0,0.0,0.0,0.0,0.0,0.0,0.0,0.0,0.0,0.0,0.0,0.0,0.0,0.0,0.0,0.0,0.0,-3.1005,-2.9947,0.0,0.0,0.0,0.0,0.0,0.0,0.0,0.0,0.0,0.0,0.0,-2.8265,-2.8625,0.0,0.0,0.0,0.0,0.0,0.0,0.0,0.0,0.0,0.0,0.0,0.0,-3.2383,-3.3773,-3.8581,-4.13,-4.162,-4.3146,-4.3747,-4.3286,-4.3327,-4.1446,-3.7401,0.0,0.0,0.0,0.0,0.0,0.0,0.0,0.0,0.0,0.0,0.0,0.0,0.0,0.0,0.0,0.0,0.0,0.0,0.0,0.0,0.0,0.0,0.0,0.0,0.0,-2.4666,0.0,0.0,0.0,0.0,0.0,0.0,0.0,0.0,0.0,0.0,0.0,-3.327,-3.5942,-3.9148,-4.1453,-4.197,-4.3123,-4.3711,0.0,0.0,0.0,0.0,0.0,0.0,0.0,0.0,0.0,0.0,0.0,0.0,0.0,0.0,-3.367,-3.2748,-3.2806,-3.2753,-3.1975,0.0,0.0,0.0,0.0,0.0,0.0,0.0,0.0,0.0,0.0,0.0,0.0,0.0,0.0,-3.2399,0.0,-3.1068,0.0,0.0,0.0,0.0,0.0,0.0,0.0,0.0,-3.082,-3.0708,-3.0009,-3.0465,-3.0311,0.0,-2.9904,-2.8376,0.0,0.0,0.0,0.0,0.0,0.0,0.0,0.0,-3.2813,-3.4062,-3.8493,-4.1026,-4.1399,-4.3139,-4.3895,-4.3543,-4.379,-4.1942,-3.7686,-3.4812,-3.2334,0.0,0.0,0.0,0.0,0.0,0.0,0.0,0.0,0.0,0.0,0.0,0.0,0.0,0.0,0.0,0.0,0.0,0.0,0.0,0.0,0.0,0.0,0.0,-2.7638,0.0,0.0,0.0,0.0,0.0,0.0,0.0,0.0,0.0,-3.1581,-3.3799,-3.6415,-3.9005,-4.1344,-4.2696,-4.245,0.0,0.0,0.0,0.0,0.0,0.0,0.0,-3.8175,-3.8367,-3.8134,-3.7748,-3.7265,-3.7147,-3.6978,-3.6499,0.0,0.0,-3.578,-3.5724,-3.5606,-3.5066,-3.495,-3.4745,-3.4173,-3.3532,-3.3086,0.0,0.0,0.0,0.0,0.0,0.0,0.0,0.0,-3.2654,-3.2204,0.0,-3.2257,0.0,0.0,0.0,0.0,0.0,-3.2132,0.0,0.0,-3.3377,-3.3208,-3.2333,-3.2318,-3.2048,-3.1576,-3.1588,-3.1247,-3.0683,-3.0096,0.0,0.0,0.0,0.0,0.0,0.0,-3.2954,-3.4626,-3.8431,-4.0633,-4.1101,-4.2756,-4.3765,-4.3981,-4.3251,-4.1656,-3.9227,-3.7776,-3.6308,-3.4568,-3.1486,0.0,0.0,0.0,0.0,0.0,0.0,0.0,0.0,0.0,0.0,0.0,0.0,0.0,0.0,0.0,0.0,0.0,0.0,0.0,0.0,-3.1174,0.0,0.0,0.0,0.0,0.0,0.0,0.0,0.0,0.0,0.0,-3.5036,-3.6991,-3.903,-4.0388,0.0,0.0,0.0,0.0,-4.2714,-4.1206,-4.0238,-3.9743,-3.9789,-3.9929,-3.9868,-3.932,0.0,0.0,-3.7379,-3.7032,-3.6715,-3.5642,-3.6199,-3.6838,-3.7187,-3.7257,-3.7373,-3.7641,-3.7247,-3.7227,-3.7739,-3.7018,-3.6665,-3.8222,0.0,0.0,0.0,0.0,-3.5764,-3.5466,-3.5286,-3.4629,-3.381,-3.2934,-3.2452,0.0,0.0,0.0,0.0,0.0,0.0,-3.2625,-3.3245,-3.3412,-3.3353,-3.3176,-3.327,-3.3212,-3.3065,-3.3417,-3.3486,-3.3311,-3.3482,-3.1711,-2.8261,0.0,0.0,0.0,0.0,-3.4313,-3.585,-3.8733,-4.0309,-4.0475,-4.1826,-4.2654,-4.2895,-4.2031,-4.0967,-3.9716,-3.8439,-3.6597,-3.4227,-3.3328,0.0,0.0,0.0,0.0,0.0,0.0,0.0,0.0,0.0,0.0,0.0,0.0,0.0,0.0,0.0,0.0,0.0,0.0,0.0,-3.2718,-3.2555,-3.2664,0.0,0.0,0.0,0.0,0.0,0.0,0.0,0.0,0.0,-3.8292,-3.8941,-3.9593,0.0,0.0,-4.189,-4.0801,-4.1674,-4.2313,-4.1889,0.0,0.0,0.0,-3.954,-3.8322,-3.8508,-3.7911,-3.7131,-3.6337,-3.6284,-3.6277,-3.6139,-3.6732,-3.7451,-3.7998,-3.8284,-3.8169,-3.7562,-3.7787,-3.7943,-3.7292,-3.7366,-3.7555,-3.7602,-3.7306,-3.6581,-3.6243,-3.607,-3.573,-3.5497,-3.5356,-3.478,-3.3981,-3.3031,-3.2848,-3.2127,-3.0924,-3.1057,0.0,0.0,0.0,-3.3101,-3.3761,-3.3988,-3.4056,-3.3903,-3.3982,-3.3908,-3.3759,-3.414,-3.4502,-3.4754,-3.5016,-3.3631,-3.082,0.0,0.0,-3.1159,-3.3491,-3.5298,-3.6468,-3.8869,-4.0299,-4.0505,-4.1698,-4.2058,-4.148,-4.1233,-4.0562,-3.9389,-3.8542,-3.7387,-3.5812,-3.4794,-3.2919,0.0,0.0,0.0,0.0,0.0,0.0,0.0,0.0,0.0,0.0,0.0,-2.4541,-2.5602,0.0,0.0,0.0,-3.1531,-3.2878,-3.4162,-3.4192,0.0,0.0,0.0,0.0,0.0,0.0,0.0,-3.6802,-3.7672,-3.8607,-3.9726,-4.0022,-4.0492,-4.1403,-4.2183,-4.2326,-4.1375,0.0,-4.2369,-4.1782,-4.1405,-4.1067,-4.0781,-3.9438,-3.8554,-3.9133,-3.8034,-3.7111,-3.6902,-3.6672,-3.6543,-3.6794,-3.7269,-3.7745,-3.8118,-3.8665,-3.8928,-3.8319,-3.8491,-3.8644,-3.8208,-3.843,-3.8424,-3.7142,-3.7035,-3.6538,-3.6273,-3.6084,-3.4954,-3.4478,-3.4347,-3.3809,-3.3242,-3.2836,-3.3202,-3.2635,-3.1312,-3.1751,0.0,-3.2173,-3.3156,-3.3875,-3.4312,-3.4854,-3.4951,-3.4577,-3.4562,-3.4295,-3.3818,-3.4195,-3.4678,-3.5257,-3.5217,-3.4771,-3.3889,-3.3588,-3.3051,-3.2307,-3.429,-3.5785,-3.6627,-3.8702,-4.0166,-4.0891,-4.1931,-4.1699,-4.0007,-4.0695,-4.0233,-3.8517,-3.8255,-3.8162,-3.8146,-3.5762,-3.42,-3.3634,0.0,0.0,0.0,0.0,0.0,0.0,0.0,0.0,0.0,0.0,0.0,0.0,0.0,0.0,-3.1591,-3.3184,0.0,-3.5162,-3.5706,0.0,0.0,0.0,-3.636,-3.6482,-3.6863,-3.7369,-3.8208,0.0,0.0,-3.9868,0.0,-4.1515,-4.3343,-4.4204,-4.416,-4.2718,-4.2828,-4.2675,-4.1302,-4.0437,-3.9851,-3.9882,-3.9661,-3.9671,-4.0065,-3.9526,-3.8544,-3.821,-3.7515,-3.7158,-3.739,-3.7665,-3.7826,-3.7766,-3.8637,-3.9395,-3.946,-3.914,-3.9108,-3.9554,-3.9472,-3.9035,-3.751,-3.699,-3.6426,-3.5942,-3.5434,-3.4756,-3.4426,-3.4349,-3.3791,-3.3541,-3.3357,-3.262,-3.1806,-3.1061,-3.1206,-3.1601,-3.2087,-3.2355,-3.3071,-3.4124,-3.4394,-3.467,-3.5041,-3.52,-3.5111,-3.4837,-3.5003,-3.5093,-3.5153,-3.5194,-3.4685,-3.3744,-3.3877,-3.3547,-3.2777,-3.3748,-3.5074,-3.658,-3.7144,-3.8235,-3.9871,-4.0474,-4.0411,-3.9575,-3.947,-3.89,-3.7837,-3.718,-3.6531,-3.5797,-3.5036,-3.3583,-3.1359,-2.9723,0.0,0.0,0.0,0.0,0.0,0.0,0.0,0.0,0.0,-2.668,-2.7314,0.0,-3.0344,0.0,-3.3393,-3.4814,-3.5502,-3.5514,0.0,0.0,-3.6653,-3.6609,-3.7257,-3.7604,-3.7886,-3.804,-3.8594,-3.937,-4.0246,-4.0912,-4.1778,-4.3155,-4.2511,-4.1629,-4.1056,-4.1792,-4.2279,-4.2011,-4.2105,-4.2167,-4.1435,-4.0415,-3.9393,-3.8733,-3.824,-3.7871,-3.7694,-3.7013,-3.6806,-3.7745,-3.7959,-3.8029,-3.8239,-3.8622,-3.8599,-3.8226,-3.8338,-3.8325,-3.7635,-3.795,-3.818,-3.7764,-3.7351,-3.6763,-3.6332,-3.5992,-3.5168,-3.4646,-3.4384,-3.4084,-3.3727,-3.3333,-3.211,-3.1292,-3.0849,-3.0849,-3.1123,-3.1603,-3.1882,-3.2533,-3.3589,-3.3905,-3.4423,-3.5082,-3.5213,-3.5162,-3.5067,-3.512,-3.5193,-3.5366,-3.5476,-3.5179,-3.4586,-3.4831,-3.4597,-3.3821,-3.3933,-3.4519,-3.5626,-3.6896,-3.8204,-3.9621,-4.0306,-3.9693,-3.7853,-3.7965,-3.73,-3.5712,-3.5127,-3.4628,-3.4094,-3.3599,-3.2711,-3.1158,-2.9778,-2.8439,0.0,0.0,0.0,0.0,0.0,0.0,0.0,0.0,0.0,0.0,0.0,-3.144,-3.2797,-3.4881,-3.626,-3.6451,-3.6762,-3.7211,-3.7882,-3.7487,-3.7323,-3.7838,-3.809,-3.8338,-3.8605,-3.9172,-3.9864,-4.0709,-4.1362,-4.2116,-4.3069,-4.2698,-4.238,-4.2537,-4.2959,-4.3236,-4.3315,-4.2921,-4.2188,-4.113,-3.9918,-3.8893,-3.828,-3.7774,-3.7452,-3.7308,-3.7128,-3.7226,-3.7875,-3.8048,-3.8023,-3.8002,-3.8052,-3.7772,-3.6805,-3.6996,-3.7375,-3.7187,-3.7617,-3.786,-3.7808,-3.7756,-3.7247,-3.6974,-3.683,-3.5761,-3.5018,-3.4549,-3.4536,-3.4048,-3.3088,-3.187,-3.1048,-3.0698,-3.0622,-3.0761,-3.0986,-3.1394,-3.2055,-3.2917,-3.3381,-3.4085,-3.4802,-3.4868,-3.4868,-3.4868,-3.4854,-3.5118,-3.5559,-3.5737,-3.5657,-3.5476,-3.5577,-3.521,-3.442,-3.4062,-3.4083,-3.4455,-3.7046,-3.8773,-3.9418,-4.0044,-3.8821,-3.5687,-3.6226,-3.5498,-3.315,-3.2795,-3.2703,-3.2757,-3.1931,-3.1525,-3.1702,-2.9714,-2.8647,0.0,-2.741,0.0,0.0,0.0,0.0,0.0,0.0,0.0,0.0,-3.1459,-3.3245,-3.4681,-3.6706,-3.7826,-3.7613,-3.8125,-3.8607,-3.8766,-3.8216,-3.7902,-3.8104,-3.8228,-3.8528,-3.9222,-3.9613,-4.0148,-4.0689,-4.1376,-4.198,-4.2631,-4.3143,-4.3705,-4.4691,-4.4471,-4.4231,-4.4399,-4.281,-4.102,-3.9682,-3.8873,-3.8451,-3.8256,-3.7949,-3.7451,-3.723,-3.7426,-3.7723,-3.7932,-3.7934,-3.7753,-3.7392,-3.7356,-3.6767,-3.54,-3.5806,-3.6562,-3.7199,-3.7525,-3.7564,-3.7214,-3.7201,-3.7086,-3.6869,-3.6393,-3.5647,-3.5401,-3.5486,-3.5298,-3.4375,-3.2893,-3.2213,-3.1329,-3.047,-3.0444,-3.0457,-3.052,-3.0583,-3.1259,-3.2273,-3.2704,-3.3479,-3.4467,-3.4802,-3.4802,-3.4765,-3.4883,-3.4883,-3.4883,-3.5001,-3.4618,-3.369,-3.4045,-3.3341,-3.1695,0.0,0.0,0.0,-3.651,-3.7512,-3.7424,-3.68,-3.5763,-3.4296,-3.4151,0.0,-3.2191,-3.1719,-3.1418,-3.1171,-3.0549,0.0,0.0,0.0,0.0,0.0,0.0,0.0,0.0,0.0,0.0,0.0,-3.0692,-3.0836,-3.0764,-3.3031,-3.502,-3.5992,-3.6858,-3.7646,-3.8415,-3.7247,-3.7046,-3.8255,-3.7217,-3.6755,-3.7778,-3.7852,-3.7985,-3.8528,-3.8422,-3.8448,-3.8957,-3.9158,-3.988,-4.1181,-4.1793,-4.2558,-4.374,-4.3697,-4.3331,-4.2693,-4.1257,-3.992,-3.9279,-3.8766,-3.8396,-3.8168,-3.8267,-3.7981,-3.7351,-3.7091,-3.7424,-3.8184,-3.7602,-3.713,-3.7575,-3.7206,-3.6435,-3.5407,-3.546,-3.5695,-3.5868,-3.6033,-3.6056,-3.7108,0.0,-3.7108,-3.6788,0.0,-3.5877,-3.5609,-3.543,-3.484,-3.3717,-3.2332,-3.1945,-3.1194,-3.0241,-3.0264,-3.0378,-3.0481,-3.0498,-3.0931,-3.1704,-3.2226,-3.2722,-3.3311,-3.3756,-3.3742,-3.3451,-3.3742,-3.3894,-3.3908,-3.4196,-3.4113,-3.3673,-3.3753,-3.3499,-3.2968,-3.3893,-3.4611,-3.5031,-3.5639,-3.6367,-3.7175,-3.6456,-3.5446,-3.4051,0.0,0.0,0.0,0.0,0.0,0.0,0.0,0.0,0.0,0.0,0.0,-3.0178,-2.9826,-2.9883,-3.039,-3.0677,-3.114,-3.1845,-3.2617,-3.2925,-3.263,-3.4607,-3.6014,-3.647,-3.7382,-3.809,-3.8213,-3.7188,-3.6827,-3.7563,-3.6522,-3.6001,-3.6767,-3.7063,-3.7184,-3.739,-3.7627,-3.7804,-3.7803,-3.8197,-3.8886,-4.0037,-4.0688,-4.1314,-4.212,-4.2493,-4.2311,-4.1523,-4.061,-3.9724,-3.9364,-3.9027,-3.8707,-3.8566,-3.8354,-3.7951,-3.7277,-3.7495,-3.7947,-3.823,-3.7747,-3.75,-3.7718,-3.6947,-3.5791,-3.5014,-3.487,-3.4787,-3.4531,-3.5075,-3.5456,-3.6922,-3.7002,-3.682,-3.6606,-3.6171,-3.5682,-3.5198,-3.4654,0.0,0.0,0.0,-3.1518,-3.0863,-2.9959,-2.9982,-3.0102,-3.0286,-3.0387,-3.0636,-3.1203,-3.1651,-3.1942,-3.2087,-3.2533,-3.2547,-3.2146,-3.2605,-3.2846,-3.2832,-3.3353,-3.3646,-3.3713,-3.3537,-3.3922,-3.4721,-3.5284,-3.551,-3.5379,-3.4743,-3.5185,-3.6812,-3.6214,-3.5076,-3.3568,-3.3568,-3.2849,-3.1355,-3.1119,-3.097,-3.0657,-3.038,-3.0241,-3.0393,-3.0304,-3.0304,-3.0558,-3.0724,-3.1135,-3.1834,-3.207,-3.2606,-3.3528,-3.4246,-3.463,-3.4607,-3.5807,-3.6618,-3.6735,-3.7767,-3.8282,-3.7929,-3.7146,-3.6832,-3.7079,-3.5948,-3.5314,-3.5872,-3.6151,-3.6349,-3.6364,-3.6796,-3.7049,-3.6701,-3.7177,-3.7985,-3.8831,-3.9459,-4.0189,-4.0719,-4.1382,-4.1519,-4.0857,-4.0403,-4.0005,-3.9622,-3.9189,-3.9029,-3.8755,-3.8402,-3.7948,-3.7546,-3.8123,-3.8607,-3.8178,-3.8023,-3.7878,-3.7753,-3.6483,-3.5146,-3.436,-3.4194,-3.4016,-3.3602,-3.4296,-3.4798,-3.6452,-3.6414,-3.5949,-3.5709,-3.5571,-3.4614,-3.3721,-3.3071,-3.3633,-3.323,-3.2077,-3.1435,-3.0543,-2.9509,-2.9361,-2.9386,-2.953,-2.9526,-2.997,0.0,-3.0786,-3.1198,-3.1796,-3.1942,-3.2015,-3.2087,-3.216,-3.2232,-3.2232,-3.2304,-3.2376,-3.2362,-3.2352,-3.2693,-3.3366,-3.3403,-3.3871,-3.4963,-3.4403,-3.4105,-3.4211,-3.2778,-3.1815,-3.1362,-3.1436,-3.1079,-3.0456,-3.0482,-3.0241,-2.9845,-2.9781,-3.0075,-3.0758,-3.0934,-3.1233,-3.1683,-3.2259,-3.2506,-3.2372,-3.3302,-3.4126,-3.4766,-3.4994,-3.5251,-3.5839,-3.6355,-3.6852,-3.7147,-3.7129,-3.7461,-3.815,-3.6346,-3.5654,-3.6837,-3.5193,-3.4466,-3.597,-3.5525,-3.5385,-3.6111,-3.5664,-3.5246,-3.5211,-3.5399,-3.6043,-3.6989,-3.799,-3.8627,-3.9823,-4.0625,-4.0931,-4.0791,-4.0586,-4.0323,-3.9888,-3.9183,-3.8722,-3.8493,-3.8555,-3.83,-3.7698,-3.8382,-3.8832,-3.841,-3.774,-3.7292,-3.7072,-3.5735,-3.4642,-3.4129,-3.3754,-3.3375,-3.3154,-3.3292,-3.3248,-3.4884,-3.4812,-3.4114,-3.3719,-3.3383,-3.234,-3.1663,-3.1383,-3.1687,-3.1641,-3.1162,-3.0193,-2.9522,-2.908,-2.8826,-2.8919,-2.9333,-2.9383,-2.9602,-2.9945,-3.0221,-3.0355,-3.033,-3.0683,-3.0683,-3.0532,-3.0833,-3.0996,-3.0983,-3.1267,-3.1415,-3.1415,-3.1402,-3.1462,-3.1599,-3.1853,-3.2193,-3.2541,-3.3474,-3.3988,-3.3998,-3.3157,-3.2547,-3.2218,-3.2318,-3.235,-3.2293,-3.2233,-3.207,-3.1681,-3.1859,-3.1795,-3.1543,-3.1378,-3.1472,-3.1707,-3.1655,-3.1889,-3.2606,-3.3684,-3.4288,-3.4384,-3.4314,-3.4468,-3.4895,-3.571,-3.6284,-3.6601,-3.6634,-3.6668,-3.6826,-3.5628,-3.4947,-3.5319,-3.4143,-3.3788,-3.4456,-3.4376,-3.4262,-3.4636,-3.4416,-3.4123,-3.3974,-3.4529,-3.5118,-3.5949,-3.7041,-3.8345,-3.932,-4.0038,-4.0539,-4.0691,-4.0688,-4.0334,-3.9716,-3.9249,-3.8883,-3.8719,-3.8143,-3.789,-3.7786,-3.8233,-3.8069,-3.7783,-3.7089,-3.6523,-3.6336,-3.4949,-3.3825,-3.3104,-3.2851,-3.25,-3.2049,-3.1559,-3.1194,-3.3499,-3.3453,-3.2748,-3.2087,-3.135,-3.0387,-3.0,-2.9988,-2.9521,-2.9489,-2.9639,-2.8946,-2.8568,-2.8444,-2.8266,-2.8374,-2.8857,-2.9142,-2.919,-2.9148,-2.956,-2.9499,-2.8998,-2.9316,-2.9225,-2.904,-2.9341,-2.9574,-2.9806,-3.0228,-3.0532,-3.0519,-3.0594,-3.0436,-3.0168,-3.0808,-3.0969,-3.0718,-3.2286,-3.3395,-3.3754,-3.3548,-3.3283,-3.3199,-3.3283,-3.3451,-3.3514,-3.3496,-3.3301,-3.2974,-3.3188,-3.2841,-3.2006,-3.1461,-3.134,-3.141,-3.0854,-3.1185,-3.2586,-3.3444,-3.3784,-3.3445,-3.336,-3.3445,-3.3784,-3.4524,-3.5304,-3.5831,-3.6138,-3.605,-3.5549,-3.4989,-3.4394,-3.3771,-3.3392,-3.3255,-3.3395,-3.3389,-3.3331,-3.3359,-3.3465,-3.3417,-3.3307,-3.3901,-3.4704,-3.547,-3.6867,-3.8131,-3.8782,-3.9461,-4.0063,-4.0354,-4.0506,-4.0213,-3.9334,-3.8816,-3.8595,-3.8474,-3.762,-3.7321,-3.7589,-3.7539,-3.7381,-3.7263,-3.6718,-3.6111,-3.5605,-3.4345,-3.3048,-3.2272,-3.1867,-3.1467,-3.0813,-3.0132,-2.9466,-3.3201,-3.312,-3.2551,-3.1773,-3.0728,-2.9558,-2.9179,-2.9165,-2.76,-2.721,-2.791,-2.8385,-2.8184,-2.7651,-2.7583,-2.7595,-2.7708,-2.831,-2.8575,-2.8527,-2.8662,-2.8626,-2.8419,-2.7822,-2.7903,-2.8554,-2.8291,-2.8371,-2.904,-2.9197,-2.9263,-2.9275,-2.9626,-2.9807,-2.9986,-3.0556,-3.0869,-3.0878,-3.0869,-3.1341,-3.2218,-3.2074,-3.2245,-3.2761,-3.2775,-3.2691,-3.2471,-3.2243,-3.2109,-3.2027,-3.1741,-3.1511,-3.1572,-3.0956,-3.0678,-3.0902,-3.0914,-3.136,-3.2265,-3.2451,-3.2476,-3.2401,-3.2389,-3.2488,-3.2747,-3.292,-3.3687,-3.4964,-3.5629,-3.5491,-3.5223,-3.4594,-3.4026,-3.3555,-3.3076,-3.2974,-3.3463,-3.3307,-3.3086,-3.325,-3.3051,-3.2924,-3.2496,-3.3055,-3.4053,-3.5261,-3.6383,-3.7381,-3.8022,-3.8854,-3.9444,-3.965,-3.9704,-3.9618,-3.9258,-3.8085,-3.7458,-3.7239,-3.6999,-3.6889,-3.7102,-3.7617,-3.7994,-3.6585,-3.6679,-3.6016,-3.4782,-3.3755,-3.2761,-3.1754,-3.1183,-3.0723,-3.0214,-2.957,-2.8854,-3.1187,-3.103,-3.0376,-2.953,-2.8614,-2.8088,-2.7838,-2.761,-2.686,-2.6678,-2.6935,-2.7097,-2.6975,-2.6725,-2.6433,-2.6543,-2.7092,-2.6987,-2.7162,-2.7418,-2.7069,-2.6917,-2.6835,-2.6577,-2.6659,-2.6976,-2.673,-2.6812,-2.7069,-2.7151,-2.7151,-2.7221,-2.7695,-2.8004,-2.8164,-2.8755,-2.9094,-2.9081,-2.9015,-2.9543,-3.0457,-3.0825,-3.1039,-3.1339,-3.1441,-3.1563,-3.1731,-3.1944,-3.2021,-3.1851,-3.1997,-3.1672,-3.0943,-3.0615,-3.0398,-3.0319,-3.0529,-3.0882,-3.1223,-3.1589,-3.1677,-3.1247,-3.1247,-3.1335,-3.1601,-3.1777,-3.2376,-3.3551,-3.3796,-3.387,-3.3963,-3.3436,-3.2845,-3.2482,-3.235,-3.2489,-3.2775,-3.2444,-3.2157,-3.2256,-3.197,-3.1767,-3.1672,-3.2376,-3.3585,-3.4905,-3.5848,-3.6406,-3.7218,-3.8068,-3.834,-3.8053,-3.7828,-3.8007,-3.828,-3.7537,-3.677,-3.6617,-3.6279,-3.6008,-3.6535,-3.64,-3.6209,-3.5445,-3.5137,-3.4477,-3.2996,-3.2072,-3.1172,-3.0799,-3.0794,-3.0405,-3.0055,-2.9383,-2.8368,-2.9669,-2.9377,-2.8773,-2.8035,-2.7222,-2.7003,-2.6693,-2.6227,-2.611,-2.611,-2.6004,-2.581,-2.5769,-2.5706,-2.5585,-2.5796,-2.6122,-2.5874,-2.583,-2.6163,-2.5735,-2.5568,-2.5484,-2.5231,-2.5316,-2.5484,-2.5316,-2.54,-2.5568,-2.5568,-2.5568,-2.5735,-2.6152,-2.64,-2.6565,-2.7196,-2.7534,-2.7557,-2.7662,-2.8316,-2.9082,-2.9536,-2.9915,-3.0378,-3.0549,-3.0733,-3.0971,-3.1376,-3.1577,-3.1393,-3.1671,-3.1356,-3.0396,-3.0144,-2.9873,-2.9625,-2.9954,-3.0181,-3.0181,-3.0711,-3.08,-3.0272,-3.0181,-3.0272,-3.0453,-3.0621,-3.1146,-3.1916,-3.181,-3.188,-3.2606,-3.2241,-3.1731,-3.1179,-3.132,-3.1529,-3.1603,-3.142,-3.1305,-3.1165,-3.1138,-3.0945,-3.1057,-3.1804,-3.2961,-3.3924,-3.4748,-3.5408,-3.6225,-3.687,-3.7145,-3.662,-3.6193,-3.6211,-3.6834,-3.6257,-3.5898,-3.5814,-3.5358,-3.5304,-3.5844,-3.5362,-3.5036,-3.487,-3.3676,-3.2818,-3.2363,-3.1283,-3.0333,-3.0342,-3.0315,-3.0176,-2.9943,-2.9153,-2.7773,-2.9132,-2.9071,-2.8659,-2.8104,-2.7643,-2.6714,-2.6103,-2.5499,-2.5118,-2.4932,-2.4922,-2.4932,-2.4792,-2.4555,-2.5155,-2.5237,-2.5011,-2.5285,-2.5094,-2.4744,-2.4988,-2.4988,-2.4488,-2.3897,-2.4049,-2.4628,-2.4221,-2.4296,-2.4957,-2.4872,-2.5052,-2.5411,-2.5316,-2.54,-2.5819,-2.6268,-2.6528,-2.6617,-2.7099,-2.781,-2.835,-2.8223,-2.8818,-3.0047,-3.0348,-3.0269,-3.0133,-3.031,-3.0449,-3.0328,-3.0,-2.9738,-2.9795,-2.9195,-2.8802,-2.8869,-2.9239,-2.9474,-2.9474,-2.9474,-2.9463,-2.9474,-2.9393,-2.9474,-2.9463,-2.9474,-2.9818,-3.0531,-2.9869,-2.9886,-3.0943,-3.1104,-3.0826,-3.006,-2.9871,-2.9999,-3.0406,-3.0706,-3.0639,-3.0304,-3.0526,-3.06,-3.0459,-3.1304,-3.1845,-3.2447,-3.3316,-3.4284,-3.4885,-3.5443,-3.5682,-3.551,-3.5012,-3.461,-3.487,-3.4735,-3.4383,-3.4414,-3.4574,-3.4536,-3.4716,-3.4794,-3.4642,-3.4377,-3.3577,-3.2819,-3.2183,-3.1478,-3.0748,-3.0406,-3.0055,-2.9862,-2.9763,-2.8576,-2.7157,-2.8057,-2.7131,-2.6842,-2.6095,-2.5045,-2.4543,-2.4052,-2.3601,-2.3502,-2.371,-2.4035,-2.4134,-2.4347,-2.4695,-2.4564,-2.4443,-2.4326,-2.4018,-2.3887,-2.3831,-2.3541,-2.329,-2.3125,-2.2872,-2.294,-2.3193,-2.3028,-2.3028,-2.327,-2.328,-2.3357,-2.3541,-2.3973,-2.4221,-2.4382,-2.4904,-2.5307,-2.5562,-2.5605,-2.6379,-2.7677,-2.7096,-2.7282,-2.8555,-2.9034,-2.9225,-2.916,-2.9576,-2.984,-2.976,-2.9577,-2.9497,-2.9301,-2.8479,-2.8196,-2.8598,-2.7974,-2.7694,-2.7977,-2.7694,-2.7589,-2.7589,-2.7882,-2.7977,-2.7872,-2.806,-2.833,-2.8276,-2.8107,-2.8109,-2.821,-2.8955,-2.9528,-2.9567,-2.9108,-2.8978,-2.9549,-2.9756,-2.9479,-2.8936,-2.8858,-2.8861,-2.9232,-2.9832,-3.0616,-3.1215,-3.1906,-3.26,-3.3351,-3.3974,-3.4121,-3.3428,-3.3195,-3.2883,-3.1795,-3.2831,-3.3304,-3.3442,-3.3568,-3.3676,-3.3806,-3.3951,-3.3877,-3.2939,-3.2499,-3.1972,-3.1003,-3.0603,-3.0121,-3.0259,-2.9901,-2.9726,-2.9573,-2.8129,-2.6531,-2.6518,-2.5682,-2.5317,-2.4491,-2.358,-2.3107,-2.263,-2.2299,-2.219,-2.24,-2.282,-2.3029,-2.332,-2.3583,-2.3359,-2.3162,-2.2862,-2.2805,-2.2796,-2.279,-2.2321,-2.1998,-2.1989,-2.198,-2.1989,-2.198,-2.1989,-2.1989,-2.1989,-2.1989,-2.1998,-2.2087,-2.2608,-2.2862,-2.3047,-2.368,-2.4183,-2.4374,-2.4513,-2.5368,-2.6453,-2.6173,-2.6194,-2.6909,-2.7487,-2.778,-2.7844,-2.837,-2.8631,-2.8538,-2.8538,-2.8445,-2.8175,-2.7494,-2.74,-2.7694,-2.6924,-2.6446,-2.6733,-2.6542,-2.635,-2.635,-2.6552,-2.6638,-2.6542,-2.6819,-2.6914,-2.6904,-2.6798,-2.6656,-2.6651,-2.7071,-2.7561,-2.7934,-2.7497,-2.736,-2.7844,-2.8096,-2.8065,-2.7878,-2.7634,-2.7501,-2.7657,-2.8414,-2.915,-2.9911,-3.0393,-3.1142,-3.181,-3.2245,-3.2369,-3.1552,-3.1662,-3.1253,-3.0664,-3.1133,-3.2003,-3.2269,-3.2594,-3.2715,-3.2875,-3.3046,-3.2712,-3.1692,-3.0925,-3.0436,-2.9984,-2.9584,-2.9668,-2.9941,-2.9874,-2.9706,-2.8801,-2.751,-2.5773,-2.4727,-2.4565,-2.4216,-2.3742,-2.3157,-2.2586,-2.2125,-2.1514,-2.1277,-2.1089,-2.1191,-2.1709,-2.1709,-2.1387,-2.1862,-2.1461,-2.0933,-2.1604,-2.1821,-2.1511,-2.14,-2.114,-2.0898,-2.0898,-2.0907,-2.0907,-2.0988,-2.0997,-2.0988,-2.0997,-2.1186,-2.1383,-2.1482,-2.1642,-2.1731,-2.2603,-2.3019,-2.329,-2.4063,-2.4808,-2.4974,-2.5293,-2.5555,-2.5692,-2.5789,-2.5909,-2.6123,-2.6605,-2.6829,-2.6648,-2.6648,-2.6552,-2.6638,-2.6244,-2.6157,-2.6254,-2.6051,-2.6051,-2.6051,-2.5954,-2.5858,-2.5858,-2.5751,-2.5664,-2.5557,-2.5654,-2.5761,-2.5858,-2.5954,-2.6021,-2.6094,-2.5468,-2.5257,-2.5114,-2.5219,-2.4988,-2.521,-2.587,-2.6645,-2.692,-2.6724,-2.6698,-2.6609,-2.7005,-2.7657,-2.8128,-2.8898,-2.9695,-3.0125,-3.0409,-3.0499,-3.0453,-3.0205,-2.9695,-2.959,-2.9653,-3.0393,-3.1057,-3.1416,-3.1705,-3.1969,-3.2137,-3.1721,-3.0823,-3.0232,-2.9707,-2.9452,-2.9196,-2.9578,-2.9781,-2.9705,-2.9464,-2.8384,-2.7043,-2.4927,-2.3407,-2.2806,-2.2252,-2.158,-2.0924,-2.0278,-1.9851,-1.9457,-1.9339,-1.9554,-2.0086,-2.0292,-2.0593,-2.0783,-2.0767,-2.0389,-2.0147,-2.0011,-1.9862,-1.9935,-1.9959,-1.9761,-1.9563,-1.953,-1.9521,-1.953,-1.9438,-1.9803,-2.0167,-2.0249,-2.0538,-2.0997,-2.1096,-2.1186,-2.1221,-2.1762,-2.217,-2.246,-2.2781,-2.3441,-2.4397,-2.4331,-2.4406,-2.4846,-2.4698,-2.4534,-2.4342,-2.5402,-2.5954,-2.5945,-2.5954,-2.5954,-2.5858,-2.5373,-2.5178,-2.5373,-2.4707,-2.4412,-2.4609,-2.4421,-2.4313,-2.4322,-2.4412,-2.4412,-2.4214,-2.4402,-2.4402,-2.4313,-2.4223,-2.4322,-2.4085,-2.3084,-2.3224,-2.5108,-2.4604,-2.4059,-2.4361,-2.4546,-2.4474,-2.4454,-2.437,-2.4328,-2.4513,-2.5133,-2.575,-2.6258,-2.7085,-2.7788,-2.7931,-2.8447,-2.8671,-2.8714,-2.8455,-2.8233,-2.8139,-2.8051,-2.834,-2.9223,-2.9845,-3.0456,-3.0801,-3.0991,-3.0571,-3.0105,-2.9501,-2.9106,-2.8862,-2.903,-2.9436,-2.9608,-2.9549,-2.8967,-2.8147,-2.6449,-2.4286,-2.1964,-2.1373,-2.0955,-2.046,-1.9818,-1.9301,-1.877,-1.828,-1.8149,-1.8318,-1.8624,-1.8938,-1.9131,-1.9324,-1.9213,-1.9109,-1.8776,-1.8184,-1.8037,-1.8228,-1.851,-1.8509,-1.8403,-1.8272,-1.8334,-1.8326,-1.8319,-1.8503,-1.9072,-1.9055,-1.9338,-1.9894,-2.0076,-2.0261,-2.068,-2.1052,-2.1441,-2.1777,-2.1968,-2.2449,-2.3161,-2.3072,-2.3054,-2.3367,-2.332,-2.3029,-2.2837,-2.3701,-2.4384,-2.4786,-2.4884,-2.4894,-2.4786,-2.4304,-2.4115,-2.4223,-2.3836,-2.3447,-2.3637,-2.3438,-2.3147,-2.3147,-2.3238,-2.3029,-2.2636,-2.2828,-2.2736,-2.2426,-2.2325,-2.2325,-2.2231,-2.1584,-2.1726,-2.3028,-2.2678,-2.2775,-2.3221,-2.31,-2.3092,-2.3084,-2.3026,-2.2861,-2.3015,-2.3243,-2.3918,-2.4482,-2.5298,-2.5938,-2.6177,-2.6629,-2.6881,-2.6867,-2.6636,-2.6579,-2.6685,-2.6525,-2.6361,-2.7184,-2.8151,-2.8837,-2.9371,-2.9655,-2.9551,-2.9136,-2.8603,-2.8364,-2.8148,-2.8851,-2.9289,-2.9346,-2.9419,-2.8848,-2.7979,-2.571,-2.3418,-2.027,-2.0277,-2.0155,-1.9946,-1.9654,-1.9375,-1.8735,-1.7983,-1.7643,-1.7298,-1.7054,-1.7674,-1.7569,-1.7153,-1.7667,-1.7562,-1.6829,-1.6704,-1.6558,-1.6619,-1.7025,-1.7391,-1.7491,-1.7282,-1.7363,-1.7384,-1.7312,-1.7369,-1.7692,-1.7542,-1.7598,-1.8427,-1.8574,-1.8893,-1.9674,-2.0375,-2.0639,-2.0925,-2.1285,-2.1464,-2.1607,-2.1591,-2.1591,-2.1709,-2.1607,-2.1615,-2.1717,-2.1709,-2.2215,-2.3138,-2.3338,-2.3238,-2.3238,-2.3046,-2.2837,-2.2937,-2.2946,-2.2745,-2.2846,-2.2526,-2.2426,-2.2114,-2.1912,-2.1615,-2.1011,-2.0909,-2.0901,-2.0688,-2.0577,-2.0577,-2.0719,-2.0318,-2.0055,-1.9757,-2.0087,-2.0637,-2.1695,-2.1462,-2.1558,-2.2233,-2.2271,-2.1917,-2.1837,-2.1876,-2.2188,-2.2733,-2.3627,-2.4195,-2.4411,-2.4673,-2.5133,-2.5139,-2.4954,-2.5,-2.5084,-2.513,-2.4912,-2.4872,-2.5973,-2.6937,-2.7743,-2.8139,-2.8275,-2.7904,-2.769,-2.7486,-2.7791,-2.8433,-2.9119,-2.9474,-2.9304,-2.887,-2.7229,-2.4861,-2.207,-1.9584,-1.9584,-1.9113,-1.8827,-1.8684,-1.8479,-1.7942,-1.7412,-1.7315,-1.7041,-1.6787,-1.6942,-1.6955,-1.673,-1.6749,-1.653,-1.6211,-1.5897,-1.5666,-1.5423,-1.5341,-1.5866,-1.6214,-1.6302,-1.6235,-1.6192,-1.6208,-1.633,-1.6609,-1.6703,-1.7063,-1.7591,-1.7749,-1.7978,-1.8414,-1.8935,-1.9245,-1.9388,-1.9683,-1.9849,-1.9849,-1.9857,-2.0166,-2.0688,-2.0269,-2.0269,-2.0688,-2.0166,-2.0577,-2.1928,-2.1725,-2.1725,-2.2021,-2.1725,-2.1623,-2.1818,-2.1623,-2.1428,-2.1318,-2.0885,-2.0562,-2.0357,-2.0261,-1.9849,-1.965,-1.965,-1.965,-1.9546,-1.9546,-1.9539,-1.9487,-1.8833,-1.8117,-1.7678,-1.8331,-1.9171,-1.9604,-1.9588,-1.9726,-2.0158,-1.9859,-1.9967,-2.0361,-2.0416,-2.043,-2.1115,-2.1704,-2.2211,-2.2424,-2.2648,-2.308,-2.3313,-2.3313,-2.3419,-2.3472,-2.3575,-2.3368,-2.2907,-2.369,-2.4955,-2.5726,-2.643,-2.6442,-2.6243,-2.626,-2.6132,-2.7078,-2.7933,-2.8639,-2.937,-2.9104,-2.8488,-2.6136,-2.3708,-2.0581,-1.7695,-1.7701,-1.7349,-1.7259,-1.7225,-1.7352,-1.7132,-1.6721,-1.682,-1.672,-1.6519,-1.6414,-1.627,-1.6156,-1.5953,-1.5779,-1.5476,-1.5363,-1.5148,-1.5024,-1.4881,-1.5029,-1.5173,-1.5184,-1.5212,-1.5307,-1.5331,-1.5613,-1.5882,-1.5868,-1.6124,-1.6538,-1.6821,-1.7155,-1.7725,-1.7909,-1.8323,-1.8547,-1.8733,-1.8708,-1.8826,-1.8826,-1.9138,-1.945,-1.9131,-1.9131,-1.945,-1.9138,-1.9443,-2.0372,-2.038,-2.038,-2.0577,-2.038,-2.038,-2.068,-2.038,-2.0181,-2.0071,-1.965,-1.9435,-1.9332,-1.9124,-1.8819,-1.861,-1.8506,-1.8506,-1.8192,-1.8192,-1.8185,-1.8032,-1.7405,-1.6826,-1.6526,-1.7042,-1.7646,-1.8064,-1.7948,-1.8057,-1.8249,-1.8137,-1.8108,-1.8961,-1.874,-1.8869,-1.9432,-2.0032,-2.0333,-2.0488,-2.071,-2.0968,-2.1347,-2.1438,-2.1424,-2.1355,-2.1375,-2.1438,-2.106,-2.1401,-2.266,-2.3695,-2.4556,-2.4785,-2.4732,-2.4787,-2.5078,-2.5949,-2.7028,-2.8256,-2.8698,-2.8598,-2.76,-2.5399,-2.3087,-1.9818,-1.5575,-1.5451,-1.5451,-1.5451,-1.5526,-1.6053,-1.6051,-1.604,-1.6263,-1.6156,-1.5887,-1.576,-1.5336,-1.511,-1.4988,-1.4872,-1.4661,-1.4461,-1.452,-1.4401,-1.4443,-1.4473,-1.4166,-1.455,-1.471,-1.4969,-1.4861,-1.5029,-1.5154,-1.488,-1.5005,-1.5544,-1.5676,-1.6158,-1.6695,-1.7148,-1.7536,-1.7705,-1.7542,-1.7562,-1.7674,-1.7779,-1.7884,-1.8101,-1.8094,-1.7891,-1.7996,-1.7884,-1.8199,-1.8708,-1.8923,-1.9131,-1.9124,-1.902,-1.9013,-1.9013,-1.902,-1.8916,-1.8916,-1.8708,-1.8596,-1.829,-1.8192,-1.8192,-1.7463,-1.7252,-1.7041,-1.6624,-1.6518,-1.6617,-1.6586,-1.6273,-1.599,-1.5683,-1.5531,-1.5932,-1.6455,-1.6372,-1.6466,-1.7353,-1.6733,-1.6795,-1.7054,-1.713,-1.6984,-1.7488,-1.8017,-1.8196,-1.8356,-1.8664,-1.9021,-1.9503,-1.9507,-1.925,-1.9243,-1.9132,-1.9185,-1.9166,-1.9435,-2.0344,-2.1571,-2.2375,-2.2951,-2.3242,-2.3181,-2.3533,-2.4296,-2.5631,-2.6943,-2.7884,-2.7688,-2.6621,-2.512,-2.278,-1.9878,-1.509,-1.4847,-1.4495,-1.4262,-1.4133,-1.4326,-1.4565,-1.4977,-1.5106,-1.4972,-1.4778,-1.459,-1.422,-1.3537,-1.3527,-1.3194,-1.2899,-1.287,-1.2592,-1.2441,-1.3093,-1.328,-1.3367,-1.4087,-1.4639,-1.478,-1.4901,-1.4763,-1.4636,-1.4591,-1.4585,-1.4537,-1.4924,-1.5029,-1.5315,-1.5722,-1.5606,-1.5779,-1.5791,-1.5809,-1.5934,-1.6022,-1.6223,-1.6749,-1.6849,-1.6411,-1.5885,-1.5672,-1.5779,-1.6199,-1.7147,-1.7982,-1.7982,-1.7765,-1.766,-1.7759,-1.766,-1.745,-1.7246,-1.6929,-1.6511,-1.6399,-1.6299,-1.5779,-1.5672,-1.5565,-1.5565,-1.5357,-1.5357,-1.5458,-1.5441,-1.5129,-1.5006,-1.4855,-1.4601,-1.4433,-1.4461,-1.4975,-1.5629,-1.6108,-1.604,-1.5986,-1.6448,-1.6189,-1.601,-1.5869,-1.589,-1.5978,-1.6296,-1.6636,-1.7008,-1.7536,-1.7652,-1.7422,-1.7258,-1.7111,-1.6991,-1.695,-1.7213,-1.7408,-1.8664,-1.9754,-2.0158,-2.0847,-2.1498,-2.1994,-2.2381,-2.3102,-2.4197,-2.542,-2.6576,-2.5613,-2.4257,-2.2118,-1.9688,-1.2942,-1.2817,-1.2582,-1.2466,-1.2466,-1.2826,-1.3246,-1.3613,-1.3859,-1.3936,-1.3781,-1.3707,-1.3183,-1.249,-1.2365,-1.2148,-1.175,-1.153,-1.1402,-1.1375,-1.1664,-1.1882,-1.1882,-1.2748,-1.3327,-1.4221,-1.4421,-1.4311,-1.4423,-1.4317,-1.4356,-1.4223,-1.4462,-1.4714,-1.4798,-1.4939,-1.5178,-1.5361,-1.5057,-1.5051,-1.5257,-1.5264,-1.5315,-1.5742,-1.5839,-1.5593,-1.516,-1.5035,-1.5035,-1.525,-1.5891,-1.6418,-1.6518,-1.6299,-1.6299,-1.6299,-1.6193,-1.6092,-1.5885,-1.5672,-1.5464,-1.5244,-1.5035,-1.5035,-1.4821,-1.4708,-1.4385,-1.4385,-1.4385,-1.4493,-1.4922,-1.4955,-1.4727,-1.4516,-1.4344,-1.4116,-1.3895,-1.4098,-1.4496,-1.4816,-1.4603,-1.4772,-1.4896,-1.496,-1.4943,-1.4794,-1.4734,-1.4816,-1.4719,-1.4975,-1.4946,-1.5255,-1.5629,-1.5612,-1.541,-1.5118,-1.4817,-1.472,-1.4648,-1.4678,-1.5063,-1.6156,-1.7113,-1.8004,-1.9045,-1.9662,-2.0109,-2.0803,-2.1684,-2.3536,-2.4444,-2.4226,-2.3478,-2.1749,-1.9171,-1.0789,-1.0668,-1.0668,-1.0664,-1.0789,-1.1514,-1.1872,-1.2084,-1.2662,-1.279,-1.2769,-1.2526,-1.1871,-1.1516,-1.1402,-1.1059,-1.0651,-1.0451,-1.0189,-1.0212,-1.0472,-1.057,-1.0672,-1.0996,-1.1864,-1.384,-1.3408,-1.3372,-1.3588,-1.3835,-1.3455,-1.3712,-1.4099,-1.4184,-1.4592,-1.47,-1.4654,-1.4879,-1.467,-1.4654,-1.4896,-1.4882,-1.4917,-1.4911,-1.49,-1.4834,-1.4609,-1.456,-1.4728,-1.4553,-1.4661,-1.4661,-1.4542,-1.4939,-1.4821,-1.4928,-1.4928,-1.4922,-1.4821,-1.4708,-1.46,-1.4606,-1.439,-1.4385,-1.4056,-1.3614,-1.3181,-1.3181,-1.3181,-1.3398,-1.4379,-1.425,-1.4248,-1.4289,-1.4339,-1.4132,-1.3763,-1.345,-1.3436,-1.3511,-1.3576,-1.3714,-1.3704,-1.3738,-1.3754,-1.3767,-1.3649,-1.3542,-1.3425,-1.3374,-1.3381,-1.347,-1.3857,-1.3897,-1.3642,-1.3182,-1.2879,-1.2628,-1.2352,-1.2191,-1.2091,-1.2721,-1.3918,-1.5453,-1.6471,-1.6937,-1.7236,-1.747,-1.8917,-2.1321,-2.2167,-2.1808,-2.148,-2.1185,-1.8693,-1.0668,-1.0425,-1.0425,-1.0183,-1.0061,-1.0183,-1.0547,-1.1027,-1.123,-1.0997,-1.077,-1.0755,-1.0251,-0.9654,-0.9421,-0.9216,-0.9153,-0.8964,-0.8707,-0.8868,-0.9241,-0.9511,-0.9521,-0.9747,-1.0602,-1.1109,-1.1249,-1.1266,-1.1546,-1.1324,-1.1887,-1.2351,-1.2587,-1.3044,-1.3486,-1.3468,-1.3373,-1.3575,-1.3512,-1.3512,-1.3541,-1.3526,-1.3586,-1.3468,-1.3458,-1.3414,-1.3507,-1.3723,-1.3551,-1.2594,-1.3352,-1.313,-1.2981,-1.3744,-1.4099,-1.3986,-1.3986,-1.3883,-1.3527,-1.3408,-1.3078,-1.2871,-1.2545,-1.2209,-1.1982,-1.1651,-1.1542,-1.1437,-1.1437,-1.1651,-1.2417,-1.2635,-1.2866,-1.3047,-1.3293,-1.3189,-1.2818,-1.2597,-1.2464,-1.2483,-1.2598,-1.272,-1.2736,-1.2653,-1.2545,-1.249,-1.2275,-1.2049,-1.1826,-1.1842,-1.1844,-1.2017,-1.2273,-1.217,-1.1993,-1.1335,-1.091,-1.0665,-1.0436,-1.0193,-0.9983,-0.9851,-1.0728,-1.2058,-1.3197,-1.3861,-1.4109,-1.4236,-1.5259,-1.7086,-1.8175,-1.9155,-1.9374,-1.929,-1.864,-0.9704,-0.9582,-0.9579,-0.946,-0.9339,-0.9339,-0.9457,-0.9822,-0.9825,-0.97,-0.9579,-0.9579,-0.922,-0.8735,-0.8613,-0.8418,-0.8161,-0.7828,-0.7608,-0.7778,-0.7823,-0.8019,-0.8124,-0.8464,-0.8697,-0.8927,-0.9037,-0.9604,-1.0359,-1.0453,-1.0733,-1.104,-1.1359,-1.1816,-1.2342,-1.2236,-1.2216,-1.2255,-1.2225,-1.2216,-1.229,-1.2299,-1.2385,-1.2423,-1.2271,-1.2112,-1.202,-1.2122,-1.2078,-1.1637,-1.1889,-1.179,-1.1785,-1.2051,-1.2583,-1.2482,-1.2468,-1.2412,-1.2014,-1.1769,-1.166,-1.1551,-1.1227,-1.1118,-1.0785,-1.0562,-1.0123,-1.0017,-1.0017,-1.0343,-1.1219,-1.121,-1.1711,-1.2304,-1.2369,-1.211,-1.1789,-1.1429,-1.1203,-1.1264,-1.1663,-1.1905,-1.2047,-1.1798,-1.1551,-1.1261,-1.0859,-1.0539,-1.0274,-1.0258,-1.0386,-1.006,-1.0114,-0.9853,-0.9695,-0.9519,-0.8904,-0.8658,-0.838,-0.8174,-0.7765,-0.7455,-0.7509,-0.8221,-0.9319,-1.0562,-1.0951,-1.1093,-1.2004,-1.2771,-1.3791,-1.4981,-1.6758,-1.7326,-1.6083,-0.867,-0.8646,-0.8894,-0.8882,-0.8857,-0.8857,-0.8854,-0.8732,-0.8732,-0.8729,-0.861,-0.8488,-0.8369,-0.8125,-0.7991,-0.7826,-0.7493,-0.723,-0.7035,-0.6977,-0.6808,-0.6689,-0.6815,-0.6937,-0.7145,-0.7583,-0.7478,-0.8102,-0.9202,-0.9493,-0.976,-1.0077,-1.0341,-1.0708,-1.1172,-1.1138,-1.126,-1.1168,-1.114,-1.1137,-1.1222,-1.1366,-1.1319,-1.143,-1.1173,-1.0992,-1.0903,-1.1125,-1.0852,-1.0667,-1.0704,-1.0665,-1.0509,-1.0437,-1.0466,-1.0658,-1.063,-1.0624,-1.0504,-1.0343,-1.0343,-1.0347,-1.0233,-1.0123,-0.9688,-0.903,-0.8702,-0.8813,-0.8699,-0.8999,-0.9621,-0.9953,-1.0381,-1.0916,-1.1004,-1.0966,-1.0555,-1.0176,-0.9606,-0.9936,-1.0587,-1.0779,-1.0728,-1.1182,-1.0847,-1.0274,-0.989,-0.9349,-0.9065,-0.8828,-0.8708,-0.7978,-0.7711,-0.7325,-0.7275,-0.7586,-0.7058,-0.6613,-0.6424,-0.6152,-0.5544,-0.4876,-0.5121,-0.5419,-0.6008,-0.7163,-0.7522,-0.7866,-0.8281,-0.8853,-0.9599,-1.0879,-1.2637,-1.2593,-1.1338,-0.7615,-0.7648,-0.8528,-0.8964,-0.8741,-0.8732,-0.861,-0.8247,-0.7994,-0.7872,-0.7383,-0.7263,-0.7021,-0.7141,-0.7013,-0.7008,-0.6974,-0.6885,-0.6724,-0.6708,-0.6521,-0.6485,-0.6593,-0.6579,-0.6617,-0.6862,-0.673,-0.7041,-0.7809,-0.8037,-0.8268,-0.8887,-0.9212,-0.9683,-1.0083,-0.9947,-1.0041,-1.0054,-0.9916,-0.9916,-0.9933,-0.9937,-0.9919,-1.0027,-0.9895,-0.9878,-0.983,-1.0056,-1.0028,-0.9097,-0.9894,-0.9891,-0.9206,-0.9084,-0.888,-0.9,-0.9443,-1.0308,-0.9835,-0.9357,-0.9027,-0.892,-0.8699,-0.8149,-0.7928,-0.7487,-0.7049,-0.6717,-0.6826,-0.7232,-0.7929,-0.7985,-0.8406,-0.8858,-0.9211,-0.9131,-0.9057,-0.8628,-0.8086,-0.7945,-0.8392,-0.8935,-0.9091,-0.9763,-1.0214,-0.9544,-0.8879,-0.8371,-0.7803,-0.7489,-0.7205,-0.6621,-0.5937,-0.5563,-0.5434,-0.5604,-0.5268,-0.4753,-0.4561,-0.4311,-0.3545,-0.3034,-0.2754,-0.3138,-0.3544,-0.3617,-0.3911,-0.4162,-0.4384,-0.4649,-0.5003,-0.6606,-0.8534,-0.7786,-0.6519,-0.5115,-0.5714,-0.6211,-0.6434,-0.6274,-0.6147,-0.6025,-0.5904,-0.5655,-0.5535,-0.5414,-0.5291,-0.5538,-0.5902,-0.5985,-0.6354,-0.6729,-0.6499,-0.6372,-0.6308,-0.6248,-0.6224,-0.6393,-0.6517,-0.6517,-0.6626,-0.6762,-0.6897,-0.7093,-0.7,-0.7186,-0.7619,-0.7906,-0.8085,-0.8729,-0.8572,-0.8355,-0.8238,-0.8113,-0.8238,-0.836,-0.8238,-0.8238,-0.8482,-0.8238,-0.8116,-0.8238,-0.836,-0.834,-0.7664,-0.8219,-0.8205,-0.7755,-0.7608,-0.752,-0.7407,-0.7812,-0.8139,-0.8187,-0.7937,-0.7817,-0.7595,-0.7268,-0.6937,-0.6717,-0.6495,-0.6274,-0.6274,-0.6274,-0.6463,-0.6644,-0.6636,-0.707,-0.7391,-0.7577,-0.7411,-0.7291,-0.6976,-0.6631,-0.6413,-0.6305,-0.6862,-0.7422,-0.7908,-0.8386,-0.8115,-0.7677,-0.7224,-0.6575,-0.5967,-0.5716,-0.5403,-0.4712,-0.4098,-0.4064,-0.4106,-0.3716,-0.3305,-0.3362,-0.2898,-0.1899,-0.1326,-0.0999,-0.0381,-0.0226,-0.0294,-0.0356,-0.0977,-0.1653,-0.1015,-0.0199,-0.1557,-0.2731,-0.2822,-0.1203,-0.2686,-0.3452,-0.4095,-0.4339,-0.4307,-0.406,-0.3937,-0.3937,-0.3937,-0.3815,-0.3692,-0.3815,-0.4183,-0.4668,-0.4757,-0.5007,-0.5778,-0.553,-0.5437,-0.5361,-0.5494,-0.561,-0.563,-0.5778,-0.5902,-0.6285,-0.5641,-0.5641,-0.5612,-0.5682,-0.5879,-0.6656,-0.7148,-0.7185,-0.7118,-0.7263,-0.7388,-0.7146,-0.7146,-0.7268,-0.7266,-0.6896,-0.6771,-0.6646,-0.6526,-0.6158,-0.6158,-0.6528,-0.6523,-0.6503,-0.6582,-0.6577,-0.6492,-0.6209,-0.5895,-0.5825,-0.6022,-0.6051,-0.6367,-0.6403,-0.6497,-0.6492,-0.627,-0.6047,-0.5938,-0.5938,-0.5826,-0.5712,-0.5712,-0.5701,-0.5793,-0.5554,-0.5757,-0.5969,-0.5973,-0.5778,-0.5594,-0.5441,-0.5376,-0.5281,-0.5203,-0.5052,-0.5629,-0.6129,-0.642,-0.6509,-0.6323,-0.6002,-0.5368,-0.4567,-0.4324,-0.4096,-0.3655,-0.3032,-0.291,-0.2803,-0.2263,-0.1895,-0.1917,-0.139,-0.0323,0.0395,0.0852,0.1617,0.2382,0.2737,0.2523,0.1809,0.1271,0.2362,0.3345,0.4002,0.3633,0.3431,0.4665,-0.1015,-0.099,-0.3172,-0.3911,-0.3815,-0.3937,-0.3815,-0.3569,-0.3448,-0.3203,-0.3079,-0.3079,-0.2955,-0.3194,-0.3187,-0.3308,-0.3444,-0.3194,-0.3434,-0.3683,-0.4062,-0.4298,-0.4432,-0.4436,-0.4561,-0.4436,-0.4064,-0.3694,-0.3446,-0.3799,-0.4896,-0.6519,-0.6246,-0.6634,-0.6648,-0.628,-0.6403,-0.6283,-0.6283,-0.6407,-0.628,-0.5908,-0.5412,-0.5289,-0.4676,-0.4183,-0.4182,-0.4921,-0.5414,-0.5412,-0.5397,-0.5389,-0.5158,-0.4782,-0.437,-0.4321,-0.4306,-0.4353,-0.4481,-0.5312,-0.6056,-0.6049,-0.571,-0.5039,-0.4817,-0.4704,-0.4592,-0.4479,-0.4479,-0.4455,-0.4417,-0.4385,-0.4302,-0.4309,-0.4202,-0.416,-0.3997,-0.4063,-0.4011,-0.4148,-0.3989,-0.3539,-0.3423,-0.382,-0.4824,-0.5118,-0.5007,-0.4714,-0.3946,-0.3202,-0.2981,-0.2685,-0.2417,-0.2136,-0.2102,-0.1743,-0.1138,-0.0607,-0.0423,0.0251,0.1166,0.1867,0.2433,0.32,0.3898,0.4668,0.5337,0.48,0.4745,0.5965,0.6908,0.7525,0.9631,1.0776,1.2383,-0.0386,-0.0251,-0.1151,-0.1648,-0.1849,-0.1602,-0.1479,-0.1479,-0.1356,-0.1357,-0.1357,-0.1233,-0.1349,-0.1706,-0.1822,-0.1943,-0.2303,-0.2282,-0.2306,-0.2443,-0.2688,-0.2811,-0.2942,-0.2956,-0.2955,-0.2832,-0.2585,-0.2586,-0.2709,-0.234,-0.2832,-0.3939,-0.4556,-0.4556,-0.4555,-0.4679,-0.4681,-0.4559,-0.4558,-0.4558,-0.4433,-0.4186,-0.3939,-0.3815,-0.3693,-0.3324,-0.3446,-0.3693,-0.3937,-0.3937,-0.3937,-0.3937,-0.3815,-0.3446,-0.3178,-0.302,-0.3015,-0.2966,-0.3011,-0.3764,-0.4189,-0.4035,-0.3694,-0.3358,-0.336,-0.3023,-0.2911,-0.2798,-0.2911,-0.3008,-0.2781,-0.2552,-0.2445,-0.2441,-0.2431,-0.2414,-0.249,-0.2567,-0.2519,-0.2466,-0.2034,-0.1513,-0.141,-0.141,-0.2616,-0.3717,-0.3528,-0.3252,-0.2436,-0.1923,-0.1626,-0.1348,-0.1079,-0.0807,-0.0707,-0.0353,0.0,0.0522,0.1029,0.1785,0.2609,0.3125,0.3681,0.4535,0.5427,0.6237,0.6962,0.7454,0.7864,0.8056,0.9491,1.1109,1.3795,1.6786,1.8114,0.0391,0.0382,0.0258,0.0128,-0.0249,0.0,0.0124,0.0124,0.0247,0.0247,0.0247,0.0247,0.0123,-0.0243,-0.0364,-0.0486,-0.0849,-0.0845,-0.0971,-0.1098,-0.1223,-0.1465,-0.1472,-0.1601,-0.1601,-0.1478,-0.1232,-0.1232,-0.1232,-0.1232,-0.1232,-0.1479,-0.1848,-0.2218,-0.3078,-0.2833,-0.2838,-0.2849,-0.2728,-0.2738,-0.2868,-0.2501,-0.249,-0.2488,-0.2237,-0.198,-0.1975,-0.2218,-0.2464,-0.234,-0.234,-0.2217,-0.2094,-0.1968,-0.1838,-0.1706,-0.1694,-0.1675,-0.1759,-0.2404,-0.261,-0.2467,-0.224,-0.2016,-0.1793,-0.1568,-0.1681,-0.1681,-0.1569,-0.1456,-0.1456,-0.1453,-0.134,-0.1449,-0.1338,-0.1218,-0.1081,-0.1063,-0.0936,-0.0712,-0.0405,-0.0504,-0.0302,-0.0403,-0.0705,-0.17,-0.1657,-0.1435,-0.0945,-0.0554,-0.036,-0.009,0.0361,0.063,0.0896,0.0982,0.1153,0.1653,0.2231,0.3066,0.3785,0.4365,0.5186,0.6093,0.6969,0.7812,0.8438,0.8925,0.9239,0.9443,1.1365,1.3514,1.5701,1.8283,2.0092,0.1058,0.1034,0.1047,0.0648,0.0126,0.0373,0.0499,0.0504,0.0747,0.0866,0.0865,0.0864,0.0863,0.0861,0.0736,0.0614,0.0613,0.0736,0.0739,0.0492,0.0,-0.0369,-0.037,-0.037,-0.0247,-0.0247,0.0123,0.0494,0.0617,0.0617,0.0617,0.0617,0.0123,-0.0493,-0.2217,-0.2464,-0.2358,-0.226,-0.1886,-0.1901,-0.1782,-0.1275,-0.114,-0.1129,-0.0751,-0.0498,-0.0495,-0.0863,-0.0986,-0.0986,-0.0863,-0.074,-0.074,0.0,0.037,0.0493,0.0493,0.0611,0.0722,-0.1152,-0.1583,-0.1238,-0.1014,-0.0899,-0.0898,-0.0785,-0.0561,-0.0336,-0.0561,-0.0673,-0.0785,-0.0673,-0.0336,-0.0112,0.0,0.0111,0.0326,0.0426,0.0521,0.0716,0.0304,0.0101,0.0302,0.0504,0.0706,0.0498,0.0388,0.0478,0.0569,0.0744,0.0905,0.117,0.1538,0.1987,0.216,0.2156,0.2315,0.288,0.3537,0.4383,0.5162,0.5797,0.6616,0.7517,0.8091,0.8722,0.9599,1.0409,1.107,1.1926,1.3762,1.5797,1.7874,1.9621,2.1236,0.1065,0.1047,0.1052,0.0917,0.0778,0.0895,0.0892,0.0894,0.1009,0.1122,0.1113,0.1112,0.1104,0.1223,0.1352,0.1476,0.1587,0.1603,0.1606,0.1606,0.1111,0.1234,0.1111,0.1111,0.1111,0.1234,0.1606,0.1606,0.1235,0.1729,0.1606,0.1359,0.1482,0.0741,0.0124,-0.0124,-0.0126,-0.0126,0.0,0.0,-0.0127,0.0127,0.0253,0.0,0.0374,0.0622,0.0618,0.0247,0.0247,0.0247,0.037,0.0493,0.0493,0.1111,0.1111,0.1112,0.0988,0.1104,0.1207,0.047,0.0231,0.0229,0.0342,0.0454,0.0562,0.101,0.1121,0.1121,0.1121,0.1121,0.157,0.1458,0.1682,0.1682,0.1791,0.1776,0.1855,0.1825,0.1897,0.2069,0.1939,0.1822,0.1917,0.2017,0.2116,0.221,0.2064,0.154,0.1429,0.1776,0.2009,0.2356,0.2806,0.3168,0.3438,0.3723,0.4051,0.468,0.5262,0.5866,0.6613,0.7094,0.7756,0.8582,0.8999,0.9478,1.0767,1.2103,1.3433,1.4773,1.5903,1.7312,1.9126,2.0626,2.1964,0.2275,0.252,0.2256,0.1991,0.1985,0.143,0.1286,0.1407,0.1394,0.1377,0.1486,0.1359,0.1476,0.1591,0.1718,0.1724,0.1949,0.1966,0.1977,0.1977,0.1977,0.1976,0.2099,0.2469,0.2467,0.2592,0.2838,0.296,0.2836,0.296,0.296,0.2837,0.2344,0.2342,0.1979,0.1742,0.1004,0.1009,0.1016,0.1148,0.102,0.1145,0.1012,0.0877,0.0997,0.0994,0.099,0.1112,0.1236,0.1236,0.1236,0.1359,0.1482,0.1482,0.1605,0.1605,0.1727,0.1842,0.1944,0.1932,0.1664,0.1642,0.1747,0.1726,0.1705,0.1927,0.2142,0.2362,0.2583,0.2693,0.2693,0.2693,0.2806,0.2806,0.2797,0.2775,0.2853,0.2807,0.2871,0.3028,0.3184,0.326,0.3433,0.3633,0.363,0.3714,0.3688,0.3125,0.2487,0.2906,0.331,0.3636,0.4008,0.4491,0.5059,0.5542,0.5935,0.6532,0.6851,0.7183,0.7595,0.8135,0.8828,0.957,1.0137,1.0942,1.2445,1.3807,1.4944,1.5939,1.6917,1.8512,2.0353,2.1351,2.2201,0.4437,0.524,0.4304,0.3764,0.3615,0.2486,0.1925,0.2021,0.2018,0.2003,0.198,0.1981,0.1856,0.1979,0.198,0.1977,0.1972,0.1975,0.2099,0.2223,0.2346,0.2468,0.2837,0.3328,0.3575,0.3946,0.4199,0.4337,0.481,0.4578,0.4577,0.4435,0.3819,0.3942,0.3701,0.3092,0.212,0.2139,0.2284,0.2294,0.2168,0.192,0.2029,0.2011,0.1881,0.1749,0.1743,0.1864,0.174,0.1864,0.1862,0.2229,0.2349,0.2469,0.2716,0.2837,0.2838,0.2834,0.2829,0.2696,0.2807,0.2523,0.25,0.2463,0.2428,0.2523,0.2731,0.2712,0.2814,0.2809,0.2806,0.2918,0.303,0.3139,0.325,0.3334,0.3521,0.3473,0.3532,0.3685,0.3832,0.3888,0.4145,0.4435,0.4945,0.5127,0.5191,0.5025,0.4532,0.4242,0.462,0.4887,0.5287,0.5858,0.6444,0.6805,0.7346,0.767,0.7816,0.8197,0.8662,0.9243,0.9925,1.0638,1.1303,1.2209,1.35,1.4824,1.6122,1.7056,1.7687,1.8936,2.0579,2.0923,2.1707,0.5104,0.5372,0.5106,0.4972,0.4832,0.4528,0.3517,0.215,0.2018,0.2013,0.2006,0.2007,0.2256,0.2006,0.2007,0.2118,0.2107,0.21,0.2591,0.2715,0.309,0.3577,0.407,0.4445,0.4561,0.4703,0.4974,0.5504,0.5379,0.5504,0.5462,0.5176,0.506,0.5179,0.5053,0.4556,0.398,0.3516,0.38,0.3554,0.3425,0.3551,0.3519,0.3622,0.3759,0.3627,0.3258,0.3406,0.3417,0.2924,0.2801,0.292,0.2885,0.2882,0.3002,0.2963,0.296,0.296,0.296,0.3083,0.3198,0.3308,0.3287,0.2998,0.2945,0.3017,0.3222,0.3085,0.3168,0.3271,0.3376,0.3485,0.3591,0.3698,0.392,0.4015,0.409,0.4279,0.4325,0.4676,0.4706,0.4924,0.517,0.5553,0.6062,0.6445,0.6597,0.6522,0.6238,0.591,0.5763,0.5916,0.6391,0.6891,0.7372,0.7738,0.8321,0.8762,0.8989,0.9283,0.9889,1.0493,1.11,1.1758,1.2546,1.339,1.4343,1.5607,1.6865,1.7577,1.8259,1.9497,2.0523,2.0885,2.1642,0.6309,0.6577,0.6176,0.5758,0.5328,0.5328,0.4574,0.3445,0.3325,0.3325,0.3305,0.3431,0.3295,0.3276,0.3398,0.3251,0.3332,0.3332,0.3585,0.3985,0.4102,0.4627,0.5128,0.5632,0.6025,0.6037,0.6432,0.7105,0.685,0.6591,0.6553,0.7024,0.6607,0.6577,0.6694,0.6796,0.6423,0.5731,0.5143,0.4901,0.489,0.4994,0.5082,0.5438,0.5724,0.5377,0.5039,0.5218,0.486,0.4365,0.4365,0.4328,0.4401,0.4263,0.4364,0.4436,0.419,0.4435,0.4681,0.4679,0.4558,0.4559,0.4682,0.4757,0.4334,0.4154,0.3755,0.3485,0.3665,0.3852,0.3954,0.4167,0.4268,0.448,0.4592,0.4702,0.4792,0.4989,0.5245,0.5692,0.5903,0.6092,0.6433,0.6914,0.7181,0.7447,0.7803,0.8028,0.7553,0.7065,0.6774,0.6778,0.7282,0.7834,0.8206,0.8674,0.9271,0.9763,0.9998,1.0466,1.117,1.1705,1.2064,1.294,1.3856,1.4591,1.5324,1.619,1.7286,1.7916,1.8522,1.9341,2.0291,2.09,2.1958,0.7786,0.859,0.7653,0.6668,0.5668,0.5803,0.5758,0.556,0.5624,0.5485,0.5293,0.5283,0.4996,0.4841,0.4833,0.4789,0.4624,0.461,0.4758,0.5299,0.5299,0.5703,0.6379,0.6933,0.7268,0.8071,0.8495,0.8497,0.8753,0.8486,0.835,0.9249,0.824,0.806,0.8554,0.8579,0.806,0.7457,0.6452,0.5816,0.5804,0.5786,0.578,0.6147,0.6296,0.6328,0.6268,0.6311,0.6334,0.6239,0.6237,0.6191,0.6021,0.5864,0.6068,0.6058,0.5694,0.5818,0.6056,0.6168,0.6399,0.6644,0.6886,0.6625,0.5956,0.5288,0.4749,0.4591,0.4881,0.5045,0.5244,0.5326,0.5529,0.5609,0.5813,0.5922,0.6132,0.6205,0.6354,0.6792,0.7229,0.7404,0.7499,0.7873,0.832,0.8567,0.8707,0.9041,0.8991,0.8319,0.8037,0.7795,0.8231,0.8834,0.9225,0.9705,1.0315,1.0711,1.0977,1.1577,1.2265,1.2657,1.3059,1.4052,1.4977,1.5599,1.6371,1.7208,1.7868,1.824,1.8809,1.9214,1.9987,2.076,2.1592,0.8856,0.9395,0.9125,0.8701,0.827,0.8138,0.8122,0.8231,0.8125,0.7276,0.5891,0.549,0.5609,0.5966,0.5958,0.5783,0.5472,0.5946,0.5992,0.6266,0.6528,0.7063,0.7852,0.8143,0.8637,0.8901,0.9331,0.9534,0.9534,0.9392,0.9472,0.965,0.92,0.9326,0.9576,0.9449,0.9131,0.8756,0.8321,0.7541,0.7411,0.7758,0.8116,0.827,0.8307,0.7997,0.795,0.7886,0.7541,0.7061,0.6928,0.6873,0.68,0.6772,0.6888,0.7012,0.701,0.713,0.7224,0.7431,0.7518,0.75,0.7495,0.7495,0.7213,0.6536,0.612,0.6077,0.6136,0.6285,0.6334,0.6517,0.6689,0.6862,0.7038,0.7149,0.7368,0.7523,0.7566,0.8028,0.8464,0.8563,0.8642,0.8845,0.9276,0.9514,0.9644,0.9792,0.9981,0.971,0.9556,0.9303,0.9353,0.9817,1.0122,1.0615,1.1126,1.1572,1.1812,1.253,1.335,1.3926,1.4442,1.5259,1.6102,1.6594,1.7227,1.8073,1.8599,1.885,1.8861,1.9272,1.9822,2.0593,2.1183,0.9525,0.9664,0.9664,0.9528,0.9389,0.9389,0.9389,0.9389,0.9389,0.8811,0.7822,0.7419,0.74,0.7495,0.7483,0.7305,0.6963,0.7323,0.774,0.7899,0.7928,0.8485,0.9013,0.9287,0.945,0.9726,0.9891,1.007,1.0061,1.0198,1.0277,1.0191,1.0158,1.0105,1.0088,0.9982,0.9777,0.9651,0.9679,0.9398,0.9001,0.923,0.9319,0.9474,0.9506,0.9327,0.9406,0.936,0.9059,0.8843,0.886,0.9009,0.8925,0.8632,0.8629,0.8755,0.8749,0.8477,0.8676,0.8732,0.8652,0.8747,0.8836,0.9204,0.9323,0.8633,0.7903,0.7728,0.729,0.7317,0.7399,0.7586,0.7587,0.7734,0.7806,0.79,0.8517,0.8992,0.9173,0.9476,0.9712,0.9858,0.9922,0.9963,1.0276,1.0196,1.0324,1.0319,1.0507,1.0703,1.0646,1.0786,1.0631,1.0572,1.0785,1.1292,1.1994,1.2333,1.2647,1.3338,1.4193,1.5109,1.5937,1.6377,1.6918,1.7426,1.8118,1.8745,1.9221,1.9429,1.9284,1.9172,1.9818,2.0391,2.0917,0.9794,0.9794,0.9794,0.9794,0.9797,0.9797,0.9797,0.9794,0.9794,0.9924,1.0044,0.9779,0.9714,0.9649,0.9608,0.9525,0.9224,0.8989,0.9284,0.9323,0.9347,0.9386,0.9575,1.0028,1.0138,1.0267,1.0422,1.0561,1.0558,1.0558,1.0548,1.0683,1.0616,1.0521,1.048,1.0524,1.0304,1.0417,1.0506,1.0774,1.0478,1.0164,1.0103,1.008,1.0215,1.028,1.0366,1.0448,1.0575,1.0599,1.0599,1.0621,1.0565,1.0266,1.0421,1.0421,1.029,1.0362,1.0656,1.0571,1.0587,1.0749,1.0944,1.0914,1.0793,1.0418,0.9677,0.9271,0.8812,0.8634,0.8713,0.8775,0.8756,0.8853,0.8924,0.8963,0.9661,1.0245,1.046,1.068,1.0853,1.1008,1.0971,1.1002,1.0922,1.0839,1.0789,1.078,1.09,1.0998,1.1021,1.1433,1.1782,1.1708,1.1546,1.189,1.2428,1.3183,1.3514,1.425,1.4919,1.5588,1.6339,1.7062,1.7631,1.7971,1.8476,1.8965,1.9476,1.9866,1.9601,1.9363,1.9667,2.0223,2.0651,1.006,1.0193,1.0455,1.0326,1.0057,1.0057,1.006,1.006,1.006,1.0323,1.0455,1.0588,1.0296,1.0016,1.0016,0.9971,0.9795,0.993,0.9833,0.9618,0.9726,0.9893,1.0047,1.019,1.0323,1.0455,1.0588,1.0721,1.0721,1.0721,1.0717,1.0711,1.0711,1.066,1.0643,1.0805,1.0837,1.0948,1.1151,1.1257,1.1302,1.0976,1.089,1.0868,1.0745,1.0886,1.1035,1.1042,1.1075,1.1224,1.1272,1.1374,1.1389,1.1302,1.1471,1.1482,1.1349,1.1309,1.1479,1.1458,1.1332,1.1333,1.1271,1.13,1.1413,1.1522,1.1031,1.1027,1.0576,1.0281,1.0235,1.0317,1.0314,1.0375,1.0501,1.0567,1.099,1.1156,1.1236,1.1345,1.1328,1.135,1.1233,1.1261,1.1182,1.1101,1.0929,1.1024,1.1213,1.126,1.1521,1.2068,1.2619,1.2358,1.2109,1.218,1.2765,1.3597,1.4379,1.4926,1.5455,1.5814,1.6568,1.7548,1.8011,1.8372,1.8788,1.9412,1.958,1.9866,1.9683,1.9595,1.9815,2.0107,2.0598]},{"header":{"parameterUnit":"m.s-1","parameterCategory":1,"la1":31.0,"la2":29.5877,"lo1":-88.7671,"lo2":-86.6584,"dy":0.0162,"dx":0.0185,"nx":115,"ny":88,"refTime":"2024-06-20T12:00:00:Z","depth":0,"parameterNumber":3,"parameterNumberName":"V-component_of_WINDS"},"data":[0.0,0.0,0.0,0.0,0.0,0.0,0.0,0.0,0.0,0.0,0.0,0.0,0.0,0.0,0.0,0.0,0.0,0.0,0.0,0.0,0.0,0.0,0.0,0.0,0.0,0.0,0.0,0.0,0.0,0.0,0.0,0.0,0.0,0.0,0.0,0.0,0.0,0.0,0.0,0.0,0.0,0.0,0.0,0.0,0.0,0.0,0.0,0.0,0.0,0.0,0.0,0.0,0.0,0.0,0.0,0.0,0.0,0.0,0.0,0.0,0.0,0.0,0.0,0.0,0.0,0.0,0.0,0.0,0.0,0.0,0.0,0.0,0.0,0.0,0.0,0.0,0.0,0.0,0.0,0.0,0.0,0.0,0.0,0.0,0.0,0.0,0.0,0.0,0.0,0.0,0.0,0.0,0.0,0.0,0.0,0.0,0.0,0.0,0.0,0.0,0.0,0.0,0.0,0.0,0.0,0.0,0.0,0.0,0.0,0.0,0.0,0.0,0.0,0.0,0.0,0.0,0.0,0.0,0.0,0.0,0.0,0.0,0.0,0.0,0.0,0.0,0.0,0.0,0.0,0.0,0.0,0.0,0.0,0.0,0.0,0.0,0.0,0.0,0.0,0.0,0.0,0.0,0.0,0.0,0.0,0.0,0.0,0.0,0.0,0.0,0.0,0.0,0.0,0.0,0.0,0.0,0.0,0.0,0.0,0.0,0.0,0.0,0.0,0.0,0.0,0.0,0.0,0.0,0.0,0.0,0.0,0.0,0.0,0.0,0.0,0.0,0.0,0.0,0.0,0.0,0.0,0.0,0.0,0.0,0.0,0.0,0.0,0.0,0.0,0.0,0.0,0.0,0.0,0.0,0.0,0.0,0.0,0.0,0.0,0.0,0.0,0.0,0.0,0.0,0.0,0.0,0.0,0.0,0.0,0.0,0.0,0.0,0.0,0.0,0.0,0.0,0.0,0.0,0.0,0.0,0.0,0.0,0.0,0.0,0.0,0.0,0.0,0.0,0.0,0.0,0.0,0.0,0.0,0.0,0.0,0.0,0.0,0.0,0.0,0.0,0.0,0.0,0.0,0.0,0.0,0.0,0.0,0.0,0.0,0.0,0.0,0.0,0.0,0.0,0.0,0.0,0.0,0.0,0.0,0.0,0.0,0.0,0.0,0.0,0.0,0.0,0.0,0.0,0.0,0.0,0.0,0.0,0.0,0.0,0.0,0.0,0.0,0.0,0.0,0.0,0.0,0.0,0.0,0.0,0.0,0.0,0.0,0.0,0.0,0.0,0.0,0.0,0.0,0.0,0.0,0.0,0.0,0.0,0.0,0.0,0.0,0.0,0.0,0.0,0.0,0.0,0.0,0.0,0.0,0.0,0.0,0.0,0.0,0.0,0.0,0.0,0.0,0.0,0.0,0.0,0.0,0.0,0.0,0.0,0.0,0.0,0.0,0.0,0.0,0.0,0.0,0.0,0.0,0.0,0.0,0.0,0.0,0.0,0.0,0.0,0.0,0.0,0.0,0.0,0.0,0.0,0.0,0.0,0.0,0.0,0.0,0.0,0.0,0.0,0.0,0.0,0.0,0.0,0.0,0.0,0.0,0.0,0.0,0.0,0.0,0.0,0.0,0.0,0.0,0.0,0.0,0.0,0.0,0.0,0.0,0.0,0.0,0.0,0.0,0.0,0.0,0.0,0.0,0.0,0.0,0.0,0.0,0.0,0.0,0.0,0.0,0.0,0.0,0.0,0.0,0.0,0.0,0.0,0.0,0.0,0.0,0.0,0.0,0.0,0.0,0.0,0.0,0.0,0.0,0.0,0.0,0.0,0.0,0.0,0.0,0.0,0.0,0.0,0.0,0.0,0.0,0.0,0.0,0.0,0.0,0.0,0.0,0.0,0.0,0.0,0.0,0.0,0.0,0.0,0.0,0.0,0.0,0.0,0.0,0.0,0.0,0.0,0.0,0.0,0.0,0.0,0.0,0.0,0.0,0.0,0.0,0.0,0.0,0.0,0.0,0.0,0.0,0.0,0.0,0.0,0.0,0.0,0.0,0.0,0.0,0.0,0.0,0.0,0.0,0.0,0.0,0.0,0.0,0.0,0.0,0.0,0.0,0.0,0.0,0.0,0.0,0.0,0.0,0.0,0.0,0.0,0.0,0.0,0.0,0.0,0.0,0.0,0.0,0.0,0.0,0.0,0.0,0.0,0.0,0.0,0.0,0.0,0.0,0.0,0.0,0.0,0.0,0.0,0.0,0.0,0.0,0.0,0.0,0.0,0.0,0.0,0.0,0.0,0.0,0.0,0.0,0.0,0.0,0.0,0.0,0.0,0.0,0.0,0.0,0.0,0.0,0.0,0.0,0.0,0.0,0.0,0.0,0.0,0.0,0.0,0.0,0.0,0.0,0.0,0.0,0.0,0.0,0.0,0.0,0.0,0.0,0.0,0.0,0.0,0.0,0.0,0.0,0.0,0.0,0.0,0.0,0.0,0.0,0.0,0.0,0.0,0.0,0.0,0.0,0.0,0.0,0.0,0.0,0.0,0.0,0.0,0.0,0.0,0.0,0.0,0.0,0.0,0.0,0.0,0.0,0.0,0.0,0.0,0.0,0.0,0.0,0.0,0.0,0.0,0.0,0.0,0.0,0.0,0.0,0.0,0.0,0.0,0.0,0.0,0.0,0.0,0.0,0.0,0.0,0.0,0.0,0.0,0.0,0.0,0.0,0.0,0.0,0.0,0.0,0.0,0.0,0.0,0.0,0.0,0.0,0.0,0.0,0.0,0.0,0.0,0.0,0.0,0.0,0.0,0.0,0.0,0.0,0.0,0.0,0.0,0.0,0.0,0.0,0.0,0.0,0.0,0.0,0.0,0.0,0.0,0.0,0.0,0.0,0.0,0.0,0.0,0.0,0.0,0.0,0.0,0.0,0.0,0.0,0.0,0.0,0.0,0.0,0.0,0.0,0.0,0.0,0.0,0.0,0.0,0.0,0.0,0.0,0.0,0.0,0.0,0.0,0.0,0.0,0.0,0.0,0.0,0.0,0.0,0.0,0.0,0.0,0.0,0.0,0.0,0.0,0.0,0.0,0.0,0.0,0.0,0.0,0.0,0.0,0.0,0.0,0.0,0.0,0.0,0.0,0.0,0.0,0.0,0.0,0.0,0.0,0.0,0.0,0.0,0.0,0.0,0.0,0.0,0.0,0.0,0.0,0.0,0.0,0.0,0.0,0.0,0.0,0.0,0.0,0.0,0.0,0.0,0.0,0.0,0.0,0.0,0.0,0.0,0.0,0.0,0.0,0.0,0.0,0.0,0.0,0.0,0.0,0.0,0.0,0.0,0.0,0.0,0.0,0.0,0.0,0.0,0.0,0.0,0.0,0.0,0.0,0.0,0.0,0.0,0.0,0.0,0.0,0.0,0.0,0.0,0.0,0.0,0.0,0.0,0.0,0.0,0.0,0.0,0.0,0.0,0.0,0.0,0.0,0.0,0.0,0.0,0.0,0.0,0.0,0.0,0.0,0.0,0.0,0.0,0.0,0.0,0.0,0.0,0.0,0.0,0.0,0.0,0.0,0.0,0.0,0.0,0.0,0.0,0.0,0.0,0.0,0.0,0.0,0.0,0.0,0.0,0.0,0.0,0.0,0.0,0.0,0.0,0.0,0.0,0.0,0.0,0.0,0.0,0.0,0.0,0.0,0.0,0.0,0.0,0.0,0.0,0.0,0.0,0.0,0.0,0.0,0.0,0.0,0.0,0.0,0.0,0.0,0.0,0.0,0.0,0.0,0.0,0.0,0.0,0.0,0.0,0.0,0.0,0.0,0.0,0.0,0.0,0.0,0.0,0.0,0.0,0.0,0.0,0.0,0.0,0.0,0.0,0.0,0.0,0.0,0.0,0.0,0.0,0.0,0.0,0.0,0.0,0.0,0.0,0.0,0.0,0.0,0.0,0.0,0.0,0.0,0.0,0.0,0.0,0.0,0.0,0.0,0.0,0.0,0.0,0.0,0.0,0.0,0.0,0.0,0.0,0.0,0.0,0.0,0.0,0.0,0.0,0.0,0.0,0.0,0.0,0.0,0.0,0.0,0.0,0.0,0.0,0.0,0.0,0.0,0.0,0.0,0.0,0.0,0.0,0.0,0.0,0.0,0.0,0.0,0.0,0.0,0.0,0.0,0.0,0.0,0.0,0.0,0.0,0.0,0.0,0.0,0.0,0.0,0.0,0.0,0.0,0.0,0.0,0.0,0.0,0.0,0.0,0.0,0.0,0.0,0.0,3.4582,0.0,0.0,0.0,0.0,0.0,0.0,0.0,0.0,0.0,0.0,0.0,0.0,0.0,0.0,0.0,0.0,0.0,0.0,0.0,0.0,0.0,0.0,0.0,0.0,0.0,0.0,0.0,0.0,0.0,0.0,0.0,0.0,0.0,0.0,0.0,0.0,0.0,0.0,0.0,0.0,0.0,0.0,0.0,0.0,0.0,0.0,0.0,0.0,0.0,0.0,0.0,0.0,0.0,0.0,0.0,0.0,0.0,0.0,0.0,0.0,0.0,0.0,0.0,0.0,0.0,0.0,0.0,0.0,0.0,0.0,0.0,0.0,0.0,0.0,0.0,0.0,0.0,0.0,0.0,0.0,0.0,0.0,0.0,0.0,0.0,0.0,0.0,0.0,0.0,0.0,0.0,0.0,0.0,0.0,0.0,0.0,0.0,0.0,0.0,0.0,0.0,0.0,0.0,0.0,0.0,0.0,0.0,0.0,0.0,0.0,3.4672,3.487,3.3545,3.3467,3.4812,0.0,0.0,0.0,0.0,0.0,0.0,0.0,0.0,0.0,0.0,0.0,0.0,0.0,0.0,0.0,0.0,0.0,0.0,0.0,0.0,0.0,0.0,0.0,0.0,0.0,0.0,0.0,0.0,0.0,0.0,0.0,0.0,0.0,0.0,0.0,0.0,0.0,0.0,0.0,0.0,0.0,0.0,0.0,0.0,0.0,0.0,0.0,0.0,0.0,0.0,0.0,0.0,0.0,0.0,0.0,0.0,0.0,0.0,0.0,0.0,0.0,0.0,0.0,0.0,0.0,0.0,0.0,0.0,0.0,0.0,0.0,0.0,0.0,0.0,0.0,0.0,0.0,0.0,0.0,0.0,0.0,0.0,0.0,0.0,0.0,0.0,0.0,0.0,0.0,0.0,0.0,0.0,0.0,0.0,0.0,0.0,0.0,0.0,0.0,0.0,0.0,0.0,0.0,0.0,0.0,0.0,0.0,0.0,0.0,0.0,0.0,0.0,3.3933,3.3761,3.4774,0.0,0.0,0.0,0.0,0.0,0.0,0.0,0.0,0.0,0.0,0.0,0.0,0.0,0.0,0.0,0.0,0.0,0.0,0.0,0.0,0.0,0.0,0.0,0.0,0.0,0.0,0.0,0.0,0.0,0.0,0.0,0.0,0.0,0.0,0.0,0.0,0.0,0.0,0.0,0.0,0.0,0.0,0.0,0.0,0.0,0.0,0.0,0.0,0.0,0.0,0.0,0.0,0.0,0.0,0.0,0.0,0.0,0.0,0.0,0.0,0.0,0.0,0.0,0.0,0.0,0.0,0.0,0.0,0.0,0.0,0.0,0.0,0.0,0.0,0.0,0.0,0.0,0.0,0.0,0.0,0.0,0.0,0.0,0.0,0.0,0.0,0.0,0.0,0.0,0.0,0.0,0.0,0.0,0.0,0.0,0.0,0.0,0.0,0.0,0.0,0.0,0.0,0.0,0.0,0.0,0.0,0.0,0.0,0.0,0.0,3.6122,3.5719,3.4889,0.0,3.467,0.0,0.0,0.0,0.0,0.0,0.0,0.0,0.0,0.0,0.0,0.0,0.0,0.0,0.0,0.0,0.0,0.0,0.0,0.0,0.0,0.0,0.0,0.0,0.0,0.0,0.0,0.0,0.0,0.0,0.0,0.0,0.0,0.0,0.0,0.0,0.0,0.0,0.0,0.0,0.0,0.0,0.0,0.0,0.0,0.0,0.0,0.0,0.0,0.0,0.0,0.0,0.0,0.0,0.0,0.0,0.0,0.0,0.0,0.0,0.0,0.0,0.0,0.0,0.0,0.0,0.0,0.0,0.0,0.0,0.0,0.0,0.0,0.0,0.0,0.0,0.0,0.0,0.0,0.0,0.0,0.0,0.0,0.0,0.0,0.0,0.0,0.0,0.0,0.0,0.0,0.0,0.0,0.0,0.0,0.0,0.0,0.0,0.0,0.0,0.0,0.0,0.0,0.0,0.0,0.0,0.0,0.0,0.0,0.0,0.0,3.6366,3.6118,3.5285,3.5116,0.0,0.0,0.0,0.0,0.0,0.0,0.0,0.0,0.0,0.0,0.0,0.0,0.0,0.0,0.0,0.0,0.0,0.0,0.0,0.0,0.0,0.0,0.0,0.0,0.0,0.0,0.0,0.0,0.0,0.0,0.0,0.0,0.0,0.0,0.0,0.0,0.0,0.0,0.0,0.0,0.0,0.0,0.0,0.0,0.0,0.0,0.0,0.0,0.0,0.0,0.0,0.0,0.0,0.0,0.0,0.0,0.0,0.0,0.0,0.0,0.0,0.0,0.0,0.0,0.0,0.0,0.0,0.0,0.0,0.0,0.0,0.0,0.0,0.0,0.0,0.0,0.0,0.0,0.0,0.0,0.0,0.0,0.0,0.0,0.0,0.0,0.0,0.0,0.0,0.0,0.0,0.0,0.0,0.0,0.0,0.0,0.0,0.0,0.0,0.0,0.0,0.0,0.0,0.0,0.0,0.0,0.0,0.0,0.0,0.0,3.6642,3.6341,3.5951,3.6291,3.6345,3.6056,0.0,0.0,0.0,0.0,0.0,0.0,0.0,0.0,0.0,0.0,0.0,0.0,0.0,0.0,0.0,0.0,0.0,0.0,0.0,0.0,0.0,0.0,0.0,0.0,0.0,0.0,0.0,0.0,0.0,0.0,0.0,0.0,0.0,0.0,0.0,0.0,0.0,0.0,0.0,0.0,0.0,0.0,0.0,0.0,0.0,0.0,0.0,0.0,0.0,0.0,0.0,0.0,0.0,0.0,0.0,0.0,0.0,0.0,0.0,0.0,0.0,0.0,0.0,0.0,0.0,0.0,0.0,0.0,0.0,0.0,0.0,0.0,0.0,0.0,0.0,0.0,0.0,0.0,0.0,0.0,0.0,0.0,0.0,0.0,0.0,0.0,0.0,0.0,0.0,0.0,0.0,0.0,0.0,0.0,0.0,0.0,0.0,0.0,0.0,0.0,0.0,0.0,0.0,0.0,0.0,0.0,0.0,0.0,3.5019,3.6016,3.6102,3.5172,3.8246,3.8454,0.0,0.0,0.0,0.0,0.0,0.0,0.0,0.0,0.0,0.0,0.0,0.0,0.0,0.0,0.0,0.0,0.0,0.0,0.0,0.0,0.0,0.0,0.0,0.0,0.0,0.0,0.0,0.0,0.0,0.0,0.0,0.0,0.0,0.0,0.0,0.0,0.0,0.0,0.0,0.0,0.0,0.0,0.0,0.0,0.0,0.0,0.0,0.0,0.0,0.0,0.0,0.0,0.0,0.0,0.0,0.0,0.0,0.0,0.0,0.0,0.0,0.0,0.0,0.0,0.0,0.0,0.0,0.0,0.0,0.0,0.0,0.0,0.0,0.0,0.0,0.0,0.0,0.0,0.0,0.0,0.0,0.0,0.0,0.0,0.0,0.0,0.0,0.0,0.0,0.0,0.0,0.0,0.0,0.0,0.0,0.0,0.0,0.0,0.0,0.0,0.0,0.0,0.0,0.0,0.0,0.0,0.0,0.0,0.0,3.6837,3.7267,3.7613,3.7824,3.7445,3.681,0.0,0.0,0.0,0.0,0.0,0.0,0.0,0.0,0.0,0.0,0.0,0.0,0.0,0.0,0.0,0.0,0.0,0.0,0.0,0.0,0.0,0.0,0.0,0.0,0.0,0.0,0.0,0.0,0.0,0.0,0.0,0.0,0.0,0.0,0.0,0.0,0.0,0.0,0.0,0.0,0.0,0.0,0.0,0.0,0.0,0.0,0.0,0.0,0.0,0.0,0.0,0.0,0.0,0.0,0.0,0.0,0.0,0.0,0.0,0.0,0.0,0.0,0.0,0.0,0.0,0.0,0.0,0.0,0.0,0.0,0.0,0.0,0.0,0.0,0.0,0.0,0.0,0.0,0.0,0.0,0.0,0.0,0.0,0.0,0.0,0.0,0.0,0.0,0.0,0.0,0.0,0.0,0.0,0.0,0.0,0.0,0.0,0.0,0.0,0.0,0.0,0.0,0.0,0.0,0.0,0.0,0.0,0.0,0.0,3.7243,0.0,3.7822,0.0,3.7003,3.6293,0.0,0.0,0.0,0.0,0.0,0.0,0.0,0.0,0.0,0.0,0.0,0.0,0.0,0.0,0.0,0.0,0.0,0.0,0.0,0.0,0.0,0.0,0.0,0.0,0.0,0.0,0.0,0.0,0.0,0.0,0.0,0.0,0.0,0.0,0.0,0.0,0.0,0.0,0.0,0.0,0.0,0.0,0.0,0.0,0.0,0.0,0.0,0.0,0.0,0.0,0.0,0.0,0.0,0.0,0.0,0.0,0.0,0.0,0.0,0.0,0.0,0.0,0.0,0.0,0.0,0.0,0.0,0.0,0.0,0.0,0.0,0.0,0.0,0.0,0.0,0.0,0.0,0.0,0.0,0.0,0.0,0.0,0.0,0.0,0.0,0.0,0.0,0.0,0.0,0.0,0.0,0.0,0.0,0.0,0.0,0.0,0.0,0.0,0.0,0.0,0.0,0.0,0.0,0.0,0.0,0.0,0.0,0.0,3.6422,3.5782,3.643,3.6477,3.5679,3.717,3.724,0.0,0.0,0.0,0.0,0.0,0.0,0.0,0.0,0.0,0.0,0.0,0.0,0.0,0.0,0.0,0.0,0.0,0.0,0.0,0.0,0.0,0.0,0.0,0.0,0.0,0.0,0.0,0.0,0.0,0.0,0.0,0.0,0.0,0.0,0.0,0.0,0.0,0.0,0.0,0.0,0.0,0.0,0.0,0.0,0.0,0.0,0.0,0.0,0.0,0.0,0.0,0.0,0.0,0.0,0.0,0.0,0.0,0.0,0.0,0.0,0.0,0.0,0.0,0.0,0.0,0.0,0.0,0.0,0.0,0.0,0.0,0.0,0.0,0.0,0.0,0.0,0.0,0.0,0.0,0.0,0.0,0.0,0.0,0.0,0.0,0.0,0.0,0.0,0.0,0.0,0.0,0.0,0.0,0.0,0.0,0.0,0.0,0.0,0.0,0.0,0.0,0.0,0.0,0.0,0.0,0.0,0.0,0.0,0.0,3.586,3.607,3.6025,3.5702,3.5651,3.5627,0.0,0.0,0.0,0.0,0.0,0.0,0.0,0.0,0.0,0.0,0.0,0.0,0.0,0.0,0.0,0.0,0.0,0.0,0.0,0.0,0.0,0.0,0.0,0.0,0.0,0.0,0.0,0.0,0.0,0.0,0.0,0.0,0.0,0.0,0.0,0.0,0.0,0.0,0.0,0.0,0.0,0.0,0.0,0.0,0.0,0.0,0.0,0.0,0.0,0.0,0.0,0.0,0.0,0.0,0.0,0.0,0.0,0.0,0.0,0.0,0.0,0.0,0.0,0.0,0.0,0.0,0.0,0.0,0.0,0.0,0.0,0.0,0.0,0.0,0.0,0.0,0.0,0.0,0.0,0.0,0.0,0.0,0.0,0.0,0.0,0.0,0.0,0.0,0.0,0.0,0.0,0.0,0.0,0.0,0.0,0.0,0.0,0.0,0.0,0.0,0.0,0.0,0.0,0.0,0.0,0.0,0.0,0.0,0.0,3.499,3.5491,3.5563,3.5204,3.5057,3.5054,3.5204,0.0,0.0,0.0,0.0,0.0,0.0,0.0,0.0,0.0,0.0,0.0,0.0,0.0,0.0,0.0,0.0,0.0,0.0,0.0,0.0,0.0,0.0,0.0,0.0,0.0,0.0,0.0,0.0,0.0,0.0,0.0,0.0,0.0,0.0,0.0,0.0,0.0,0.0,0.0,0.0,0.0,0.0,0.0,0.0,0.0,0.0,0.0,0.0,0.0,0.0,0.0,0.0,0.0,0.0,0.0,0.0,0.0,0.0,0.0,0.0,0.0,0.0,0.0,0.0,0.0,0.0,0.0,0.0,0.0,0.0,0.0,0.0,0.0,0.0,0.0,0.0,0.0,0.0,0.0,0.0,0.0,0.0,0.0,0.0,0.0,0.0,0.0,0.0,0.0,0.0,0.0,0.0,0.0,0.0,0.0,0.0,0.0,0.0,0.0,0.0,0.0,0.0,0.0,0.0,0.0,0.0,0.0,0.0,3.332,3.4533,3.4874,3.4326,3.5156,3.5344,0.0,0.0,0.0,0.0,0.0,0.0,0.0,0.0,0.0,0.0,0.0,0.0,0.0,0.0,0.0,0.0,0.0,0.0,0.0,0.0,0.0,0.0,0.0,0.0,0.0,0.0,0.0,0.0,0.0,0.0,0.0,0.0,0.0,0.0,0.0,0.0,0.0,0.0,0.0,0.0,0.0,0.0,0.0,0.0,0.0,0.0,0.0,0.0,0.0,0.0,0.0,0.0,0.0,0.0,0.0,0.0,0.0,0.0,0.0,0.0,0.0,0.0,0.0,0.0,0.0,0.0,0.0,0.0,0.0,0.0,0.0,0.0,0.0,0.0,0.0,0.0,0.0,0.0,0.0,0.0,0.0,0.0,0.0,0.0,0.0,0.0,0.0,0.0,0.0,0.0,0.0,0.0,0.0,0.0,0.0,0.0,0.0,0.0,0.0,0.0,0.0,0.0,0.0,0.0,0.0,0.0,0.0,0.0,0.0,3.22,3.1586,3.2084,3.3772,3.408,3.4495,0.0,0.0,0.0,0.0,0.0,0.0,0.0,0.0,0.0,0.0,0.0,0.0,0.0,0.0,0.0,0.0,0.0,0.0,0.0,0.0,0.0,0.0,0.0,0.0,0.0,0.0,0.0,0.0,0.0,0.0,0.0,0.0,0.0,0.0,0.0,0.0,0.0,0.0,0.0,0.0,0.0,0.0,0.0,0.0,0.0,0.0,0.0,0.0,0.0,0.0,0.0,0.0,0.0,0.0,0.0,0.0,0.0,0.0,0.0,0.0,0.0,0.0,0.0,0.0,0.0,0.0,0.0,0.0,0.0,0.0,0.0,0.0,0.0,0.0,0.0,0.0,0.0,0.0,0.0,0.0,0.0,0.0,0.0,0.0,0.0,0.0,0.0,0.0,0.0,0.0,0.0,0.0,0.0,0.0,0.0,0.0,0.0,0.0,0.0,0.0,0.0,0.0,0.0,0.0,0.0,0.0,0.0,0.0,3.2525,3.0033,2.8763,2.9074,3.1133,3.2292,3.334,0.0,0.0,0.0,0.0,0.0,0.0,0.0,0.0,0.0,0.0,0.0,0.0,0.0,0.0,0.0,0.0,0.0,0.0,0.0,0.0,0.0,0.0,0.0,0.0,0.0,0.0,0.0,0.0,0.0,0.0,0.0,0.0,0.0,0.0,0.0,0.0,0.0,0.0,0.0,0.0,0.0,0.0,0.0,0.0,0.0,0.0,0.0,0.0,0.0,0.0,0.0,0.0,0.0,0.0,0.0,0.0,0.0,0.0,0.0,0.0,0.0,0.0,0.0,0.0,0.0,0.0,0.0,0.0,0.0,0.0,0.0,0.0,0.0,0.0,0.0,0.0,0.0,0.0,0.0,0.0,0.0,0.0,0.0,0.0,0.0,0.0,0.0,0.0,0.0,0.0,0.0,0.0,0.0,0.0,0.0,0.0,0.0,0.0,0.0,0.0,0.0,0.0,0.0,0.0,0.0,0.0,0.0,0.0,3.0852,2.7211,2.58,2.5621,2.6759,2.9888,3.1964,0.0,0.0,0.0,0.0,0.0,0.0,0.0,0.0,0.0,0.0,0.0,0.0,0.0,0.0,0.0,0.0,0.0,0.0,0.0,0.0,0.0,0.0,0.0,0.0,0.0,0.0,0.0,0.0,0.0,0.0,0.0,0.0,0.0,0.0,0.0,0.0,0.0,0.0,0.0,0.0,0.0,0.0,0.0,0.0,0.0,0.0,0.0,0.0,0.0,0.0,0.0,0.0,0.0,0.0,0.0,0.0,0.0,0.0,0.0,0.0,0.0,0.0,0.0,0.0,0.0,0.0,0.0,0.0,0.0,0.0,0.0,0.0,0.0,0.0,0.0,0.0,0.0,0.0,0.0,0.0,0.0,0.0,0.0,0.0,0.0,0.0,0.0,0.0,0.0,0.0,0.0,0.0,0.0,0.0,0.0,0.0,0.0,0.0,0.0,0.0,0.0,0.0,0.0,0.0,0.0,0.0,0.0,0.0,2.8424,2.3435,2.182,2.0909,2.0587,2.6396,3.0524,0.0,0.0,0.0,0.0,0.0,0.0,0.0,0.0,0.0,0.0,0.0,0.0,0.0,0.0,0.0,0.0,0.0,0.0,0.0,0.0,0.0,0.0,0.0,0.0,0.0,0.0,0.0,0.0,0.0,0.0,0.0,0.0,0.0,0.0,0.0,0.0,0.0,0.0,0.0,0.0,0.0,0.0,0.0,0.0,0.0,0.0,0.0,0.0,3.3548,0.0,0.0,0.0,0.0,0.0,0.0,0.0,0.0,0.0,0.0,0.0,0.0,0.0,0.0,0.0,0.0,0.0,0.0,0.0,0.0,0.0,0.0,0.0,0.0,0.0,0.0,0.0,0.0,0.0,0.0,0.0,0.0,0.0,0.0,0.0,0.0,0.0,0.0,0.0,0.0,0.0,0.0,0.0,0.0,0.0,0.0,0.0,0.0,0.0,0.0,0.0,0.0,0.0,0.0,0.0,0.0,0.0,0.0,0.0,2.5424,2.079,1.8629,1.7423,1.7199,2.0928,2.5131,0.0,0.0,0.0,0.0,0.0,0.0,0.0,0.0,0.0,0.0,0.0,0.0,0.0,0.0,0.0,0.0,0.0,0.0,0.0,0.0,0.0,0.0,0.0,0.0,0.0,0.0,0.0,0.0,0.0,0.0,0.0,0.0,0.0,0.0,0.0,0.0,0.0,0.0,0.0,0.0,0.0,0.0,0.0,0.0,0.0,0.0,0.0,0.0,0.0,0.0,0.0,0.0,0.0,0.0,0.0,0.0,0.0,0.0,0.0,0.0,0.0,0.0,0.0,0.0,0.0,0.0,0.0,0.0,0.0,0.0,0.0,0.0,0.0,0.0,0.0,0.0,0.0,0.0,0.0,0.0,0.0,0.0,0.0,0.0,0.0,0.0,0.0,0.0,0.0,0.0,0.0,0.0,0.0,0.0,0.0,0.0,0.0,0.0,0.0,0.0,0.0,0.0,0.0,0.0,0.0,0.0,0.0,2.5748,2.2329,1.8203,1.5629,1.4317,1.4118,1.515,1.8669,2.495,0.0,0.0,0.0,0.0,0.0,0.0,0.0,0.0,0.0,0.0,0.0,0.0,0.0,0.0,0.0,0.0,0.0,0.0,0.0,0.0,0.0,0.0,0.0,0.0,0.0,0.0,0.0,0.0,0.0,0.0,0.0,0.0,0.0,0.0,0.0,0.0,0.0,0.0,3.4704,3.3955,0.0,0.0,0.0,0.0,0.0,0.0,0.0,0.0,3.1419,0.0,0.0,0.0,0.0,0.0,0.0,0.0,0.0,0.0,0.0,0.0,0.0,0.0,0.0,0.0,0.0,0.0,0.0,0.0,0.0,0.0,0.0,0.0,0.0,0.0,0.0,0.0,0.0,0.0,0.0,0.0,0.0,0.0,0.0,0.0,0.0,0.0,0.0,0.0,0.0,0.0,0.0,0.0,0.0,0.0,0.0,0.0,0.0,0.0,0.0,0.0,0.0,0.0,0.0,0.0,0.0,2.7987,2.4733,2.0155,1.4185,1.2079,1.0449,0.9354,1.1258,1.4701,1.9497,0.0,0.0,0.0,0.0,0.0,0.0,0.0,0.0,0.0,0.0,0.0,0.0,0.0,0.0,0.0,0.0,0.0,0.0,0.0,0.0,0.0,0.0,0.0,0.0,0.0,0.0,0.0,0.0,0.0,0.0,0.0,0.0,0.0,0.0,0.0,0.0,0.0,0.0,0.0,3.1833,3.1891,0.0,0.0,0.0,0.0,0.0,0.0,0.0,0.0,2.8117,0.0,0.0,0.0,0.0,0.0,0.0,0.0,0.0,0.0,0.0,0.0,0.0,0.0,0.0,0.0,0.0,0.0,0.0,0.0,0.0,0.0,0.0,0.0,0.0,0.0,0.0,0.0,0.0,0.0,0.0,0.0,0.0,0.0,0.0,0.0,0.0,0.0,0.0,0.0,0.0,0.0,0.0,0.0,0.0,0.0,0.0,0.0,0.0,0.0,0.0,0.0,0.0,0.0,0.0,0.0,2.6166,2.0923,1.6358,1.2512,0.9414,0.7397,0.6727,0.7548,1.0891,0.0,0.0,0.0,0.0,0.0,0.0,0.0,0.0,0.0,0.0,0.0,0.0,0.0,0.0,0.0,0.0,0.0,0.0,0.0,0.0,0.0,0.0,0.0,0.0,0.0,0.0,0.0,0.0,0.0,0.0,0.0,0.0,0.0,0.0,0.0,0.0,0.0,0.0,0.0,0.0,3.0209,2.967,2.8651,0.0,0.0,0.0,0.0,0.0,0.0,2.497,2.4435,0.0,0.0,0.0,0.0,0.0,0.0,0.0,0.0,0.0,0.0,0.0,0.0,0.0,0.0,0.0,0.0,0.0,0.0,0.0,0.0,0.0,0.0,0.0,0.0,0.0,0.0,0.0,0.0,0.0,0.0,0.0,0.0,0.0,0.0,0.0,0.0,0.0,0.0,0.0,0.0,0.0,0.0,0.0,0.0,0.0,0.0,0.0,0.0,0.0,0.0,0.0,0.0,0.0,0.0,0.0,2.412,1.7441,1.2901,1.0781,0.7108,0.4985,0.4625,0.5175,0.8509,0.0,0.0,0.0,0.0,0.0,0.0,0.0,0.0,0.0,0.0,0.0,0.0,0.0,0.0,0.0,0.0,0.0,0.0,0.0,0.0,0.0,0.0,0.0,0.0,0.0,0.0,0.0,0.0,0.0,0.0,0.0,0.0,0.0,0.0,0.0,0.0,0.0,0.0,0.0,0.0,0.0,2.7258,2.6111,2.6231,0.0,0.0,0.0,0.0,2.1667,2.0453,0.0,0.0,0.0,0.0,0.0,0.0,0.0,0.0,0.0,0.0,0.0,0.0,0.0,0.0,0.0,0.0,0.0,0.0,0.0,0.0,0.0,0.0,0.0,0.0,0.0,0.0,0.0,0.0,0.0,0.0,0.0,0.0,0.0,0.0,0.0,0.0,0.0,0.0,0.0,0.0,0.0,0.0,0.0,0.0,0.0,0.0,0.0,0.0,0.0,0.0,0.0,0.0,0.0,0.0,0.0,0.0,2.2193,1.6788,1.1704,0.7253,0.4912,0.3317,0.2322,0.5874,0.9536,0.0,0.0,0.0,0.0,0.0,0.0,0.0,0.0,0.0,0.0,0.0,0.0,0.0,0.0,0.0,0.0,0.0,0.0,0.0,0.0,0.0,0.0,0.0,0.0,0.0,0.0,0.0,0.0,0.0,0.0,0.0,0.0,0.0,0.0,0.0,0.0,0.0,0.0,0.0,0.0,0.0,2.4807,2.3292,2.3191,2.2416,0.0,0.0,1.8667,1.4462,1.3576,0.0,0.0,0.0,0.0,0.0,0.0,0.0,0.0,0.0,0.0,0.0,0.0,0.0,0.0,0.0,0.0,0.0,0.0,0.0,0.0,0.0,0.0,0.0,0.0,0.0,0.0,0.0,0.0,0.0,0.0,0.0,0.0,0.0,0.0,0.0,0.0,0.0,0.0,0.0,0.0,0.0,0.0,0.0,0.0,0.0,0.0,0.0,0.0,0.0,0.0,0.0,0.0,0.0,0.0,0.0,2.397,2.1311,1.4758,0.9698,0.6489,0.4244,0.2447,0.1254,0.4931,0.8932,0.0,0.0,0.0,0.0,0.0,0.0,0.0,0.0,0.0,0.0,0.0,0.0,0.0,0.0,0.0,0.0,0.0,0.0,0.0,0.0,0.0,0.0,0.0,0.0,0.0,0.0,0.0,0.0,0.0,0.0,0.0,0.0,0.0,0.0,0.0,0.0,0.0,0.0,0.0,0.0,0.0,0.0,2.0805,1.8968,0.0,0.0,0.0,1.2899,1.0779,0.0,0.0,0.0,0.0,0.0,0.0,0.0,0.0,0.0,0.0,0.0,0.0,0.0,0.0,0.0,0.0,0.0,0.0,0.0,0.0,0.0,0.0,0.0,0.0,0.0,0.0,0.0,0.0,0.0,0.0,0.0,0.0,0.0,0.0,0.0,0.0,0.0,0.0,0.0,0.0,0.0,0.0,0.0,0.0,0.0,0.0,0.0,0.0,0.0,0.0,0.0,0.0,0.0,0.0,0.0,0.0,0.0,2.0336,1.3085,0.8278,0.6233,0.3899,0.2093,0.0985,0.4261,0.0,0.0,0.0,0.0,0.0,0.0,0.0,0.0,0.0,0.0,0.0,0.0,0.0,0.0,0.0,0.0,0.0,0.0,0.0,0.0,0.0,0.0,0.0,0.0,0.0,0.0,0.0,3.2109,0.0,0.0,0.0,0.0,0.0,0.0,0.0,0.0,0.0,0.0,0.0,0.0,0.0,0.0,2.0149,1.8458,1.5389,1.2606,0.0,0.0,0.7961,0.6991,0.5089,0.4019,0.0,0.0,0.0,0.0,0.0,0.0,0.0,0.0,0.0,0.0,0.0,0.0,0.0,0.0,0.0,0.0,0.0,0.0,0.0,0.0,0.0,0.0,0.0,0.0,0.0,0.0,0.0,0.0,0.0,0.0,0.0,0.0,0.0,0.0,0.0,0.0,0.0,0.0,0.0,0.0,0.0,0.0,0.0,0.0,0.0,0.0,0.0,0.0,0.0,0.0,0.0,0.0,0.0,0.0,2.1135,1.8516,1.2382,0.8082,0.5791,0.3849,0.2422,0.1431,0.452,0.8005,0.0,0.0,0.0,0.0,0.0,0.0,0.0,0.0,0.0,0.0,0.0,0.0,0.0,0.0,0.0,0.0,0.0,0.0,0.0,0.0,0.0,0.0,0.0,0.0,0.0,0.0,0.0,0.0,0.0,0.0,0.0,0.0,0.0,0.0,0.0,0.0,0.0,0.0,0.0,0.0,0.0,1.7933,1.6185,1.3037,0.9952,0.0,0.0,0.4713,0.1752,0.0088,-0.1048,-0.1414,0.0,0.0,0.0,0.0,0.0,0.0,0.0,0.0,0.0,0.0,0.0,0.0,0.0,0.0,0.0,0.0,0.0,0.0,0.0,0.0,0.0,0.0,0.0,0.0,0.0,0.0,0.0,0.0,0.0,0.0,0.0,0.0,0.0,0.0,0.0,0.0,0.0,0.0,0.0,0.0,0.0,0.0,0.0,0.0,0.0,0.0,0.0,0.0,0.0,0.0,0.0,0.0,0.0,2.0216,1.8016,1.2077,0.7819,0.5354,0.4166,0.2903,0.1434,0.4979,0.8688,0.0,0.0,0.0,0.0,0.0,0.0,0.0,0.0,0.0,0.0,0.0,0.0,0.0,0.0,0.0,0.0,0.0,0.0,0.0,0.0,0.0,0.0,0.0,0.0,0.0,0.0,0.0,0.0,3.2397,3.2477,3.2353,0.0,0.0,0.0,0.0,0.0,0.0,0.0,0.0,0.0,0.0,1.5761,1.3144,0.9356,0.0,0.0,0.2876,0.0967,-0.0544,-0.1963,-0.3056,-0.377,-0.2889,0.0,0.0,0.0,0.0,0.0,0.0,0.0,0.0,0.0,0.0,0.0,0.0,0.0,0.0,0.0,0.0,0.0,0.0,0.0,0.0,0.0,0.0,0.0,0.0,0.0,0.0,0.0,0.0,0.0,0.0,0.0,0.0,0.0,0.0,0.0,0.0,0.0,0.0,0.0,0.0,0.0,0.0,0.0,0.0,0.0,0.0,0.0,0.0,0.0,0.0,0.0,0.0,1.9624,1.7783,1.2158,0.8082,0.5768,0.4878,0.3793,0.2555,0.4689,0.7768,0.0,0.0,0.0,0.0,0.0,0.0,0.0,0.0,0.0,0.0,0.0,0.0,0.0,0.0,0.0,0.0,0.0,0.0,0.0,0.0,0.0,0.0,0.0,0.0,0.0,0.0,0.0,0.0,3.1968,3.2003,3.1514,0.0,0.0,0.0,0.0,0.0,0.0,0.0,0.0,0.0,0.0,1.3781,1.1272,0.7279,0.4411,0.3833,0.1112,-0.0999,-0.1659,-0.3136,-0.4541,-0.5454,0.0,0.0,0.0,0.0,0.0,0.0,0.0,0.0,0.0,0.0,0.0,0.0,0.0,0.0,0.0,0.0,0.0,0.0,0.0,0.0,0.0,0.0,0.0,0.0,0.0,0.0,0.0,0.0,0.0,0.0,3.3398,0.0,0.0,0.0,0.0,0.0,0.0,0.0,0.0,0.0,0.0,0.0,0.0,0.0,0.0,0.0,0.0,0.0,0.0,0.0,0.0,0.0,0.0,1.9576,1.777,1.253,0.907,0.7363,0.6103,0.5218,0.4836,0.357,0.4759,0.9025,0.0,0.0,0.0,0.0,0.0,0.0,0.0,0.0,0.0,0.0,0.0,0.0,0.0,0.0,0.0,0.0,0.0,0.0,0.0,0.0,0.0,0.0,0.0,0.0,0.0,0.0,3.003,3.0733,3.118,0.0,0.0,0.0,0.0,0.0,0.0,0.0,0.0,0.0,0.0,1.579,1.201,1.0828,0.755,0.4787,0.3712,0.1415,-0.0552,-0.1659,-0.3798,-0.5753,0.0,0.0,0.0,0.0,0.0,0.0,0.0,0.0,0.0,0.0,0.0,0.0,0.0,0.0,0.0,0.0,0.0,0.0,0.0,0.0,0.0,0.0,0.0,0.0,0.0,0.0,0.0,3.4738,3.4602,0.0,0.0,0.0,0.0,0.0,0.0,0.0,0.0,0.0,0.0,0.0,3.0178,3.0563,0.0,0.0,0.0,0.0,0.0,0.0,0.0,0.0,0.0,0.0,0.0,0.0,1.9748,1.8147,1.2909,0.9345,0.7902,0.7123,0.6441,0.5795,0.532,0.675,1.0284,0.0,0.0,0.0,0.0,0.0,0.0,0.0,0.0,0.0,0.0,0.0,0.0,0.0,0.0,0.0,0.0,0.0,0.0,0.0,0.0,0.0,0.0,0.0,0.0,0.0,2.8375,0.0,0.0,0.0,0.0,0.0,0.0,0.0,0.0,0.0,0.0,0.0,1.9598,1.724,1.3959,1.101,0.9209,0.6253,0.392,0.0,0.0,0.0,0.0,0.0,0.0,0.0,0.0,0.0,0.0,0.0,0.0,0.0,0.0,-0.5408,-0.1287,0.1719,0.4094,0.571,0.0,0.0,0.0,0.0,0.0,0.0,0.0,0.0,0.0,0.0,0.0,0.0,0.0,0.0,3.4441,0.0,3.4656,0.0,0.0,0.0,0.0,0.0,0.0,0.0,0.0,3.0024,2.9268,2.9234,2.9549,2.9399,0.0,2.8752,2.9642,0.0,0.0,0.0,0.0,0.0,0.0,0.0,0.0,2.0206,1.8881,1.382,1.0324,0.8894,0.8483,0.7839,0.6994,0.6936,0.7773,0.9746,1.3889,1.7193,0.0,0.0,0.0,0.0,0.0,0.0,0.0,0.0,0.0,0.0,0.0,0.0,0.0,0.0,0.0,0.0,0.0,0.0,0.0,0.0,0.0,0.0,0.0,2.716,0.0,0.0,0.0,0.0,0.0,0.0,0.0,0.0,0.0,2.2319,2.0008,1.7564,1.566,1.2739,1.0152,0.8444,0.0,0.0,0.0,0.0,0.0,0.0,0.0,-0.5535,-0.7545,-0.9243,-1.1271,-1.4211,-1.6734,-1.8236,-1.7704,0.0,0.0,-0.8673,-0.5419,-0.288,-0.0918,0.145,0.3882,0.5949,0.7741,0.9253,0.0,0.0,0.0,0.0,0.0,0.0,0.0,0.0,3.3084,3.3494,0.0,3.444,0.0,0.0,0.0,0.0,0.0,3.2556,0.0,0.0,2.9271,2.8363,2.924,2.9227,2.8856,2.8183,2.9072,2.9266,2.8612,2.7578,0.0,0.0,0.0,0.0,0.0,0.0,2.0792,1.979,1.5041,1.1844,1.0343,1.0068,0.9502,0.8549,0.8211,0.7815,0.7625,1.1911,1.4302,1.423,2.0939,0.0,0.0,0.0,0.0,0.0,0.0,0.0,0.0,0.0,0.0,0.0,0.0,0.0,0.0,0.0,0.0,0.0,0.0,0.0,0.0,2.6625,0.0,0.0,0.0,0.0,0.0,0.0,0.0,0.0,0.0,0.0,2.0948,1.8342,1.6167,1.5504,0.0,0.0,0.0,0.0,0.5339,0.3424,0.2109,0.052,-0.2085,-0.5257,-0.8202,-1.0444,0.0,0.0,-1.7629,-1.938,-1.9934,-1.8455,-1.8048,-1.708,-1.3352,-1.007,-0.7434,-0.5542,-0.3997,-0.2685,-0.1071,0.0969,0.2323,3.5332,0.0,0.0,0.0,0.0,3.5609,3.5466,3.5286,3.5085,3.5012,3.501,3.4953,0.0,0.0,0.0,0.0,0.0,0.0,3.2201,3.0732,2.9822,2.9121,2.846,2.829,2.8116,2.7868,2.67,2.6044,2.5792,2.3993,2.5111,2.8884,0.0,0.0,0.0,0.0,2.1234,1.8563,1.4965,1.2903,1.2374,1.1501,1.0734,0.9903,0.9994,0.9741,0.926,1.1204,1.332,1.5418,1.8474,0.0,0.0,0.0,0.0,0.0,0.0,0.0,0.0,0.0,0.0,0.0,0.0,0.0,0.0,0.0,0.0,0.0,0.0,0.0,2.4767,2.4981,2.5064,0.0,0.0,0.0,0.0,0.0,0.0,0.0,0.0,0.0,1.8884,1.673,1.4902,0.0,0.0,0.9479,0.8023,0.6042,0.3981,0.1921,0.0,0.0,0.0,-0.6174,-0.8058,-1.0228,-1.3705,-1.6435,-1.7138,-1.8788,-1.9799,-1.8813,-1.7717,-1.609,-1.3924,-1.2439,-1.0945,-0.9278,-0.7946,-0.6264,-0.3755,-0.204,-0.0492,3.7112,3.6661,3.6422,3.6401,3.6545,3.6359,3.6122,3.5822,3.5703,3.5497,3.5267,3.5225,3.4907,3.4496,3.4797,0.0,0.0,0.0,3.2245,3.0398,3.0203,2.9474,2.8448,2.8263,2.8076,2.7705,2.6315,2.5414,2.5135,2.4292,2.5113,2.7387,0.0,0.0,2.5915,2.3779,2.142,1.8984,1.6299,1.4568,1.4046,1.3047,1.2259,1.1796,1.2018,1.2015,1.1574,1.2337,1.3886,1.632,1.8306,2.1174,0.0,0.0,0.0,0.0,0.0,0.0,0.0,0.0,0.0,0.0,0.0,3.0991,3.0376,0.0,0.0,0.0,2.7049,2.5457,2.381,2.4276,0.0,0.0,0.0,0.0,0.0,0.0,0.0,2.0505,1.9716,1.9039,1.7999,1.6271,1.4838,1.4256,1.1897,0.9675,0.8136,0.0,0.3335,0.1094,-0.0361,-0.2332,-0.5369,-0.7132,-0.9167,-1.2151,-1.556,-1.7602,-1.7404,-1.8887,-1.9635,-1.8345,-1.6985,-1.5442,-1.3592,-1.2843,-1.2088,-1.0627,-0.9508,-0.795,-0.571,-0.3954,-0.235,3.9311,3.9197,3.7344,3.6591,3.6559,3.6513,3.586,3.4952,3.5472,3.5337,3.4754,3.5295,3.4996,3.4171,3.4802,0.0,3.3171,3.3301,3.2428,3.0895,3.0432,2.972,2.9013,2.9001,2.865,2.8002,2.7322,2.6609,2.597,2.6901,2.6681,2.5191,2.418,2.4123,2.5015,2.3348,2.1822,2.0617,1.8668,1.6843,1.539,1.4643,1.4054,1.3873,1.4211,1.4346,1.421,1.4685,1.571,1.7084,1.9722,2.1998,2.3881,0.0,0.0,0.0,0.0,0.0,0.0,0.0,0.0,0.0,0.0,0.0,0.0,0.0,0.0,2.8196,2.6396,0.0,2.3941,2.4426,0.0,0.0,0.0,2.4295,2.4147,2.3598,2.2676,2.107,0.0,0.0,1.8064,0.0,1.5729,1.5455,1.2571,0.9891,0.8497,0.5829,0.3171,0.0721,-0.0971,-0.2961,-0.6138,-0.8521,-1.1375,-1.498,-1.8013,-1.8903,-1.8021,-1.8909,-1.9138,-1.7237,-1.5988,-1.471,-1.282,-1.1905,-1.1203,-1.0297,-0.9487,-0.8491,-0.7152,-0.5284,-0.3587,4.0224,4.0545,3.9578,3.8882,3.85,3.7929,3.7569,3.7322,3.7038,3.6764,3.6562,3.5754,3.5016,3.4346,3.4506,3.4037,3.3227,3.3213,3.2499,3.1132,3.0833,3.0405,2.9796,2.9668,2.9592,2.9492,2.8218,2.7541,2.7464,2.6641,2.6375,2.6602,2.6113,2.5742,2.5493,2.5315,2.4105,2.198,2.1445,1.9904,1.7336,1.6558,1.5715,1.4895,1.5548,1.5815,1.5576,1.6944,1.7817,1.8239,2.033,2.2546,2.4611,2.7117,0.0,0.0,0.0,0.0,0.0,0.0,0.0,0.0,0.0,3.1101,3.0335,0.0,2.8545,0.0,2.7041,2.5879,2.4859,2.5215,0.0,0.0,2.4491,2.4346,2.4427,2.4072,2.3103,2.1412,2.1503,2.0934,1.9196,1.7683,1.6562,1.6028,1.2997,0.9994,0.7517,0.5317,0.2956,0.0183,-0.2299,-0.4991,-0.8336,-1.1684,-1.4144,-1.5551,-1.6727,-1.7359,-1.7277,-1.726,-1.6871,-1.5442,-1.3629,-1.2082,-1.1055,-1.0258,-0.9803,-0.9442,-0.9559,-0.9201,-0.7316,-0.5587,-0.4266,4.1213,4.1482,4.0829,4.035,3.9973,3.9059,3.8478,3.8188,3.7854,3.7623,3.7346,3.6134,3.5215,3.4563,3.4563,3.4264,3.3742,3.3451,3.2818,3.1736,3.1341,3.0859,3.0228,3.0075,3.0164,3.0216,2.9338,2.8882,2.8639,2.7717,2.7239,2.7143,2.6247,2.6071,2.6662,2.6992,2.6368,2.4715,2.3619,2.1835,1.9324,1.8795,1.8721,1.8976,1.9448,2.0042,2.0722,2.1737,2.2595,2.3323,2.4299,2.5672,2.7566,2.9135,3.063,0.0,0.0,0.0,0.0,0.0,0.0,0.0,0.0,0.0,0.0,0.0,2.9318,2.851,2.787,2.7076,2.612,2.6222,2.6298,2.6157,2.5524,2.5175,2.5283,2.4973,2.419,2.274,2.2502,2.187,2.0297,1.8741,1.7445,1.6532,1.377,1.0862,0.7884,0.5275,0.2361,-0.0662,-0.3284,-0.6305,-1.0064,-1.297,-1.493,-1.5369,-1.6229,-1.6675,-1.6029,-1.5952,-1.5419,-1.3692,-1.2088,-1.0813,-1.0005,-0.9576,-0.9243,-0.9006,-0.8882,-0.8371,-0.706,-0.5706,-0.4649,4.2175,4.2117,4.1549,4.1244,4.1084,3.9891,3.9062,3.8539,3.8524,3.8148,3.7564,3.6501,3.556,3.4698,3.4765,3.4616,3.4414,3.3962,3.3339,3.2489,3.1955,3.1233,3.052,3.0444,3.0444,3.0444,3.0432,3.0126,2.9574,2.9328,2.8746,2.7717,2.6325,2.6653,2.85,2.8836,2.8599,2.7901,2.558,2.3412,2.1626,2.1742,2.2526,2.4071,2.432,2.5204,2.6844,2.7155,2.7931,2.9236,2.9131,2.9656,3.0883,3.2004,3.2522,0.0,3.3848,0.0,0.0,0.0,0.0,0.0,0.0,0.0,0.0,3.1186,3.0732,2.9101,2.8807,2.8374,2.7579,2.7573,2.7538,2.7651,2.7009,2.6539,2.6557,2.6274,2.5622,2.4509,2.3567,2.2484,2.1407,1.9957,1.8362,1.6901,1.454,1.1813,0.889,0.546,0.2028,-0.1163,-0.4122,-0.7603,-1.1192,-1.3385,-1.4664,-1.5166,-1.5816,-1.609,-1.4572,-1.4554,-1.4104,-1.1869,-1.0699,-1.0028,-0.9236,-0.9055,-0.8912,-0.8499,-0.7774,-0.7107,-0.6559,-0.5524,-0.5112,4.2622,4.2607,4.2475,4.2041,4.1498,4.0827,4.0367,4.011,4.025,3.937,3.7839,3.7057,3.604,3.4898,3.4868,3.4883,3.4802,3.4721,3.4113,3.3129,3.2704,3.1909,3.0898,3.052,3.052,3.0622,3.0457,3.0457,3.0457,3.0292,3.0493,3.1143,3.052,3.0685,3.1695,0.0,0.0,0.0,2.7263,2.5902,2.5721,2.6371,2.6827,2.7037,2.7532,0.0,2.8107,2.8812,2.9426,2.9971,3.0549,0.0,0.0,0.0,0.0,0.0,0.0,0.0,0.0,0.0,0.0,0.0,3.3202,3.3068,3.2277,3.2037,3.1394,3.0335,2.9714,2.9412,2.9344,2.897,2.8943,2.9487,2.8946,2.8458,2.821,2.725,2.6351,2.5622,2.4714,2.3793,2.2719,2.104,1.9236,1.7799,1.48,1.2003,0.9797,0.6239,0.2745,-0.0466,-0.534,-0.9584,-1.2009,-1.3633,-1.4643,-1.5228,-1.4977,-1.458,-1.3872,-1.25,-1.1263,-0.9609,-0.825,-0.7554,-0.7816,-0.757,-0.7247,-0.7204,-0.6412,-0.5733,-0.5761,-0.5064,-0.4747,4.2688,0.0,4.2688,4.232,0.0,4.1455,4.1145,4.0757,4.0079,3.8959,3.7523,3.7238,3.6363,3.5096,3.5591,3.5725,3.5689,3.6186,3.5739,3.4448,3.3959,3.3153,3.2028,3.1616,3.1603,3.1882,3.1603,3.1468,3.1482,3.1198,3.1259,3.1676,3.0929,3.0831,3.1285,3.0921,3.0353,2.9656,2.886,2.7905,2.6886,2.7596,2.8322,2.9211,0.0,0.0,0.0,0.0,0.0,0.0,0.0,0.0,0.0,0.0,0.0,3.3223,3.3565,3.3776,3.39,3.422,3.4433,3.445,3.4825,3.4696,3.3789,3.3274,3.2856,3.2408,3.1927,3.1539,3.136,3.0792,3.0493,3.0827,2.9973,2.9283,2.8855,2.8056,2.714,2.6181,2.5142,2.4084,2.3165,2.1611,1.992,1.8352,1.6027,1.3225,1.0209,0.6635,0.2773,-0.1813,-0.616,-0.9812,-1.166,-1.2869,-1.3802,-1.4132,-1.3394,-1.2514,-1.1933,-1.031,-0.8586,-0.7431,-0.6486,-0.6191,-0.6312,-0.6183,-0.5989,-0.5781,-0.5056,-0.4194,-0.3858,-0.3919,-0.4668,4.285,4.2754,4.2731,4.2296,4.1794,4.1778,4.1394,4.0754,0.0,0.0,0.0,3.7396,3.6619,3.5389,3.621,3.6516,3.6415,3.7192,3.6835,3.5424,3.4998,3.4254,3.3227,3.2818,3.2832,3.3143,3.2747,3.2561,3.2547,3.2069,3.179,3.1576,3.0731,3.0277,3.0316,2.9476,2.9142,2.9424,3.0202,2.9655,2.774,2.8421,2.9694,3.1303,3.1303,3.214,3.3919,3.4109,3.4245,3.4499,3.4795,3.4942,3.481,3.4861,3.4861,3.4691,3.4727,3.4884,3.5201,3.5462,3.574,3.6112,3.6404,3.6175,3.5217,3.473,3.4446,3.4407,3.4005,3.3572,3.3116,3.229,3.1877,3.1949,3.0838,2.9896,2.944,2.8627,2.764,2.6541,2.5289,2.4175,2.3381,2.2008,2.0624,1.8939,1.7157,1.4528,1.0341,0.6277,0.1904,-0.3126,-0.6219,-0.8595,-1.0524,-1.1423,-1.2026,-1.2312,-1.1193,-0.9902,-0.9014,-0.767,-0.6201,-0.4941,-0.4921,-0.4819,-0.4719,-0.4641,-0.4627,-0.4143,-0.3519,-0.2677,-0.1835,-0.285,-0.4427,4.325,4.3205,4.2652,4.2369,4.2204,4.1069,4.0366,3.9941,4.0083,3.9427,3.8227,3.7796,3.6887,3.5638,3.5937,3.5967,3.5823,3.5978,3.5559,0.0,3.4645,3.4196,3.3506,3.3367,3.3297,3.3227,3.3157,3.3087,3.3087,3.3017,3.2946,3.2932,3.2778,3.2409,3.1802,3.0877,3.0364,3.0126,3.0706,3.0979,3.0803,3.2352,3.338,3.3779,3.3711,3.4066,3.4728,3.4758,3.4942,3.5255,3.5335,3.5059,3.4461,3.4356,3.4085,3.3827,3.4143,3.4555,3.4867,3.5869,3.6756,3.7282,3.7363,3.7147,3.647,3.6039,3.5588,3.5251,3.4472,3.3878,3.3752,3.3014,3.2671,3.3023,3.2249,3.1307,3.0451,2.9155,2.7895,2.672,2.5205,2.4337,2.3974,2.2552,2.1125,2.0083,1.7614,1.425,0.9653,0.4718,0.0714,-0.2674,-0.4714,-0.6477,-0.8297,-0.9136,-0.9386,-0.9419,-0.8459,-0.7272,-0.6309,-0.4883,-0.3654,-0.2854,-0.2639,-0.2608,-0.2674,-0.2734,-0.2422,-0.1863,-0.1547,-0.1238,-0.0796,-0.2401,-0.423,4.445,4.4357,4.3861,4.3353,4.2921,4.158,4.0893,4.0715,4.0924,4.0317,3.9176,3.882,3.7957,3.6888,3.7062,3.7015,3.6712,3.7272,3.7048,3.6165,3.5857,3.5385,3.489,3.4528,3.4528,3.4662,3.4394,3.4274,3.4259,3.3973,3.3837,3.3837,3.3822,3.3445,3.2721,3.2556,3.2193,3.17,3.1489,3.1281,3.1154,3.216,3.2832,3.3073,3.303,3.3353,3.403,3.4115,3.4241,3.4574,3.5074,3.5157,3.4727,3.4849,3.5107,3.5525,3.5467,3.5729,3.6372,3.7083,3.7748,3.8188,3.8277,3.8113,3.7749,3.6978,3.6443,3.6125,3.5532,3.5102,3.4794,3.3958,3.3455,3.3517,3.2685,3.1924,3.1435,3.0147,2.875,2.7551,2.6052,2.4906,2.4346,2.2746,2.1415,2.0546,1.7568,1.3767,1.0444,0.688,0.2924,-0.0977,-0.3024,-0.4685,-0.6557,-0.6744,-0.6681,-0.6827,-0.5616,-0.4568,-0.3722,-0.259,-0.1662,-0.1485,-0.1214,-0.1196,-0.1507,-0.0915,-0.0443,-0.0289,-0.0072,0.0071,-0.035,-0.2761,-0.5852,4.5478,4.5416,4.4867,4.4164,4.3348,4.2404,4.1865,4.1656,4.1965,4.1533,4.0607,4.0024,3.914,3.8091,3.8199,3.7997,3.7607,3.8151,3.8041,3.7307,3.6831,3.6429,3.6131,3.5721,3.577,3.6022,3.5752,3.5559,3.5365,3.4927,3.4662,3.4647,3.4581,3.4251,3.3652,3.3917,3.3797,3.3231,3.2569,3.1969,3.1476,3.1836,3.2141,3.22,3.2141,3.2586,3.3661,3.3789,3.4036,3.4596,3.528,3.5683,3.5546,3.5717,3.6212,3.7103,3.6933,3.7165,3.8154,3.8472,3.8694,3.8987,3.906,3.8987,3.8694,3.8008,3.7366,3.6943,3.6615,3.6207,3.5549,3.4837,3.4245,3.3624,3.2814,3.2255,3.1969,3.0864,2.9619,2.8366,2.6858,2.5526,2.4533,2.3191,2.1897,2.0478,1.7388,1.4351,1.2228,0.9656,0.5987,0.2468,-0.0353,-0.2195,-0.4134,-0.3823,-0.3461,-0.3705,-0.2383,-0.1303,-0.082,-0.0082,0.0326,0.0406,0.024,0.0394,0.0233,0.0824,0.1587,0.1833,0.174,0.103,-0.0672,-0.4101,-0.7827,4.5697,4.5586,4.5009,4.3933,4.2881,4.3412,4.3056,4.2237,4.3323,4.3545,4.2774,4.1494,4.0064,3.8766,3.867,3.8157,3.7275,3.6894,3.6739,3.6677,3.6521,3.6475,3.6538,3.6921,3.686,3.6383,3.6538,3.6477,3.6022,3.5894,3.5816,3.5831,3.5464,3.521,3.4955,3.4537,3.4283,3.4143,3.4283,3.3905,3.3073,3.3213,3.3101,3.2618,3.2632,3.3266,3.4668,3.488,3.5505,3.652,3.7001,3.7222,3.6966,3.6567,3.6723,3.7654,3.7669,3.8213,3.9491,3.9718,3.9748,3.9834,3.9819,3.9763,3.955,3.9406,3.8752,3.7658,3.7056,3.6592,3.5844,3.5203,3.4474,3.3702,3.3076,3.2403,3.1756,3.0924,2.9922,2.8524,2.7366,2.6189,2.5503,2.4348,2.2861,2.0874,1.8638,1.6448,1.4691,1.2064,0.9561,0.717,0.4348,0.1557,0.0,0.0166,0.049,0.0731,0.1535,0.2175,0.2513,0.2713,0.2907,0.2638,0.2404,0.2361,0.289,0.3399,0.3516,0.3899,0.3209,0.1543,-0.2179,-0.5815,-0.9098,4.7118,4.7104,4.6552,4.5472,4.4273,4.4516,4.412,4.3339,4.3831,4.3964,4.3739,4.3155,4.1937,4.0186,3.9747,3.8801,3.746,3.7488,3.7385,3.7222,3.7429,3.7562,3.7621,3.778,3.7722,3.7472,3.7648,3.7589,3.7429,3.737,3.737,3.7294,3.6919,3.6661,3.6538,3.615,3.5928,3.5913,3.5991,3.5838,3.5503,3.4689,3.4472,3.4806,3.4766,3.5209,3.6182,3.6748,3.7327,3.7958,3.8472,3.8765,3.8727,3.8488,3.8908,4.0053,3.9967,4.0065,4.069,4.0432,4.0363,4.0721,4.0721,4.0653,4.0447,4.0309,3.9804,3.8767,3.8032,3.7125,3.5946,3.5234,3.4611,3.3931,3.3353,3.2917,3.2632,3.1883,3.0918,2.9557,2.8534,2.7493,2.6458,2.5181,2.3408,2.139,1.9769,1.855,1.6766,1.4518,1.2828,1.1543,0.9344,0.636,0.3686,0.3449,0.3865,0.401,0.4214,0.4661,0.5135,0.5116,0.4928,0.4745,0.4392,0.4157,0.4198,0.5008,0.5426,0.5292,0.3169,0.0531,-0.3292,-0.6784,-1.0115,4.8179,4.8175,4.7651,4.6659,4.5529,4.5387,4.4867,4.4303,4.4327,4.4327,4.4367,4.448,4.353,4.1949,4.0945,3.9722,3.8545,3.8359,3.8294,3.8067,3.8334,3.8446,3.8502,3.8668,3.8613,3.8502,3.8613,3.8557,3.8446,3.8446,3.8446,3.8334,3.8051,3.7879,3.7764,3.7433,3.721,3.7241,3.7382,3.7576,3.7729,3.6801,3.629,3.6364,3.6246,3.6626,3.7571,3.8402,3.8994,3.9467,3.9994,4.0315,4.0337,4.0185,4.0556,4.1533,4.1609,4.1541,4.1541,4.1127,4.106,4.1475,4.1541,4.1475,4.1343,4.1194,4.0774,4.0124,3.9282,3.8162,3.6372,3.5807,3.5241,3.4477,3.4031,3.3811,3.3742,3.3109,3.2136,3.076,2.9808,2.8731,2.7237,2.5869,2.4279,2.2774,2.1607,2.0546,1.8858,1.7291,1.5863,1.4889,1.3622,1.1157,0.7243,0.672,0.7141,0.6962,0.6953,0.7022,0.7211,0.7034,0.6969,0.6699,0.6394,0.6305,0.6291,0.6792,0.6378,0.4942,0.2852,-0.0066,-0.3743,-0.7404,-1.1291,4.8483,4.8383,4.7697,4.7005,4.6234,4.5807,4.5213,4.4614,4.4852,4.4978,4.4961,4.4978,4.4497,4.3622,4.2282,4.1183,4.0221,3.9122,3.8827,3.9028,3.8849,3.8849,3.9189,3.9575,3.9437,3.9032,3.9332,3.9262,3.8799,3.8854,3.8761,3.8574,3.8613,3.8557,3.8278,3.8042,3.7886,3.8014,3.8344,3.8988,3.9563,3.975,3.8592,3.694,3.649,3.7213,3.8396,3.9323,4.0224,4.1362,4.1672,4.1884,4.1771,4.131,4.1133,4.1229,4.1757,4.2093,4.2093,4.2093,4.2077,4.2093,4.2174,4.2093,4.2077,4.2093,4.1803,4.126,4.0923,3.9841,3.7873,3.7233,3.6574,3.5508,3.5285,3.5124,3.4824,3.4403,3.3437,3.1933,3.0793,2.955,2.7788,2.6501,2.5787,2.4897,2.3654,2.2264,2.1273,2.0053,1.8674,1.7415,1.6513,1.5229,1.1752,1.0371,1.0185,0.9868,0.9588,0.9578,0.9059,0.8675,0.8798,0.8571,0.8061,0.7955,0.8323,0.7848,0.6676,0.5156,0.3292,0.0261,-0.3918,-0.8329,-1.2233,4.909,4.9453,4.8675,4.806,4.7603,4.6896,4.6204,4.558,4.5631,4.5546,4.5441,4.5389,4.5075,4.4551,4.3639,4.2337,4.0889,4.0572,4.015,3.9661,3.9765,3.9935,4.0054,4.0221,4.0137,3.9969,4.0087,4.0087,3.9902,3.9919,3.9851,3.9765,3.9506,3.9332,3.9209,3.8903,3.8969,3.9362,3.924,3.9666,4.0841,4.0361,3.9882,3.9848,3.9598,3.9676,4.0135,4.0895,4.145,4.1916,4.2045,4.2125,4.2238,4.2421,4.2398,4.2199,4.2872,4.3262,4.308,4.3262,4.3306,4.3306,4.3141,4.308,4.3125,4.3003,4.2802,4.272,4.2668,4.1869,4.0665,3.8952,3.7456,3.6675,3.6268,3.5946,3.5529,3.5305,3.4669,3.2996,3.1493,3.0017,2.9104,2.8063,2.7206,2.6425,2.5493,2.4566,2.357,2.2487,2.1321,2.0285,1.9456,1.851,1.7084,1.4275,1.2868,1.2503,1.2218,1.2091,1.1723,1.136,1.1335,1.0623,0.9936,0.9243,0.9553,0.8487,0.7231,0.554,0.3605,0.0065,-0.4156,-0.86,-1.2655,4.9873,5.0133,4.942,4.8853,4.8345,4.7641,4.6917,4.6231,4.6262,4.6182,4.602,4.5938,4.5768,4.5545,4.5112,4.4025,4.2548,4.2001,4.1338,4.0694,4.0686,4.0728,4.071,4.0693,4.071,4.0693,4.071,4.071,4.071,4.071,4.0728,4.068,4.037,4.0204,4.0121,4.0001,4.0247,4.0565,4.0595,4.1194,4.2129,4.1683,4.1716,4.2442,4.2327,4.1971,4.1671,4.2259,4.2648,4.271,4.271,4.2772,4.2974,4.3366,4.3426,4.3262,4.3722,4.4013,4.3839,4.3956,4.4071,4.4071,4.3972,4.3898,4.3956,4.3764,4.3706,4.3689,4.3731,4.3498,4.2651,4.0707,3.8998,3.8273,3.7673,3.7144,3.6783,3.6615,3.56,3.3819,3.2212,3.1085,3.0315,2.9552,2.8771,2.7893,2.7366,2.6481,2.5644,2.4967,2.4061,2.3029,2.1965,2.118,1.9913,1.7794,1.5695,1.5047,1.4427,1.4395,1.4124,1.3772,1.33,1.2644,1.1871,1.1002,1.0105,0.9116,0.7673,0.5956,0.314,-0.0259,-0.4562,-0.8939,-1.3132,5.0697,5.0646,4.9925,4.9222,4.8549,4.789,4.7179,4.6666,4.6689,4.6817,4.6771,4.6554,4.6554,4.666,4.6353,4.6023,4.5149,4.3331,4.2367,4.2218,4.1551,4.1267,4.1237,4.1237,4.1255,4.1255,4.1192,4.1209,4.1192,4.1209,4.1134,4.1076,4.1047,4.0918,4.0871,4.1199,4.1527,4.1801,4.2532,4.3186,4.3474,4.3809,4.4041,4.4277,4.4221,4.3765,4.2839,4.3415,4.3781,4.3914,4.3914,4.3972,4.3898,4.4112,4.4186,4.4128,4.4226,4.4226,4.4226,4.4282,4.4339,4.4339,4.4378,4.4451,4.449,4.4434,4.4395,4.4339,4.4282,4.4175,4.386,4.2596,4.1216,4.0387,3.9397,3.8849,3.8635,3.8173,3.6843,3.4611,3.3297,3.2387,3.1571,3.0793,3.0182,2.9771,2.9024,2.8179,2.7604,2.7261,2.6629,2.5328,2.4242,2.3409,2.2298,2.1054,1.9177,1.7571,1.688,1.6417,1.5765,1.5329,1.4792,1.4128,1.2755,1.1927,1.0792,0.9627,0.7787,0.5856,0.2664,-0.0707,-0.5261,-0.9643,-1.3889,5.1363,5.1526,5.0873,5.0228,4.9595,4.8955,4.8222,4.756,4.7567,4.75,4.732,4.7232,4.708,4.6954,4.6918,4.6892,4.6613,4.5479,4.4349,4.3243,4.2802,4.2377,4.1952,4.1881,4.1864,4.1881,4.1924,4.1753,4.1578,4.1516,4.1418,4.1209,4.118,4.1134,4.1204,4.1804,4.2362,4.2916,4.3299,4.3855,4.447,4.435,4.4487,4.4824,4.5018,4.4952,4.4833,4.4444,4.4282,4.4266,4.4282,4.4282,4.4339,4.4618,4.4729,4.4618,4.5035,4.5196,4.5089,4.5213,4.5249,4.5266,4.5196,4.5196,4.5302,4.5178,4.5178,4.5249,4.5319,4.5266,4.5061,4.411,4.2774,4.1376,4.0151,3.9454,3.9176,3.8529,3.7507,3.6254,3.5129,3.4107,3.3128,3.2314,3.1799,3.1432,3.0749,3.0061,2.9822,2.933,2.8671,2.7368,2.6419,2.5533,2.4461,2.3329,2.1844,2.0273,1.9381,1.8481,1.7783,1.709,1.6513,1.5257,1.3913,1.2656,1.1515,0.9996,0.8163,0.5621,0.265,-0.1455,-0.6047,-1.0286,-1.4377,5.206,5.2242,5.1864,5.1284,5.0635,4.9956,4.9218,4.8568,4.8221,4.8032,4.7893,4.777,4.765,4.753,4.7554,4.7596,4.7666,4.7372,4.6382,4.4834,4.3872,4.3342,4.2835,4.253,4.2418,4.24,4.2382,4.2302,4.2092,4.2056,4.1948,4.1709,4.1622,4.1771,4.1936,4.2689,4.3477,4.416,4.4546,4.5026,4.5455,4.5281,4.5246,4.5613,4.5768,4.5938,4.6055,4.5528,4.5144,4.4947,4.4892,4.491,4.4947,4.5232,4.5354,4.5319,4.5546,4.577,4.5649,4.5752,4.5922,4.5922,4.5854,4.5938,4.6154,4.6038,4.6105,4.6235,4.6284,4.6284,4.609,4.5253,4.4055,4.2857,4.1336,4.0254,3.9817,3.9413,3.8623,3.7669,3.6671,3.5712,3.4772,3.3818,3.3224,3.2786,3.2235,3.1747,3.1474,3.1041,3.0251,2.9449,2.8439,2.7523,2.6569,2.5503,2.4368,2.3115,2.1896,2.0951,2.0092,1.935,1.8645,1.6485,1.489,1.3529,1.2312,1.0501,0.8676,0.5638,0.2574,-0.1828,-0.6267,-1.0453,-1.4491,5.2806,5.2824,5.285,5.2302,5.1536,5.0806,5.0108,4.9407,4.8803,4.8512,4.8495,4.8231,4.8269,4.8439,4.8212,4.8251,4.8532,4.8513,4.8088,4.6929,4.5535,4.4433,4.412,4.3594,4.3246,4.3027,4.3119,4.2991,4.2711,4.2878,4.275,4.2378,4.2463,4.2685,4.317,4.3944,4.4769,4.5389,4.617,4.656,4.6602,4.6566,4.6566,4.6554,4.6602,4.6619,4.6572,4.6554,4.6315,4.5905,4.5803,4.5854,4.5854,4.5972,4.6055,4.6005,4.6023,4.6122,4.6073,4.6186,4.6235,4.6363,4.6459,4.6619,4.6916,4.6962,4.6944,4.7017,4.7044,4.7044,4.6811,4.6177,4.5311,4.4375,4.2591,4.1391,4.0802,4.0792,4.0122,3.8899,3.7997,3.7208,3.6164,3.5179,3.4496,3.4022,3.3431,3.2998,3.2839,3.2594,3.2314,3.1463,3.0407,2.9401,2.8477,2.7305,2.6252,2.5532,2.4326,2.3313,2.2068,2.1108,1.989,1.7777,1.5906,1.4538,1.2959,1.1272,0.8902,0.5997,0.2306,-0.2082,-0.6474,-1.081,-1.4746,5.3085,5.3085,5.3235,5.2798,5.204,5.1823,5.1019,4.986,4.9583,4.9141,4.8753,4.8514,4.855,4.8587,4.8642,4.8697,4.8804,4.8927,4.894,4.8546,4.7568,4.6406,4.5788,4.5404,4.4909,4.4488,4.4836,4.4563,4.3269,4.3798,4.3596,4.2732,4.3385,4.3671,4.3913,4.5155,4.5894,4.6236,4.6938,4.7335,4.7335,4.7353,4.7222,4.7017,4.7178,4.7178,4.7017,4.7222,4.7044,4.6495,4.659,4.659,4.6429,4.659,4.6637,4.6525,4.6637,4.6749,4.6778,4.6908,4.7008,4.7097,4.716,4.7335,4.7439,4.7439,4.7439,4.7482,4.7482,4.7464,4.7337,4.6907,4.5994,4.4592,4.3185,4.2068,4.1803,4.1768,4.1357,4.0211,3.9399,3.8356,3.7305,3.627,3.5565,3.514,3.4733,3.4365,3.4203,3.4055,3.374,3.3294,3.2384,3.1362,3.0315,2.9113,2.8222,2.7665,2.6659,2.5506,2.399,2.2375,2.0752,1.8805,1.7299,1.5857,1.4096,1.2364,0.9444,0.6578,0.2802,-0.1244,-0.682,-1.1627,-1.5299,5.3662,5.368,5.3795,5.3516,5.3014,5.2623,5.1955,5.1083,5.0268,4.9972,4.973,4.9415,4.934,4.9357,4.9464,4.9294,4.9083,4.9098,4.9164,4.9141,4.8674,4.7667,4.6698,4.6387,4.6131,4.5749,4.6153,4.5666,4.4849,4.5123,4.4908,4.4528,4.4693,4.4984,4.5287,4.6054,4.6815,4.7084,4.7557,4.7797,4.7793,4.7793,4.7669,4.7542,4.765,4.765,4.7542,4.7669,4.7524,4.7133,4.7151,4.7151,4.7044,4.7151,4.7151,4.6999,4.7151,4.7258,4.7284,4.7439,4.7506,4.7548,4.7632,4.7775,4.7856,4.7897,4.7897,4.8017,4.8017,4.7999,4.791,4.7497,4.6544,4.5406,4.4107,4.3132,4.2555,4.2541,4.2282,4.1475,4.0499,3.9505,3.845,3.7382,3.6637,3.6165,3.5769,3.5576,3.5487,3.5335,3.5069,3.4496,3.3978,3.299,3.196,3.0812,2.9642,2.912,2.8529,2.7489,2.5972,2.4026,2.2415,2.0752,1.8934,1.7236,1.5669,1.3549,1.0424,0.7288,0.3638,-0.0964,-0.6628,-1.1385,-1.5207,5.4315,5.433,5.433,5.433,5.4146,5.334,5.2912,5.2466,5.119,5.0854,5.1164,5.0754,5.0557,5.0605,5.06,5.0207,4.9495,4.9615,4.9415,4.9409,4.9152,4.8471,4.7442,4.7223,4.701,4.6764,4.6778,4.6601,4.6294,4.6485,4.6527,4.6123,4.6181,4.6594,4.6819,4.7113,4.7532,4.7991,4.8196,4.8251,4.8231,4.8192,4.8153,4.8093,4.8075,4.8172,4.8132,4.8153,4.8035,4.7797,4.7733,4.765,4.7632,4.7674,4.7656,4.7656,4.7674,4.7715,4.7715,4.7797,4.782,4.7959,4.8017,4.8017,4.8307,4.8383,4.8458,4.8623,4.866,4.8605,4.8512,4.7938,4.7106,4.62,4.5426,4.4375,4.3433,4.3213,4.3178,4.2681,4.1415,4.0546,3.9695,3.8702,3.7484,3.7079,3.6738,3.6496,3.6417,3.6238,3.5963,3.5548,3.5011,3.455,3.3499,3.2479,3.1308,3.0377,2.9927,2.9054,2.7859,2.6198,2.4612,2.294,2.1334,1.9659,1.7896,1.5173,1.2279,0.8926,0.5949,-0.0116,-0.638,-1.0441,-1.4376,5.4411,5.4458,5.4572,5.4654,5.4647,5.4415,5.3887,5.3104,5.2682,5.2212,5.1963,5.1732,5.1713,5.1876,5.1838,5.1481,5.079,5.0676,5.0505,4.9898,4.9731,4.956,4.9031,4.8727,4.8258,4.797,4.8362,4.7914,4.7135,4.7354,4.7335,4.6818,4.7332,4.7667,4.7843,4.8389,4.8754,4.8925,4.8962,4.9018,4.9039,4.8948,4.8841,4.8642,4.8587,4.8695,4.889,4.8959,4.8925,4.8767,4.8421,4.8096,4.8096,4.8155,4.8194,4.8137,4.8194,4.8271,4.8365,4.8477,4.8641,4.8658,4.8713,4.8925,4.8959,4.8993,4.8993,4.9079,4.9079,4.9027,4.8971,4.8352,4.7593,4.6759,4.5959,4.509,4.4178,4.38,4.3529,4.3083,4.2337,4.1375,4.0456,3.957,3.8651,3.8075,3.7664,3.7415,3.7256,3.7148,3.6893,3.6559,3.6394,3.592,3.4804,3.3763,3.2639,3.1711,3.1213,3.0925,2.9724,2.8608,2.7118,2.5516,2.3876,2.209,2.024,1.8707,1.6168,1.2261,0.7999,0.1903,-0.3788,-0.849,-1.4238,5.4962,5.4971,5.5045,5.5091,5.5091,5.5009,5.4648,5.4095,5.3588,5.3407,5.3286,5.3002,5.2873,5.3041,5.3031,5.262,5.1929,5.1478,5.0907,5.0272,5.0025,4.9974,4.9974,4.974,4.9305,4.879,4.9077,4.8703,4.8303,4.8334,4.8465,4.8016,4.8434,4.8888,4.9169,4.9636,5.0034,5.0243,5.0029,5.0011,5.0295,4.9926,4.9706,4.9551,4.948,4.9455,4.9202,4.9179,4.9179,4.9113,4.8909,4.8714,4.866,4.8713,4.8713,4.8713,4.8748,4.8802,4.889,4.8959,4.9046,4.9094,4.9179,4.9179,4.9244,4.9257,4.9352,4.9352,4.9352,4.9321,4.9193,4.8917,4.817,4.7479,4.6919,4.6171,4.5095,4.4377,4.3961,4.3647,4.3019,4.23,4.1489,4.0551,3.9703,3.9049,3.8382,3.8099,3.8095,3.8016,3.7944,3.7757,3.7731,3.723,3.6085,3.4978,3.3874,3.3062,3.2517,3.2396,3.1938,3.0872,2.979,2.7991,2.6093,2.4389,2.263,2.1262,1.9439,1.5504,1.0692,0.4545,-0.1333,-0.6753,-1.3176,5.5504,5.5527,5.5527,5.5508,5.5504,5.5358,5.5262,5.5076,5.4305,5.4315,5.4761,5.4256,5.4104,5.418,5.4224,5.3757,5.2943,5.1947,5.1223,5.076,5.0348,5.0268,5.0206,5.0116,4.9898,4.9488,4.9607,4.9475,4.9416,4.9469,4.9351,4.9442,4.9577,4.9878,5.0472,5.0847,5.1104,5.1466,5.1161,5.1104,5.1523,5.1059,5.0764,5.0745,5.0708,5.0483,5.0121,4.9952,4.972,4.9527,4.9495,4.9495,4.949,4.9249,4.9244,4.9211,4.9211,4.9193,4.9244,4.9257,4.9289,4.9308,4.9371,4.9352,4.9427,4.951,4.9627,4.9627,4.9627,4.9569,4.9334,4.929,4.8884,4.8241,4.8022,4.733,4.6094,4.5046,4.4643,4.4192,4.3722,4.3167,4.2493,4.1661,4.0811,3.9981,3.9361,3.8778,3.8715,3.8567,3.8317,3.8037,3.7814,3.7924,3.6978,3.5732,3.4678,3.4229,3.3707,3.3495,3.3448,3.2502,3.126,3.0004,2.8243,2.6587,2.5314,2.4268,2.1857,1.8372,1.4812,1.0169,0.321,-0.4697,-1.1399,5.5527,5.5573,5.5573,5.5618,5.564,5.5618,5.5551,5.5437,5.5197,5.5284,5.5408,5.5331,5.5308,5.5455,5.5554,5.5074,5.3975,5.2858,5.203,5.1607,5.1105,5.0698,5.0755,5.0732,5.0421,5.0111,5.022,5.0297,5.0012,5.0043,4.9993,5.0001,5.0486,5.0894,5.1223,5.1611,5.2181,5.2492,5.2246,5.2246,5.2359,5.2303,5.2065,5.2076,5.2038,5.1868,5.1763,5.1665,5.1469,5.0987,5.0713,5.0771,5.0648,4.9981,4.9577,4.9589,4.9589,4.9638,4.9615,4.9607,4.9674,4.9769,4.9852,4.9895,4.991,4.9968,4.9993,5.0038,5.0038,4.9968,4.9803,4.9749,4.9306,4.8692,4.8342,4.7966,4.7014,4.6204,4.5329,4.4635,4.4298,4.3999,4.3343,4.2716,4.2015,4.1175,4.0464,3.941,3.8682,3.8432,3.8145,3.7824,3.7495,3.7734,3.775,3.6503,3.5408,3.5156,3.4674,3.4136,3.3974,3.3524,3.2535,3.1209,3.017,2.8898,2.784,2.6916,2.5146,2.2267,1.9237,1.6216,0.8778,0.1011,-0.7249,5.5744,5.5765,5.5745,5.5785,5.5806,5.5806,5.5766,5.5703,5.5722,5.5724,5.5745,5.5745,5.5845,5.5943,5.5962,5.5498,5.4608,5.3986,5.3288,5.2829,5.2348,5.2101,5.2026,5.1971,5.1973,5.1953,5.1914,5.1197,5.0352,5.0252,5.0493,5.0846,5.1236,5.1694,5.2414,5.3,5.3446,5.3617,5.3484,5.3446,5.3769,5.3807,5.3647,5.3278,5.3153,5.2989,5.2589,5.2505,5.2315,5.1955,5.1497,5.158,5.1561,5.1178,5.0467,5.0532,5.0475,5.0247,5.0043,4.9981,5.0006,5.0032,5.0125,5.0149,5.0202,5.023,5.032,5.0361,5.0361,5.0275,5.0087,5.0049,4.9733,4.9349,4.9151,4.8572,4.7726,4.715,4.622,4.5179,4.4695,4.4429,4.4188,4.3648,4.3108,4.2397,4.1614,4.0386,3.9022,3.8622,3.8426,3.8553,3.8417,3.8445,3.8525,3.7482,3.6387,3.6065,3.5589,3.5056,3.4668,3.4337,3.3525,3.2371,3.1461,3.0674,2.9685,2.8524,2.7281,2.6041,2.318,1.9524,1.3692,0.6694,-0.1266,5.6329,5.6174,5.6155,5.6078,5.5924,5.5924,5.5905,5.5924,5.5924,5.5904,5.5943,5.5961,5.5999,5.6035,5.5975,5.5683,5.5059,5.4917,5.4351,5.3906,5.3514,5.3509,5.3572,5.3596,5.3371,5.3114,5.3207,5.2642,5.1528,5.1217,5.1406,5.1842,5.1989,5.2633,5.3714,5.414,5.4733,5.4891,5.4757,5.4738,5.5159,5.5249,5.502,5.4358,5.4312,5.403,5.359,5.3484,5.3341,5.302,5.2613,5.2422,5.2832,5.2468,5.2024,5.1806,5.1672,5.1075,5.0501,5.0275,5.0275,5.0294,5.0298,5.032,5.0425,5.0567,5.0644,5.0625,5.0625,5.0394,5.008,5.0035,4.9908,4.9754,4.9635,4.9463,4.8613,4.7876,4.7216,4.6249,4.5403,4.4896,4.4687,4.4435,4.3914,4.3209,4.2417,4.1319,4.0061,3.9414,3.9281,3.9655,3.9668,3.9522,3.9253,3.8578,3.7625,3.7031,3.643,3.5803,3.5507,3.525,3.4268,3.3272,3.2814,3.1981,3.1035,3.0143,2.9119,2.7866,2.6374,2.333,1.8474,1.2927,0.584,5.7841,5.7127,5.7061,5.6599,5.5982,5.5924,5.5943,5.6017,5.5995,5.6012,5.6078,5.6114,5.6164,5.613,5.6106,5.6067,5.5796,5.5079,5.4764,5.4629,5.4081,5.379,5.3698,5.3582,5.3892,5.394,5.3839,5.3484,5.3041,5.2988,5.2952,5.3109,5.3609,5.422,5.4405,5.5006,5.5525,5.5602,5.5528,5.5528,5.5624,5.5643,5.5547,5.5448,5.5412,5.5316,5.5047,5.4927,5.4773,5.4361,5.4043,5.4024,5.4283,5.4284,5.3783,5.307,5.2219,5.1239,5.0596,5.0488,5.0548,5.0587,5.0625,5.0736,5.0771,5.0858,5.096,5.1024,5.099,5.0658,5.0059,4.9714,4.9566,4.9606,4.97,4.9874,4.9471,4.8318,4.7679,4.6851,4.584,4.5438,4.5188,4.4968,4.4687,4.3956,4.3159,4.2086,4.1102,4.0406,3.9842,4.0102,4.0327,4.0222,3.9925,3.925,3.8706,3.8024,3.7143,3.6425,3.5998,3.5574,3.4989,3.4153,3.372,3.3025,3.1851,3.109,3.0704,2.9776,2.8371,2.6494,2.41,1.8231,1.2195,5.8468,5.6744,5.6712,5.647,5.6154,5.6129,5.6142,5.6175,5.6161,5.6193,5.6224,5.6236,5.6232,5.6155,5.5773,5.5772,5.5807,5.491,5.4865,5.5364,5.484,5.4627,5.504,5.5065,5.5065,5.4953,5.5075,5.5176,5.4797,5.408,5.3681,5.4213,5.4527,5.4916,5.5114,5.5692,5.5902,5.5959,5.5958,5.5959,5.5941,5.5959,5.5959,5.5923,5.5959,5.5977,5.5959,5.5941,5.5806,5.541,5.4995,5.4898,5.518,5.5004,5.4365,5.3553,5.3061,5.2122,5.0968,5.0829,5.0789,5.0822,5.0909,5.0975,5.1024,5.1053,5.1101,5.1101,5.1101,5.0801,5.0463,5.0405,5.0306,5.0201,4.9956,4.9586,4.9525,4.886,4.7942,4.7124,4.6331,4.5916,4.5571,4.543,4.5245,4.4878,4.4102,4.3169,4.2107,4.1152,4.0674,4.0362,4.0567,4.0693,4.0362,3.9906,3.9493,3.8746,3.7486,3.682,3.6239,3.5737,3.5201,3.49,3.455,3.369,3.2615,3.1977,3.1539,3.0999,3.0429,2.8512,2.6539,2.3405,1.6186,5.8591,5.6437,5.6786,5.6709,5.63,5.6299,5.6308,5.6308,5.6308,5.6316,5.6324,5.6316,5.629,5.6173,5.5774,5.583,5.6149,5.4917,5.5202,5.568,5.5785,5.5714,5.5909,5.6149,5.6155,5.6251,5.6025,5.6025,5.5734,5.5216,5.4783,5.5206,5.5223,5.5513,5.5955,5.6114,5.6117,5.6168,5.6168,5.6153,5.6133,5.616,5.6156,5.6151,5.6185,5.6226,5.6226,5.6204,5.6165,5.5991,5.5608,5.5569,5.5894,5.5572,5.4938,5.4278,5.3903,5.3113,5.1857,5.1222,5.1073,5.1034,5.1062,5.1089,5.1121,5.1121,5.1134,5.1127,5.1127,5.103,5.0843,5.0712,5.0532,5.0429,5.0468,4.9744,4.9096,4.8701,4.8118,4.7264,4.6566,4.613,4.5847,4.5783,4.5684,4.5592,4.4987,4.4105,4.2947,4.1704,4.114,4.0673,4.0754,4.0805,4.0344,4.0078,3.9858,3.9447,3.8174,3.7455,3.7069,3.6228,3.5478,3.5275,3.5173,3.4775,3.3949,3.3134,3.2338,3.1787,3.1169,3.0402,2.8559,2.5631,1.981,5.8175,5.671,5.8097,5.7739,5.6316,5.6308,5.6316,5.6332,5.6379,5.6413,5.64,5.64,5.6387,5.6257,5.612,5.6094,5.6301,5.6257,5.6145,5.6188,5.6318,5.6183,5.631,5.6369,5.6378,5.6369,5.6357,5.6363,5.634,5.6082,5.5958,5.6126,5.5902,5.6054,5.617,5.6213,5.6199,5.6232,5.6232,5.6238,5.6213,5.6214,5.6205,5.6216,5.6271,5.629,5.627,5.625,5.6224,5.6205,5.6049,5.5971,5.6131,5.6066,5.5531,5.4908,5.4713,5.3808,5.2543,5.1622,5.1166,5.1108,5.1108,5.1159,5.12,5.119,5.1201,5.1191,5.1191,5.0919,5.0491,5.0121,5.0442,5.052,5.0568,5.0062,4.9409,4.8894,4.8271,4.7416,4.6764,4.6251,4.6064,4.5974,4.5899,4.5809,4.4819,4.3927,4.2944,4.185,4.1338,4.0967,4.0983,4.0764,4.0101,3.9923,4.0101,3.9761,3.8787,3.8398,3.8166,3.718,3.5914,3.5677,3.5588,3.5456,3.5183,3.4156,3.3237,3.2583,3.1817,3.0753,2.8577,2.5386,1.9437,5.8924,5.7538,5.8621,5.8082,5.6493,5.6481,5.6484,5.6484,5.6507,5.6527,5.6527,5.649,5.6195,5.5833,5.5654,5.565,5.5538,5.5031,5.5597,5.5943,5.597,5.5964,5.6134,5.6407,5.6387,5.6394,5.6386,5.6405,5.64,5.6416,5.6394,5.6327,5.632,5.632,5.63,5.631,5.6329,5.6359,5.6339,5.6339,5.633,5.6329,5.6327,5.6316,5.6344,5.6367,5.634,5.6344,5.6308,5.6308,5.6308,5.6308,5.6316,5.634,5.5964,5.5308,5.523,5.4333,5.302,5.2189,5.1784,5.1267,5.1215,5.1238,5.1257,5.1258,5.1265,5.1252,5.1265,5.1005,5.094,5.0815,5.0898,5.082,5.0606,5.0254,4.9586,4.8976,4.8059,4.7045,4.6596,4.6206,4.615,4.615,4.6078,4.5944,4.4822,4.3766,4.29,4.1948,4.1374,4.1169,4.1197,4.1086,4.0482,4.0448,4.0488,3.9899,3.9283,3.8924,3.8525,3.7605,3.6553,3.628,3.5782,3.5372,3.4998,3.4697,3.4065,3.3237,3.2042,3.0729,2.8127,2.5241,2.0117,5.9784,5.8436,5.9199,5.8574,5.707,5.6699,5.6738,5.6914,5.6699,5.662,5.662,5.6581,5.6269,5.5742,5.5643,5.5681,5.5618,5.5325,5.5636,5.5907,5.6041,5.5938,5.6231,5.6422,5.6442,5.6426,5.6451,5.6471,5.6471,5.6471,5.6471,5.6465,5.6454,5.6441,5.6381,5.6413,5.6511,5.6725,5.679,5.7004,5.7115,5.7289,5.7035,5.6977,5.6929,5.6704,5.6567,5.6441,5.643,5.6416,5.6416,5.6421,5.6426,5.6352,5.6142,5.5833,5.5443,5.4838,5.3741,5.2445,5.1966,5.1366,5.1299,5.1308,5.1336,5.1324,5.134,5.134,5.1343,5.1327,5.1327,5.1229,5.1174,5.1093,5.1115,5.0747,4.9558,4.8738,4.7647,4.6635,4.6365,4.6189,4.619,4.619,4.6166,4.5808,4.4657,4.3824,4.331,4.2301,4.1229,4.1211,4.1385,4.1226,4.1045,4.0906,4.0648,3.9848,3.9292,3.8961,3.8427,3.7579,3.6903,3.6408,3.5852,3.5238,3.4812,3.4509,3.4183,3.3763,3.2318,3.0713,2.8768,2.5991,2.3113,6.0635,5.9249,5.9991,5.9391,5.7929,5.6991,5.7146,5.7713,5.7065,5.6673,5.6634,5.6595,5.6497,5.636,5.6226,5.6247,5.6188,5.6226,5.644,5.6424,5.6348,5.6424,5.6464,5.6503,5.6503,5.6503,5.6543,5.656,5.6579,5.6579,5.6579,5.6579,5.6562,5.6521,5.6421,5.643,5.6865,5.7514,5.7606,5.8074,5.8312,5.8423,5.8036,5.7489,5.7358,5.7029,5.6677,5.6517,5.6495,5.6495,5.6497,5.6499,5.6499,5.6523,5.6483,5.6443,5.6443,5.5993,5.5132,5.28,5.1812,5.1567,5.1631,5.1496,5.1418,5.14,5.1403,5.1386,5.1384,5.1382,5.1381,5.1382,5.1346,5.1347,5.1348,5.0937,4.9745,4.8768,4.779,4.685,4.6444,4.6211,4.621,4.6208,4.6205,4.5661,4.449,4.3825,4.3473,4.263,4.1494,4.1233,4.1436,4.1358,4.1213,4.1135,4.0774,3.9935,3.9431,3.9228,3.8562,3.7662,3.7051,3.6539,3.5756,3.4984,3.4612,3.4315,3.382,3.3217,3.2032,3.0508,2.8743,2.6882,2.4214,6.1006,5.9991,6.0284,6.0071,5.9467,5.8626,5.8431,5.8509,5.7823,5.7137,5.6669,5.661,5.622,5.6041,5.6312,5.6348,5.5954,5.6501,5.6618,5.6598,5.6571,5.6568,5.6571,5.6551,5.6551,5.6568,5.6598,5.6598,5.6607,5.6595,5.6598,5.6605,5.6582,5.6577,5.6738,5.6972,5.7636,5.791,5.8242,5.8574,5.832,5.8301,5.7968,5.7168,5.7167,5.6989,5.6637,5.6581,5.6562,5.6562,5.6561,5.6541,5.6541,5.6571,5.6591,5.661,5.6593,5.62,5.5299,5.3826,5.289,5.2499,5.2206,5.199,5.1559,5.1416,5.1394,5.1394,5.1394,5.1394,5.1402,5.1385,5.1379,5.1379,5.1277,5.0848,5.0005,4.9185,4.8283,4.7377,4.6757,4.637,4.623,4.6186,4.6162,4.6002,4.5011,4.4114,4.3648,4.2815,4.1827,4.1496,4.1428,4.1402,4.1381,4.1513,4.1129,4.0295,3.9968,3.9844,3.8994,3.7817,3.7288,3.6806,3.576,3.4766,3.4409,3.3942,3.3248,3.2417,3.1551,3.0598,2.9172,2.7621,2.583,6.1305,6.0768,6.0798,6.0827,6.0631,5.9592,5.8951,5.8616,5.8069,5.7386,5.6738,5.6605,5.6348,5.6071,5.6224,5.6419,5.5825,5.6294,5.6606,5.6606,5.6606,5.6586,5.6563,5.6548,5.6509,5.6542,5.6511,5.6485,5.6472,5.6485,5.6485,5.6491,5.6514,5.6475,5.6665,5.7024,5.7511,5.7784,5.8214,5.8485,5.8409,5.8309,5.7999,5.7396,5.7101,5.6964,5.671,5.661,5.6647,5.6666,5.6647,5.6605,5.6602,5.6582,5.6559,5.6559,5.6516,5.6259,5.5669,5.5337,5.4467,5.3744,5.337,5.2726,5.2081,5.1937,5.1635,5.1528,5.1439,5.1394,5.1394,5.1394,5.1388,5.1388,5.1232,5.0823,5.0251,4.9432,4.8685,4.7795,4.7002,4.6624,4.6201,4.6166,4.6127,4.5905,4.5593,4.4695,4.3797,4.2909,4.2057,4.156,4.1624,4.1849,4.1962,4.2098,4.1571,4.067,4.04,4.0223,3.9073,3.7866,3.749,3.7005,3.5942,3.4969,3.4192,3.3539,3.2791,3.2144,3.1485,3.0506,2.9476,2.8078,2.6576,6.152,6.1437,6.1549,6.1545,6.13,5.9948,5.8796,5.7875,5.7797,5.7367,5.6704,5.6743,5.6688,5.6665,5.6704,5.6606,5.6469,5.6567,5.6582,5.6577,5.6553,5.6528,5.6491,5.6425,5.643,5.6425,5.6504,5.669,5.6397,5.6592,5.6573,5.6349,5.6375,5.6366,5.6461,5.6634,5.7148,5.7656,5.8139,5.8392,5.8436,5.864,5.8089,5.7601,5.745,5.7258,5.7063,5.6942,5.6965,5.6942,5.6864,5.6733,5.6631,5.6548,5.6536,5.6491,5.6511,5.6433,5.6335,5.6127,5.5886,5.504,5.4532,5.3713,5.2952,5.2517,5.2116,5.1745,5.1544,5.1447,5.1388,5.1382,5.1375,5.133,5.1303,5.0867,5.0346,4.9664,4.8974,4.816,4.7365,4.6792,4.6221,4.6056,4.6083,4.5886,4.5564,4.4974,4.4045,4.3073,4.2189,4.1294,4.1559,4.2351,4.2483,4.2367,4.2197,4.1385,4.0682,4.0288,3.9071,3.8134,3.77,3.7099,3.6124,3.5209,3.4273,3.3294,3.2336,3.1743,3.1261,3.0452,2.939,2.8276,2.6805,6.1429,6.1406,6.1448,6.1459,6.1392,6.0926,5.9642,5.7948,5.7797,5.7641,5.7445,5.7465,5.7417,5.7445,5.7465,5.707,5.6777,5.6602,5.6523,5.6517,5.6595,5.6469,5.6435,5.6485,5.6378,5.6602,5.6853,5.7157,5.7169,5.7157,5.673,5.6325,5.6414,5.6364,5.6336,5.632,5.6912,5.749,5.7981,5.8114,5.8083,5.8055,5.7529,5.717,5.7357,5.7248,5.7368,5.7751,5.7946,5.8227,5.8312,5.8149,5.7447,5.7388,5.7285,5.6543,5.6485,5.6485,5.6485,5.6478,5.6315,5.6094,5.5743,5.4918,5.3943,5.3137,5.2675,5.2311,5.1798,5.1635,5.151,5.1445,5.1359,5.1273,5.1237,5.1014,5.0557,5.0169,4.944,4.8564,4.7777,4.6851,4.6274,4.6053,4.6048,4.5858,4.5501,4.4979,4.4388,4.3428,4.2344,4.1435,4.1523,4.2314,4.2351,4.2266,4.2315,4.2126,4.1399,4.0613,3.9665,3.8822,3.8083,3.7292,3.6436,3.5341,3.4204,3.328,3.2397,3.1547,3.0998,3.0166,2.931,2.8353,2.7208,6.1317,6.1289,6.133,6.1194,6.09,6.09,5.9786,5.8414,5.8558,5.8558,5.8207,5.818,5.8031,5.77,5.7615,5.7251,5.6503,5.6503,5.6586,5.699,5.6883,5.7196,5.7173,5.7184,5.7321,5.7437,5.7571,5.7866,5.7877,5.7848,5.7518,5.7207,5.6883,5.6631,5.6558,5.6369,5.6373,5.6919,5.7348,5.7467,5.7331,5.7086,5.6667,5.6477,5.6841,5.715,5.7592,5.8184,5.849,5.8744,5.8744,5.8238,5.7527,5.7361,5.704,5.6369,5.6387,5.6349,5.6329,5.631,5.6339,5.6359,5.6349,5.5774,5.5064,5.4294,5.3697,5.3167,5.2411,5.183,5.1685,5.1511,5.1366,5.1211,5.1201,5.1171,5.0927,5.0653,4.9901,4.9006,4.8076,4.7068,4.651,4.6263,4.5986,4.5726,4.5409,4.4953,4.454,4.3987,4.2768,4.162,4.1832,4.2268,4.2218,4.2164,4.2256,4.2286,4.205,4.1211,4.0277,3.9514,3.8854,3.7849,3.6815,3.5666,3.4418,3.3565,3.2683,3.1827,3.0979,3.0359,2.9661,2.8898,2.7605,6.1206,6.1118,6.1223,6.0886,6.0242,6.0268,5.9801,5.9094,5.9775,5.969,5.9021,5.8904,5.8576,5.8256,5.8159,5.7633,5.7157,5.6982,5.7263,5.7667,5.7667,5.7903,5.8245,5.8575,5.8141,5.8351,5.8586,5.8606,5.8568,5.8528,5.8489,5.8393,5.7715,5.7346,5.7235,5.656,5.6459,5.664,5.6626,5.6518,5.6401,5.6226,5.6168,5.6129,5.6348,5.664,5.7236,5.7624,5.7838,5.8143,5.8123,5.7696,5.7282,5.6984,5.655,5.6453,5.655,5.6537,5.6434,5.6323,5.616,5.6132,5.6083,5.5976,5.5502,5.4922,5.4285,5.3828,5.3116,5.2394,5.208,5.1758,5.152,5.1217,5.1017,5.0985,5.0862,5.0538,4.9949,4.9103,4.8369,4.7414,4.6687,4.6427,4.6011,4.5668,4.5323,4.4939,4.469,4.4344,4.3363,4.2057,4.1855,4.2011,4.2047,4.2039,4.2155,4.2177,4.2068,4.1745,4.0753,4.0142,3.9602,3.8346,3.7069,3.5876,3.4712,3.3955,3.308,3.1913,3.1148,3.06,2.9913,2.9239,2.8139,6.108,6.1039,6.106,6.0944,6.0768,6.0786,6.067,6.0478,6.0689,6.0344,5.9808,5.9748,5.9619,5.9251,5.9173,5.872,5.8161,5.7781,5.8228,5.8395,5.8425,5.858,5.8656,5.8873,5.8664,5.8684,5.8914,5.9356,5.9356,5.93,5.8971,5.8447,5.8084,5.8064,5.8004,5.7233,5.6849,5.6889,5.652,5.6333,5.6291,5.6087,5.5977,5.6172,5.6423,5.6902,5.748,5.7942,5.8264,5.856,5.8537,5.8071,5.745,5.7218,5.7125,5.711,5.7091,5.7036,5.6788,5.6446,5.6159,5.6024,5.5985,5.5985,5.5726,5.522,5.4776,5.4388,5.3851,5.3106,5.253,5.2133,5.1678,5.1261,5.0883,5.0867,5.0816,5.0339,4.9879,4.9292,4.8624,4.7952,4.7204,4.659,4.6107,4.574,4.5373,4.5101,4.502,4.472,4.4013,4.2849,4.1758,4.1692,4.1759,4.1798,4.1887,4.1726,4.1537,4.1305,4.1089,4.0443,3.968,3.8492,3.7255,3.6202,3.532,3.4718,3.3727,3.2486,3.139,3.0841,3.0234,2.9547,2.8497,6.0999,6.1017,6.1017,6.1018,6.1,6.1,6.1,6.1,6.1,6.0771,6.0433,6.0425,6.027,5.9963,5.9866,5.9494,5.8828,5.8587,5.8789,5.9005,5.9218,5.9436,5.9418,5.9474,5.9666,5.9721,5.9911,6.0179,6.0121,6.0137,5.9807,5.9306,5.9114,5.8806,5.871,5.8094,5.7653,5.7674,5.7076,5.6925,5.6831,5.6675,5.6443,5.6615,5.6808,5.7273,5.7755,5.8276,5.8858,5.9167,5.9283,5.8529,5.7989,5.7757,5.7738,5.7719,5.768,5.7582,5.7197,5.6734,5.6213,5.602,5.5789,5.5749,5.571,5.5287,5.5357,5.4987,5.4455,5.3762,5.3494,5.3133,5.2324,5.1749,5.1462,5.1329,5.0894,5.0356,5.0105,4.9909,4.9386,4.8999,4.8228,4.7382,4.6835,4.5993,4.5624,4.5144,4.5061,4.5014,4.4345,4.3668,4.264,4.1628,4.1331,4.1418,4.1485,4.1303,4.1045,4.1051,4.0929,4.0412,3.9694,3.8582,3.7557,3.6741,3.5946,3.507,3.4499,3.3482,3.2253,3.1133,3.0516,2.9948,2.9055,6.0976,6.0976,6.0976,6.0976,6.0995,6.0995,6.0995,6.0976,6.0976,6.0935,6.0836,6.088,6.0475,6.007,5.9819,5.9298,5.9069,5.9263,5.9455,5.9706,5.986,6.0111,6.0457,6.074,6.0583,6.0542,6.0654,6.067,6.065,6.065,6.0593,6.0589,6.0204,5.9665,5.9435,5.8931,5.8434,5.8335,5.8101,5.8131,5.7947,5.7646,5.73,5.7165,5.72,5.7566,5.8046,5.8508,5.9219,5.9354,5.9354,5.8735,5.8427,5.8223,5.8354,5.8354,5.8357,5.8027,5.7497,5.7036,5.6437,5.5949,5.5653,5.5499,5.5523,5.5535,5.559,5.5401,5.4863,5.4516,5.4246,5.388,5.3032,5.2204,5.1934,5.1491,5.0888,5.0355,5.0291,5.0245,4.9988,4.9654,4.8982,4.8134,4.731,4.6487,4.5817,4.5337,4.4967,4.4943,4.4616,4.4209,4.3592,4.258,4.1632,4.1128,4.1295,4.0876,4.0685,4.0806,4.0712,4.0084,3.9445,3.8776,3.781,3.6847,3.5873,3.4929,3.4423,3.4064,3.311,3.1909,3.117,3.0554,2.9769,6.0933,6.0911,6.0846,6.0888,6.0914,6.0914,6.0933,6.0933,6.0933,6.0869,6.0846,6.0823,6.0715,6.0663,6.0663,6.0393,6.0145,6.0143,6.0376,6.0727,6.0552,6.0743,6.0856,6.0891,6.0869,6.0846,6.0823,6.08,6.08,6.08,6.0781,6.0742,6.0742,6.0454,6.0358,5.9753,5.9192,5.9072,5.8736,5.8596,5.8826,5.851,5.805,5.7935,5.7977,5.8031,5.8122,5.816,5.8333,5.8424,5.8673,5.8514,5.8591,5.8826,5.9013,5.907,5.9076,5.8865,5.8374,5.7602,5.697,5.6332,5.6026,5.5542,5.5479,5.5396,5.5456,5.5437,5.5048,5.4806,5.4556,5.4342,5.3686,5.2759,5.2196,5.1366,5.0617,5.0321,5.0163,5.0139,5.0062,4.9657,4.9143,4.8294,4.749,4.6687,4.5965,4.548,4.5393,4.516,4.4953,4.4648,4.4373,4.3818,4.2934,4.1451,4.1111,4.0637,4.0325,4.0459,4.0261,3.9638,3.9031,3.8729,3.776,3.6649,3.5711,3.484,3.4432,3.4064,3.3583,3.2772,3.2021,3.126,3.0538]}]]